Wetterdaten: Samstag, 30.09.2017
Datum Zeit Temp. A. Pool Temp. Feuchte A. Luftdruck Regen Wind Richtung Richtung Sonnenschein ET UV Solar Taupunkt Windchill Windben Empfang
30.09.2017 00:00 12,3 C 13,9 C 81 % 1021,3 hPa 0,0 l/m 9,5 km/h (2 Bft) O-NO 78 0 min 0,000 mm 0,0 UV-I 0 W/m 9,1 C 10,4 C 16,1 km/h (3 Bft) 100,00 %
30.09.2017 00:02 12,3 C 13,9 C 81 % 1021,3 hPa 0,0 l/m 7,9 km/h (2 Bft) O-NO 61 0 min 0,000 mm 0,0 UV-I 0 W/m 9,1 C 11,3 C 12,9 km/h (3 Bft) 100,00 %
30.09.2017 00:04 12,3 C 13,9 C 81 % 1021,3 hPa 0,0 l/m 8,2 km/h (2 Bft) O-NO 66 0 min 0,000 mm 0,0 UV-I 0 W/m 9,1 C 11,1 C 12,9 km/h (3 Bft) 97,87 %
30.09.2017 00:06 12,3 C 13,9 C 81 % 1021,3 hPa 0,0 l/m 10,7 km/h (2 Bft) O 90 0 min 0,000 mm 0,0 UV-I 0 W/m 9,1 C 9,8 C 14,5 km/h (3 Bft) 100,00 %
30.09.2017 00:08 12,3 C 13,9 C 81 % 1021,2 hPa 0,0 l/m 11,6 km/h (2 Bft) O-NO 63 0 min 0,000 mm 0,0 UV-I 0 W/m 9,1 C 9,3 C 17,7 km/h (3 Bft) 97,87 %
30.09.2017 00:10 12,3 C 13,9 C 81 % 1021,3 hPa 0,0 l/m 9,3 km/h (2 Bft) O-NO 76 0 min 0,000 mm 0,0 UV-I 0 W/m 9,1 C 10,5 C 14,5 km/h (3 Bft) 95,74 %
30.09.2017 00:12 12,3 C 13,9 C 81 % 1021,2 hPa 0,0 l/m 9,9 km/h (2 Bft) O-NO 65 0 min 0,000 mm 0,0 UV-I 0 W/m 9,1 C 10,2 C 14,5 km/h (3 Bft) 97,87 %
30.09.2017 00:14 12,3 C 13,9 C 81 % 1021,2 hPa 0,0 l/m 10,2 km/h (2 Bft) O-NO 67 0 min 0,000 mm 0,0 UV-I 0 W/m 9,1 C 10,0 C 16,1 km/h (3 Bft) 97,87 %
30.09.2017 00:16 12,3 C 13,9 C 81 % 1021,2 hPa 0,0 l/m 10,0 km/h (2 Bft) O-NO 73 0 min 0,000 mm 0,0 UV-I 0 W/m 9,1 C 10,1 C 14,5 km/h (3 Bft) 97,87 %
30.09.2017 00:18 12,2 C 13,9 C 81 % 1021,2 hPa 0,0 l/m 10,6 km/h (2 Bft) O-NO 60 0 min 0,000 mm 0,0 UV-I 0 W/m 9,0 C 9,7 C 17,7 km/h (3 Bft) 94,29 %
30.09.2017 00:20 12,2 C 13,9 C 81 % 1021,2 hPa 0,0 l/m 9,8 km/h (2 Bft) O-NO 68 0 min 0,000 mm 0,0 UV-I 0 W/m 9,0 C 10,1 C 14,5 km/h (3 Bft) 98,00 %
30.09.2017 00:22 12,2 C 13,9 C 81 % 1021,2 hPa 0,0 l/m 7,7 km/h (2 Bft) O-NO 68 0 min 0,000 mm 0,0 UV-I 0 W/m 9,0 C 11,3 C 12,9 km/h (3 Bft) 97,87 %
30.09.2017 00:24 12,1 C 13,9 C 82 % 1021,2 hPa 0,0 l/m 6,9 km/h (2 Bft) O-NO 74 0 min 0,000 mm 0,0 UV-I 0 W/m 9,1 C 11,8 C 14,5 km/h (3 Bft) 97,87 %
30.09.2017 00:26 12,1 C 13,9 C 81 % 1021,3 hPa 0,0 l/m 9,8 km/h (2 Bft) O-NO 75 0 min 0,000 mm 0,0 UV-I 0 W/m 8,9 C 10,0 C 14,5 km/h (3 Bft) 95,74 %
30.09.2017 00:28 12,1 C 13,9 C 81 % 1021,3 hPa 0,0 l/m 7,4 km/h (2 Bft) O 80 0 min 0,000 mm 0,0 UV-I 0 W/m 8,9 C 11,4 C 11,3 km/h (2 Bft) 95,74 %
30.09.2017 00:30 12,0 C 13,9 C 82 % 1021,3 hPa 0,0 l/m 6,1 km/h (2 Bft) O-SO 103 0 min 0,000 mm 0,0 UV-I 0 W/m 9,0 C 12,0 C 9,7 km/h (2 Bft) 97,87 %
30.09.2017 00:32 11,9 C 13,9 C 82 % 1021,2 hPa 0,0 l/m 4,7 km/h (1 Bft) O-SO 118 0 min 0,000 mm 0,0 UV-I 0 W/m 8,9 C 11,9 C 8,0 km/h (2 Bft) 97,87 %
30.09.2017 00:34 11,9 C 13,9 C 82 % 1021,2 hPa 0,0 l/m 4,4 km/h (1 Bft) O 79 0 min 0,000 mm 0,0 UV-I 0 W/m 8,9 C 11,9 C 6,4 km/h (2 Bft) 97,87 %
30.09.2017 00:36 11,8 C 13,9 C 82 % 1021,2 hPa 0,0 l/m 5,2 km/h (1 Bft) O-NO 72 0 min 0,000 mm 0,0 UV-I 0 W/m 8,8 C 11,8 C 9,7 km/h (2 Bft) 97,87 %
30.09.2017 00:38 11,8 C 13,9 C 82 % 1021,1 hPa 0,0 l/m 9,1 km/h (2 Bft) O-NO 78 0 min 0,000 mm 0,0 UV-I 0 W/m 8,8 C 10,1 C 12,9 km/h (3 Bft) 96,00 %
30.09.2017 00:40 11,8 C 13,9 C 82 % 1021,1 hPa 0,0 l/m 8,3 km/h (2 Bft) O-NO 67 0 min 0,000 mm 0,0 UV-I 0 W/m 8,8 C 10,6 C 12,9 km/h (3 Bft) 98,00 %
30.09.2017 00:42 11,8 C 13,9 C 82 % 1021,1 hPa 0,0 l/m 6,5 km/h (2 Bft) O 96 0 min 0,000 mm 0,0 UV-I 0 W/m 8,8 C 11,8 C 9,7 km/h (2 Bft) 97,87 %
30.09.2017 00:44 11,8 C 13,9 C 82 % 1021,1 hPa 0,0 l/m 8,2 km/h (2 Bft) O 90 0 min 0,000 mm 0,0 UV-I 0 W/m 8,8 C 10,6 C 12,9 km/h (3 Bft) 97,44 %
30.09.2017 00:46 11,8 C 13,9 C 82 % 1021,1 hPa 0,0 l/m 5,9 km/h (2 Bft) O-NO 68 0 min 0,000 mm 0,0 UV-I 0 W/m 8,8 C 11,8 C 8,0 km/h (2 Bft) 96,00 %
30.09.2017 00:48 11,7 C 13,9 C 83 % 1021,0 hPa 0,0 l/m 6,6 km/h (2 Bft) O 88 0 min 0,000 mm 0,0 UV-I 0 W/m 8,9 C 11,6 C 9,7 km/h (2 Bft) 95,74 %
30.09.2017 00:50 11,7 C 13,9 C 83 % 1021,0 hPa 0,0 l/m 6,6 km/h (2 Bft) O 92 0 min 0,000 mm 0,0 UV-I 0 W/m 8,9 C 11,6 C 11,3 km/h (2 Bft) 97,87 %
30.09.2017 00:52 11,6 C 13,9 C 83 % 1021,0 hPa 0,0 l/m 4,4 km/h (1 Bft) O-NO 72 0 min 0,000 mm 0,0 UV-I 0 W/m 8,8 C 11,6 C 6,4 km/h (2 Bft) 97,87 %
30.09.2017 00:54 11,6 C 13,9 C 83 % 1021,0 hPa 0,0 l/m 5,7 km/h (1 Bft) O 95 0 min 0,000 mm 0,0 UV-I 0 W/m 8,8 C 11,6 C 8,0 km/h (2 Bft) 97,87 %
30.09.2017 00:56 11,6 C 13,9 C 83 % 1021,0 hPa 0,0 l/m 5,1 km/h (1 Bft) O-NO 67 0 min 0,000 mm 0,0 UV-I 0 W/m 8,8 C 11,6 C 9,7 km/h (2 Bft) 95,74 %
30.09.2017 00:58 11,6 C 13,9 C 83 % 1021,0 hPa 0,0 l/m 4,1 km/h (1 Bft) O-NO 71 0 min 0,000 mm 0,0 UV-I 0 W/m 8,8 C 11,6 C 6,4 km/h (2 Bft) 94,00 %
30.09.2017 01:00 11,4 C 13,9 C 83 % 1021,0 hPa 0,0 l/m 3,9 km/h (1 Bft) O-NO 71 0 min 0,025 mm 0,0 UV-I 0 W/m 8,6 C 11,4 C 4,8 km/h (1 Bft) 95,74 %
30.09.2017 01:02 11,2 C 13,9 C 84 % 1021,0 hPa 0,0 l/m 3,7 km/h (1 Bft) O-NO 61 0 min 0,000 mm 0,0 UV-I 0 W/m 8,6 C 11,2 C 4,8 km/h (1 Bft) 93,62 %
30.09.2017 01:04 11,0 C 13,9 C 85 % 1021,0 hPa 0,0 l/m 4,5 km/h (1 Bft) O-NO 61 0 min 0,000 mm 0,0 UV-I 0 W/m 8,6 C 11,0 C 4,8 km/h (1 Bft) 89,36 %
30.09.2017 01:06 10,9 C 13,9 C 85 % 1021,0 hPa 0,0 l/m 4,3 km/h (1 Bft) O-NO 57 0 min 0,000 mm 0,0 UV-I 0 W/m 8,5 C 10,9 C 6,4 km/h (2 Bft) 93,62 %
30.09.2017 01:08 10,8 C 13,9 C 86 % 1020,9 hPa 0,0 l/m 4,9 km/h (1 Bft) O-NO 57 0 min 0,000 mm 0,0 UV-I 0 W/m 8,6 C 10,8 C 6,4 km/h (2 Bft) 93,62 %
30.09.2017 01:10 10,8 C 13,9 C 86 % 1021,0 hPa 0,0 l/m 4,1 km/h (1 Bft) O-NO 57 0 min 0,000 mm 0,0 UV-I 0 W/m 8,6 C 10,8 C 6,4 km/h (2 Bft) 97,87 %
30.09.2017 01:12 10,8 C 13,9 C 86 % 1021,0 hPa 0,0 l/m 3,5 km/h (1 Bft) O-NO 69 0 min 0,000 mm 0,0 UV-I 0 W/m 8,6 C 10,8 C 4,8 km/h (1 Bft) 97,87 %
30.09.2017 01:14 10,7 C 13,9 C 86 % 1021,0 hPa 0,0 l/m 3,2 km/h (1 Bft) O-NO 69 0 min 0,000 mm 0,0 UV-I 0 W/m 8,5 C 10,7 C 4,8 km/h (1 Bft) 95,74 %
30.09.2017 01:16 10,8 C 13,9 C 86 % 1021,0 hPa 0,0 l/m 3,9 km/h (1 Bft) O-NO 69 0 min 0,000 mm 0,0 UV-I 0 W/m 8,6 C 10,8 C 6,4 km/h (2 Bft) 95,74 %
30.09.2017 01:18 10,7 C 13,9 C 86 % 1021,0 hPa 0,0 l/m 2,9 km/h (1 Bft) O-NO 69 0 min 0,000 mm 0,0 UV-I 0 W/m 8,5 C 10,7 C 4,8 km/h (1 Bft) 97,87 %
30.09.2017 01:20 10,7 C 13,9 C 86 % 1021,0 hPa 0,0 l/m 4,4 km/h (1 Bft) O-NO 69 0 min 0,000 mm 0,0 UV-I 0 W/m 8,5 C 10,7 C 6,4 km/h (2 Bft) 95,74 %
30.09.2017 01:22 10,8 C 13,9 C 86 % 1021,0 hPa 0,0 l/m 3,6 km/h (1 Bft) O-NO 69 0 min 0,000 mm 0,0 UV-I 0 W/m 8,6 C 10,8 C 4,8 km/h (1 Bft) 97,87 %
30.09.2017 01:24 10,8 C 13,9 C 86 % 1020,9 hPa 0,0 l/m 3,2 km/h (1 Bft) O-NO 69 0 min 0,000 mm 0,0 UV-I 0 W/m 8,6 C 10,8 C 4,8 km/h (1 Bft) 97,92 %
30.09.2017 01:26 10,8 C 13,9 C 86 % 1020,9 hPa 0,0 l/m 3,5 km/h (1 Bft) O-NO 69 0 min 0,000 mm 0,0 UV-I 0 W/m 8,6 C 10,8 C 4,8 km/h (1 Bft) 97,87 %
30.09.2017 01:29 10,8 C 13,9 C 86 % 1020,9 hPa 0,0 l/m 4,4 km/h (1 Bft) O-NO 65 0 min 0,000 mm 0,0 UV-I 0 W/m 8,6 C 10,8 C 8,0 km/h (2 Bft) 95,71 %
30.09.2017 01:30 10,8 C 13,9 C 86 % 1020,9 hPa 0,0 l/m 5,1 km/h (1 Bft) O-NO 74 0 min 0,000 mm 0,0 UV-I 0 W/m 8,6 C 10,8 C 8,0 km/h (2 Bft) 100,00 %
30.09.2017 01:32 10,8 C 13,9 C 86 % 1020,9 hPa 0,0 l/m 4,4 km/h (1 Bft) O-NO 63 0 min 0,000 mm 0,0 UV-I 0 W/m 8,6 C 10,8 C 6,4 km/h (2 Bft) 98,00 %
30.09.2017 01:34 10,8 C 13,9 C 86 % 1020,9 hPa 0,0 l/m 4,7 km/h (1 Bft) O-NO 62 0 min 0,000 mm 0,0 UV-I 0 W/m 8,6 C 10,8 C 6,4 km/h (2 Bft) 100,00 %
30.09.2017 01:36 10,8 C 13,9 C 86 % 1020,9 hPa 0,0 l/m 5,5 km/h (1 Bft) O-NO 69 0 min 0,000 mm 0,0 UV-I 0 W/m 8,6 C 10,8 C 9,7 km/h (2 Bft) 98,00 %
30.09.2017 01:38 10,8 C 13,9 C 86 % 1020,9 hPa 0,0 l/m 5,5 km/h (1 Bft) NO 56 0 min 0,000 mm 0,0 UV-I 0 W/m 8,6 C 10,8 C 8,0 km/h (2 Bft) 100,00 %
30.09.2017 01:40 10,9 C 13,9 C 86 % 1020,9 hPa 0,0 l/m 4,9 km/h (1 Bft) O-NO 73 0 min 0,000 mm 0,0 UV-I 0 W/m 8,7 C 10,9 C 8,0 km/h (2 Bft) 100,00 %
30.09.2017 01:42 10,8 C 13,9 C 85 % 1020,9 hPa 0,0 l/m 5,7 km/h (1 Bft) O-NO 69 0 min 0,000 mm 0,0 UV-I 0 W/m 8,4 C 10,8 C 8,0 km/h (2 Bft) 97,87 %
30.09.2017 01:44 10,8 C 13,9 C 86 % 1020,9 hPa 0,0 l/m 4,7 km/h (1 Bft) O-NO 67 0 min 0,000 mm 0,0 UV-I 0 W/m 8,6 C 10,8 C 6,4 km/h (2 Bft) 97,87 %
30.09.2017 01:46 10,8 C 13,9 C 85 % 1020,9 hPa 0,0 l/m 3,5 km/h (1 Bft) O 82 0 min 0,000 mm 0,0 UV-I 0 W/m 8,4 C 10,8 C 4,8 km/h (1 Bft) 100,00 %
30.09.2017 01:48 10,7 C 13,9 C 85 % 1020,8 hPa 0,0 l/m 3,5 km/h (1 Bft) NO 46 0 min 0,000 mm 0,0 UV-I 0 W/m 8,3 C 10,7 C 6,4 km/h (2 Bft) 100,00 %
30.09.2017 01:50 10,6 C 13,9 C 86 % 1020,8 hPa 0,0 l/m 5,0 km/h (1 Bft) O-NO 59 0 min 0,000 mm 0,0 UV-I 0 W/m 8,4 C 10,6 C 6,4 km/h (2 Bft) 100,00 %
30.09.2017 01:52 10,5 C 13,9 C 86 % 1020,8 hPa 0,0 l/m 4,6 km/h (1 Bft) O-NO 60 0 min 0,000 mm 0,0 UV-I 0 W/m 8,3 C 10,5 C 6,4 km/h (2 Bft) 100,00 %
30.09.2017 01:54 10,4 C 13,9 C 86 % 1020,8 hPa 0,0 l/m 4,8 km/h (1 Bft) O-NO 70 0 min 0,000 mm 0,0 UV-I 0 W/m 8,2 C 10,4 C 8,0 km/h (2 Bft) 95,74 %
30.09.2017 01:56 10,4 C 13,9 C 87 % 1020,7 hPa 0,0 l/m 5,3 km/h (1 Bft) O-NO 70 0 min 0,000 mm 0,0 UV-I 0 W/m 8,3 C 10,4 C 9,7 km/h (2 Bft) 100,00 %
30.09.2017 01:58 10,4 C 13,9 C 87 % 1020,7 hPa 0,0 l/m 6,3 km/h (2 Bft) O-NO 76 0 min 0,000 mm 0,0 UV-I 0 W/m 8,3 C 10,4 C 9,7 km/h (2 Bft) 100,00 %
30.09.2017 02:00 10,4 C 13,9 C 87 % 1020,7 hPa 0,0 l/m 7,0 km/h (2 Bft) O-NO 69 0 min 0,000 mm 0,0 UV-I 0 W/m 8,3 C 10,0 C 11,3 km/h (2 Bft) 100,00 %
30.09.2017 02:02 10,6 C 13,9 C 87 % 1020,7 hPa 0,0 l/m 7,5 km/h (2 Bft) O-NO 76 0 min 0,000 mm 0,0 UV-I 0 W/m 8,5 C 9,8 C 11,3 km/h (2 Bft) 97,87 %
30.09.2017 02:04 10,6 C 13,9 C 86 % 1020,7 hPa 0,0 l/m 8,1 km/h (2 Bft) O-NO 63 0 min 0,000 mm 0,0 UV-I 0 W/m 8,4 C 9,4 C 12,9 km/h (3 Bft) 100,00 %
30.09.2017 02:06 10,7 C 13,9 C 86 % 1020,6 hPa 0,0 l/m 8,4 km/h (2 Bft) O 82 0 min 0,000 mm 0,0 UV-I 0 W/m 8,5 C 9,3 C 12,9 km/h (3 Bft) 100,00 %
30.09.2017 02:08 10,7 C 13,9 C 86 % 1020,7 hPa 0,0 l/m 6,9 km/h (2 Bft) O 81 0 min 0,000 mm 0,0 UV-I 0 W/m 8,5 C 10,4 C 11,3 km/h (2 Bft) 100,00 %
30.09.2017 02:10 10,7 C 13,9 C 86 % 1020,7 hPa 0,0 l/m 6,6 km/h (2 Bft) O 80 0 min 0,000 mm 0,0 UV-I 0 W/m 8,5 C 10,6 C 12,9 km/h (3 Bft) 97,87 %
30.09.2017 02:12 10,8 C 13,9 C 86 % 1020,7 hPa 0,0 l/m 6,1 km/h (2 Bft) O-NO 71 0 min 0,000 mm 0,0 UV-I 0 W/m 8,6 C 10,8 C 11,3 km/h (2 Bft) 100,00 %
30.09.2017 02:14 10,8 C 13,9 C 86 % 1020,7 hPa 0,0 l/m 4,5 km/h (1 Bft) O 93 0 min 0,000 mm 0,0 UV-I 0 W/m 8,6 C 10,8 C 9,7 km/h (2 Bft) 98,00 %
30.09.2017 02:16 10,7 C 13,9 C 85 % 1020,7 hPa 0,0 l/m 2,1 km/h (1 Bft) O 93 0 min 0,000 mm 0,0 UV-I 0 W/m 8,3 C 10,7 C 3,2 km/h (1 Bft) 100,00 %
30.09.2017 02:18 10,4 C 13,3 C 85 % 1020,7 hPa 0,0 l/m 1,5 km/h (1 Bft) O 93 0 min 0,000 mm 0,0 UV-I 0 W/m 8,0 C 10,4 C 3,2 km/h (1 Bft) 96,00 %
30.09.2017 02:20 10,2 C 13,3 C 86 % 1020,7 hPa 0,0 l/m 2,5 km/h (1 Bft) O 93 0 min 0,000 mm 0,0 UV-I 0 W/m 8,0 C 10,2 C 3,2 km/h (1 Bft) 98,00 %
30.09.2017 02:22 10,1 C 13,3 C 87 % 1020,7 hPa 0,0 l/m 2,8 km/h (1 Bft) O 93 0 min 0,000 mm 0,0 UV-I 0 W/m 8,0 C 10,1 C 4,8 km/h (1 Bft) 97,87 %
30.09.2017 02:24 9,9 C 13,3 C 88 % 1020,6 hPa 0,0 l/m 3,8 km/h (1 Bft) O-NO 63 0 min 0,000 mm 0,0 UV-I 0 W/m 8,0 C 9,9 C 6,4 km/h (2 Bft) 100,00 %
30.09.2017 02:26 10,0 C 13,3 C 88 % 1020,6 hPa 0,0 l/m 3,9 km/h (1 Bft) O-NO 63 0 min 0,000 mm 0,0 UV-I 0 W/m 8,1 C 10,0 C 4,8 km/h (1 Bft) 98,00 %
30.09.2017 02:28 10,1 C 13,3 C 88 % 1020,5 hPa 0,0 l/m 3,8 km/h (1 Bft) O-NO 63 0 min 0,000 mm 0,0 UV-I 0 W/m 8,2 C 10,1 C 6,4 km/h (2 Bft) 100,00 %
30.09.2017 02:30 10,1 C 13,3 C 88 % 1020,5 hPa 0,0 l/m 3,7 km/h (1 Bft) O-NO 63 0 min 0,000 mm 0,0 UV-I 0 W/m 8,2 C 10,1 C 4,8 km/h (1 Bft) 97,87 %
30.09.2017 02:32 10,1 C 13,3 C 88 % 1020,5 hPa 0,0 l/m 3,5 km/h (1 Bft) O-NO 63 0 min 0,000 mm 0,0 UV-I 0 W/m 8,2 C 10,1 C 4,8 km/h (1 Bft) 100,00 %
30.09.2017 02:34 10,0 C 13,3 C 88 % 1020,5 hPa 0,0 l/m 2,8 km/h (1 Bft) O-NO 63 0 min 0,000 mm 0,0 UV-I 0 W/m 8,1 C 10,0 C 4,8 km/h (1 Bft) 100,00 %
30.09.2017 02:36 9,9 C 13,3 C 88 % 1020,5 hPa 0,0 l/m 0,9 km/h (0 Bft) O-NO 63 0 min 0,000 mm 0,0 UV-I 0 W/m 8,0 C 9,9 C 1,6 km/h (1 Bft) 100,00 %
30.09.2017 02:38 9,8 C 13,3 C 88 % 1020,5 hPa 0,0 l/m 2,3 km/h (1 Bft) O-NO 63 0 min 0,000 mm 0,0 UV-I 0 W/m 7,9 C 9,8 C 4,8 km/h (1 Bft) 100,00 %
30.09.2017 02:40 9,8 C 13,3 C 88 % 1020,5 hPa 0,0 l/m 2,5 km/h (1 Bft) O-NO 63 0 min 0,000 mm 0,0 UV-I 0 W/m 7,9 C 9,8 C 4,8 km/h (1 Bft) 100,00 %
30.09.2017 02:42 9,7 C 13,3 C 88 % 1020,6 hPa 0,0 l/m 2,6 km/h (1 Bft) O-NO 63 0 min 0,000 mm 0,0 UV-I 0 W/m 7,8 C 9,7 C 3,2 km/h (1 Bft) 100,00 %
30.09.2017 02:44 9,6 C 13,3 C 89 % 1020,5 hPa 0,0 l/m 2,6 km/h (1 Bft) O-NO 63 0 min 0,000 mm 0,0 UV-I 0 W/m 7,9 C 9,6 C 3,2 km/h (1 Bft) 97,87 %
30.09.2017 02:46 9,6 C 13,3 C 89 % 1020,5 hPa 0,0 l/m 2,8 km/h (1 Bft) O-NO 63 0 min 0,000 mm 0,0 UV-I 0 W/m 7,9 C 9,6 C 3,2 km/h (1 Bft) 97,87 %
30.09.2017 02:48 9,6 C 13,3 C 89 % 1020,6 hPa 0,0 l/m 2,4 km/h (1 Bft) O-NO 63 0 min 0,000 mm 0,0 UV-I 0 W/m 7,9 C 9,6 C 3,2 km/h (1 Bft) 100,00 %
30.09.2017 02:50 9,6 C 13,3 C 89 % 1020,5 hPa 0,0 l/m 2,1 km/h (1 Bft) O-NO 63 0 min 0,000 mm 0,0 UV-I 0 W/m 7,9 C 9,6 C 3,2 km/h (1 Bft) 97,87 %
30.09.2017 02:52 9,6 C 13,3 C 89 % 1020,5 hPa 0,0 l/m 1,7 km/h (1 Bft) O-NO 63 0 min 0,000 mm 0,0 UV-I 0 W/m 7,9 C 9,6 C 3,2 km/h (1 Bft) 100,00 %
30.09.2017 02:54 9,6 C 13,3 C 89 % 1020,5 hPa 0,0 l/m 1,4 km/h (1 Bft) O-NO 63 0 min 0,000 mm 0,0 UV-I 0 W/m 7,9 C 9,6 C 3,2 km/h (1 Bft) 100,00 %
30.09.2017 02:56 9,6 C 13,3 C 89 % 1020,5 hPa 0,0 l/m 0,8 km/h (0 Bft) O-NO 63 0 min 0,000 mm 0,0 UV-I 0 W/m 7,9 C 9,6 C 3,2 km/h (1 Bft) 100,00 %
30.09.2017 02:58 9,5 C 13,3 C 89 % 1020,5 hPa 0,0 l/m 2,5 km/h (1 Bft) O-NO 63 0 min 0,000 mm 0,0 UV-I 0 W/m 7,8 C 9,5 C 3,2 km/h (1 Bft) 100,00 %
30.09.2017 03:00 9,4 C 13,3 C 90 % 1020,5 hPa 0,0 l/m 2,9 km/h (1 Bft) O-NO 63 0 min 0,000 mm 0,0 UV-I 0 W/m 7,8 C 9,4 C 4,8 km/h (1 Bft) 100,00 %
30.09.2017 03:02 9,4 C 13,3 C 90 % 1020,5 hPa 0,0 l/m 3,0 km/h (1 Bft) O-NO 63 0 min 0,000 mm 0,0 UV-I 0 W/m 7,8 C 9,4 C 4,8 km/h (1 Bft) 97,56 %
30.09.2017 03:04 9,3 C 13,3 C 90 % 1020,5 hPa 0,0 l/m 2,7 km/h (1 Bft) O-NO 63 0 min 0,000 mm 0,0 UV-I 0 W/m 7,7 C 9,3 C 3,2 km/h (1 Bft) 95,74 %
30.09.2017 03:06 9,3 C 13,3 C 90 % 1020,5 hPa 0,0 l/m 2,4 km/h (1 Bft) O-NO 63 0 min 0,000 mm 0,0 UV-I 0 W/m 7,7 C 9,3 C 3,2 km/h (1 Bft) 97,87 %
30.09.2017 03:08 9,3 C 13,3 C 90 % 1020,5 hPa 0,0 l/m 1,5 km/h (1 Bft) O-NO 63 0 min 0,000 mm 0,0 UV-I 0 W/m 7,7 C 9,3 C 3,2 km/h (1 Bft) 93,62 %
30.09.2017 03:10 9,3 C 13,3 C 90 % 1020,5 hPa 0,0 l/m 1,4 km/h (1 Bft) O-NO 63 0 min 0,000 mm 0,0 UV-I 0 W/m 7,7 C 9,3 C 3,2 km/h (1 Bft) 98,00 %
30.09.2017 03:12 9,3 C 13,3 C 90 % 1020,5 hPa 0,0 l/m 3,3 km/h (1 Bft) O-NO 63 0 min 0,000 mm 0,0 UV-I 0 W/m 7,7 C 9,3 C 4,8 km/h (1 Bft) 97,87 %
30.09.2017 03:14 9,2 C 13,3 C 90 % 1020,4 hPa 0,0 l/m 4,8 km/h (1 Bft) NO 38 0 min 0,000 mm 0,0 UV-I 0 W/m 7,6 C 9,2 C 6,4 km/h (2 Bft) 98,00 %
30.09.2017 03:16 9,1 C 13,3 C 90 % 1020,4 hPa 0,0 l/m 5,6 km/h (1 Bft) NO 48 0 min 0,000 mm 0,0 UV-I 0 W/m 7,5 C 9,1 C 8,0 km/h (2 Bft) 97,37 %
30.09.2017 03:18 9,1 C 13,3 C 90 % 1020,3 hPa 0,0 l/m 6,1 km/h (2 Bft) NO 49 0 min 0,000 mm 0,0 UV-I 0 W/m 7,5 C 9,1 C 8,0 km/h (2 Bft) 95,83 %
30.09.2017 03:20 9,1 C 13,3 C 90 % 1020,4 hPa 0,0 l/m 5,5 km/h (1 Bft) NO 47 0 min 0,000 mm 0,0 UV-I 0 W/m 7,5 C 9,1 C 6,4 km/h (2 Bft) 95,74 %
30.09.2017 03:22 9,1 C 13,3 C 91 % 1020,4 hPa 0,0 l/m 5,3 km/h (1 Bft) NO 56 0 min 0,000 mm 0,0 UV-I 0 W/m 7,7 C 9,1 C 8,0 km/h (2 Bft) 93,62 %
30.09.2017 03:24 9,2 C 13,3 C 91 % 1020,4 hPa 0,0 l/m 5,0 km/h (1 Bft) NO 39 0 min 0,000 mm 0,0 UV-I 0 W/m 7,8 C 9,2 C 8,0 km/h (2 Bft) 95,74 %
30.09.2017 03:26 9,2 C 13,3 C 91 % 1020,3 hPa 0,0 l/m 4,5 km/h (1 Bft) O-NO 59 0 min 0,000 mm 0,0 UV-I 0 W/m 7,8 C 9,2 C 6,4 km/h (2 Bft) 98,00 %
30.09.2017 03:28 9,2 C 13,3 C 91 % 1020,2 hPa 0,0 l/m 4,9 km/h (1 Bft) O-NO 59 0 min 0,000 mm 0,0 UV-I 0 W/m 7,8 C 9,2 C 6,4 km/h (2 Bft) 95,74 %
30.09.2017 03:30 9,2 C 13,3 C 90 % 1020,2 hPa 0,0 l/m 4,5 km/h (1 Bft) O-NO 67 0 min 0,000 mm 0,0 UV-I 0 W/m 7,6 C 9,2 C 8,0 km/h (2 Bft) 98,00 %
30.09.2017 03:32 9,2 C 13,3 C 91 % 1020,2 hPa 0,0 l/m 5,4 km/h (1 Bft) O-NO 63 0 min 0,000 mm 0,0 UV-I 0 W/m 7,8 C 9,2 C 6,4 km/h (2 Bft) 95,74 %
30.09.2017 03:34 9,2 C 13,3 C 91 % 1020,2 hPa 0,0 l/m 5,5 km/h (1 Bft) O-NO 63 0 min 0,000 mm 0,0 UV-I 0 W/m 7,8 C 9,2 C 6,4 km/h (2 Bft) 95,74 %
30.09.2017 03:36 9,2 C 13,3 C 91 % 1020,2 hPa 0,0 l/m 4,9 km/h (1 Bft) O-NO 63 0 min 0,000 mm 0,0 UV-I 0 W/m 7,8 C 9,2 C 8,0 km/h (2 Bft) 95,74 %
30.09.2017 03:38 9,2 C 13,3 C 90 % 1020,2 hPa 0,0 l/m 4,9 km/h (1 Bft) O-NO 71 0 min 0,000 mm 0,0 UV-I 0 W/m 7,6 C 9,2 C 8,0 km/h (2 Bft) 95,74 %
30.09.2017 03:40 9,2 C 13,3 C 90 % 1020,2 hPa 0,0 l/m 4,1 km/h (1 Bft) O-NO 70 0 min 0,000 mm 0,0 UV-I 0 W/m 7,6 C 9,2 C 4,8 km/h (1 Bft) 97,87 %
30.09.2017 03:42 9,2 C 13,3 C 91 % 1020,2 hPa 0,0 l/m 3,6 km/h (1 Bft) O-NO 70 0 min 0,000 mm 0,0 UV-I 0 W/m 7,8 C 9,2 C 6,4 km/h (2 Bft) 100,00 %
30.09.2017 03:44 9,2 C 13,3 C 91 % 1020,1 hPa 0,0 l/m 3,4 km/h (1 Bft) O-NO 70 0 min 0,000 mm 0,0 UV-I 0 W/m 7,8 C 9,2 C 4,8 km/h (1 Bft) 97,14 %
30.09.2017 03:46 9,2 C 13,3 C 91 % 1020,1 hPa 0,0 l/m 3,9 km/h (1 Bft) O-NO 70 0 min 0,000 mm 0,0 UV-I 0 W/m 7,8 C 9,2 C 6,4 km/h (2 Bft) 98,04 %
30.09.2017 03:48 9,2 C 13,3 C 91 % 1020,1 hPa 0,0 l/m 3,6 km/h (1 Bft) O-NO 70 0 min 0,000 mm 0,0 UV-I 0 W/m 7,8 C 9,2 C 4,8 km/h (1 Bft) 97,87 %
30.09.2017 03:50 9,2 C 13,3 C 91 % 1020,2 hPa 0,0 l/m 3,9 km/h (1 Bft) O-NO 59 0 min 0,000 mm 0,0 UV-I 0 W/m 7,8 C 9,2 C 6,4 km/h (2 Bft) 96,00 %
30.09.2017 03:52 9,1 C 13,3 C 90 % 1020,1 hPa 0,0 l/m 3,4 km/h (1 Bft) O-NO 59 0 min 0,000 mm 0,0 UV-I 0 W/m 7,5 C 9,1 C 4,8 km/h (1 Bft) 97,87 %
30.09.2017 03:54 9,1 C 13,3 C 91 % 1020,1 hPa 0,0 l/m 2,9 km/h (1 Bft) O-NO 59 0 min 0,000 mm 0,0 UV-I 0 W/m 7,7 C 9,1 C 4,8 km/h (1 Bft) 97,87 %
30.09.2017 03:56 9,1 C 13,3 C 91 % 1020,1 hPa 0,0 l/m 2,3 km/h (1 Bft) O-NO 59 0 min 0,000 mm 0,0 UV-I 0 W/m 7,7 C 9,1 C 3,2 km/h (1 Bft) 94,12 %
30.09.2017 03:58 9,2 C 13,3 C 91 % 1020,1 hPa 0,0 l/m 3,5 km/h (1 Bft) O-NO 59 0 min 0,000 mm 0,0 UV-I 0 W/m 7,8 C 9,2 C 4,8 km/h (1 Bft) 100,00 %
30.09.2017 04:00 9,2 C 13,3 C 91 % 1020,0 hPa 0,0 l/m 3,8 km/h (1 Bft) O-NO 59 0 min 0,000 mm 0,0 UV-I 0 W/m 7,8 C 9,2 C 4,8 km/h (1 Bft) 95,74 %
30.09.2017 04:02 9,2 C 13,3 C 91 % 1020,0 hPa 0,0 l/m 3,1 km/h (1 Bft) O-NO 59 0 min 0,000 mm 0,0 UV-I 0 W/m 7,8 C 9,2 C 3,2 km/h (1 Bft) 96,15 %
30.09.2017 04:04 9,1 C 13,3 C 90 % 1020,0 hPa 0,0 l/m 2,9 km/h (1 Bft) O-NO 59 0 min 0,000 mm 0,0 UV-I 0 W/m 7,5 C 9,1 C 4,8 km/h (1 Bft) 95,74 %
30.09.2017 04:06 9,1 C 13,3 C 91 % 1020,0 hPa 0,0 l/m 3,1 km/h (1 Bft) O-NO 59 0 min 0,000 mm 0,0 UV-I 0 W/m 7,7 C 9,1 C 4,8 km/h (1 Bft) 98,00 %
30.09.2017 04:08 9,1 C 13,3 C 91 % 1020,0 hPa 0,0 l/m 2,1 km/h (1 Bft) O-NO 59 0 min 0,000 mm 0,0 UV-I 0 W/m 7,7 C 9,1 C 3,2 km/h (1 Bft) 95,74 %
30.09.2017 04:10 9,1 C 13,3 C 91 % 1020,0 hPa 0,0 l/m 2,1 km/h (1 Bft) O-NO 59 0 min 0,000 mm 0,0 UV-I 0 W/m 7,7 C 9,1 C 3,2 km/h (1 Bft) 97,87 %
30.09.2017 04:12 9,1 C 13,3 C 91 % 1020,0 hPa 0,0 l/m 2,4 km/h (1 Bft) O-NO 59 0 min 0,000 mm 0,0 UV-I 0 W/m 7,7 C 9,1 C 4,8 km/h (1 Bft) 97,87 %
30.09.2017 04:14 9,1 C 13,3 C 91 % 1020,0 hPa 0,0 l/m 2,0 km/h (1 Bft) O-NO 59 0 min 0,000 mm 0,0 UV-I 0 W/m 7,7 C 9,1 C 3,2 km/h (1 Bft) 97,87 %
30.09.2017 04:16 9,1 C 13,3 C 91 % 1020,0 hPa 0,0 l/m 0,7 km/h (0 Bft) O-NO 59 0 min 0,000 mm 0,0 UV-I 0 W/m 7,7 C 9,1 C 3,2 km/h (1 Bft) 95,74 %
30.09.2017 04:18 9,1 C 13,3 C 91 % 1020,0 hPa 0,0 l/m 1,5 km/h (1 Bft) O-NO 59 0 min 0,000 mm 0,0 UV-I 0 W/m 7,7 C 9,1 C 3,2 km/h (1 Bft) 95,74 %
30.09.2017 04:20 9,1 C 13,3 C 91 % 1020,0 hPa 0,0 l/m 2,3 km/h (1 Bft) O-NO 59 0 min 0,000 mm 0,0 UV-I 0 W/m 7,7 C 9,1 C 3,2 km/h (1 Bft) 95,74 %
30.09.2017 04:22 9,0 C 13,3 C 91 % 1019,9 hPa 0,0 l/m 3,2 km/h (1 Bft) O-NO 59 0 min 0,000 mm 0,0 UV-I 0 W/m 7,6 C 9,0 C 4,8 km/h (1 Bft) 98,00 %
30.09.2017 04:24 9,1 C 13,3 C 91 % 1019,9 hPa 0,0 l/m 3,6 km/h (1 Bft) O-NO 59 0 min 0,000 mm 0,0 UV-I 0 W/m 7,7 C 9,1 C 4,8 km/h (1 Bft) 97,87 %
30.09.2017 04:26 9,1 C 13,3 C 91 % 1019,9 hPa 0,0 l/m 4,0 km/h (1 Bft) O-NO 59 0 min 0,000 mm 0,0 UV-I 0 W/m 7,7 C 9,1 C 6,4 km/h (2 Bft) 97,14 %
30.09.2017 04:28 9,0 C 13,3 C 91 % 1019,9 hPa 0,0 l/m 3,8 km/h (1 Bft) O-NO 59 0 min 0,000 mm 0,0 UV-I 0 W/m 7,6 C 9,0 C 6,4 km/h (2 Bft) 94,00 %
30.09.2017 04:30 8,8 C 13,3 C 91 % 1019,9 hPa 0,0 l/m 3,7 km/h (1 Bft) O-NO 59 0 min 0,000 mm 0,0 UV-I 0 W/m 7,4 C 8,8 C 4,8 km/h (1 Bft) 100,00 %
30.09.2017 04:32 8,7 C 13,3 C 91 % 1019,9 hPa 0,0 l/m 3,8 km/h (1 Bft) O-NO 59 0 min 0,000 mm 0,0 UV-I 0 W/m 7,3 C 8,7 C 6,4 km/h (2 Bft) 100,00 %
30.09.2017 04:34 8,6 C 13,3 C 91 % 1019,9 hPa 0,0 l/m 3,5 km/h (1 Bft) O-NO 59 0 min 0,000 mm 0,0 UV-I 0 W/m 7,2 C 8,6 C 4,8 km/h (1 Bft) 100,00 %
30.09.2017 04:36 8,7 C 13,3 C 92 % 1019,9 hPa 0,0 l/m 4,1 km/h (1 Bft) O-NO 59 0 min 0,000 mm 0,0 UV-I 0 W/m 7,5 C 8,7 C 6,4 km/h (2 Bft) 97,87 %
30.09.2017 04:38 8,7 C 13,3 C 92 % 1020,0 hPa 0,0 l/m 4,3 km/h (1 Bft) O-NO 59 0 min 0,000 mm 0,0 UV-I 0 W/m 7,5 C 8,7 C 6,4 km/h (2 Bft) 98,00 %
30.09.2017 04:40 8,8 C 13,3 C 92 % 1019,9 hPa 0,0 l/m 4,9 km/h (1 Bft) O-NO 66 0 min 0,000 mm 0,0 UV-I 0 W/m 7,6 C 8,8 C 6,4 km/h (2 Bft) 100,00 %
30.09.2017 04:42 8,8 C 13,3 C 92 % 1019,9 hPa 0,0 l/m 4,8 km/h (1 Bft) O-NO 66 0 min 0,000 mm 0,0 UV-I 0 W/m 7,6 C 8,8 C 6,4 km/h (2 Bft) 97,92 %
30.09.2017 04:44 8,8 C 13,3 C 92 % 1019,9 hPa 0,0 l/m 4,5 km/h (1 Bft) O-NO 66 0 min 0,000 mm 0,0 UV-I 0 W/m 7,6 C 8,8 C 6,4 km/h (2 Bft) 100,00 %
30.09.2017 04:46 8,8 C 13,3 C 92 % 1020,0 hPa 0,0 l/m 3,9 km/h (1 Bft) O-NO 66 0 min 0,000 mm 0,0 UV-I 0 W/m 7,6 C 8,8 C 6,4 km/h (2 Bft) 100,00 %
30.09.2017 04:48 8,8 C 13,3 C 92 % 1020,0 hPa 0,0 l/m 3,0 km/h (1 Bft) O-NO 66 0 min 0,000 mm 0,0 UV-I 0 W/m 7,6 C 8,8 C 4,8 km/h (1 Bft) 100,00 %
30.09.2017 04:50 8,8 C 13,3 C 92 % 1019,9 hPa 0,0 l/m 3,2 km/h (1 Bft) O-NO 66 0 min 0,000 mm 0,0 UV-I 0 W/m 7,6 C 8,8 C 4,8 km/h (1 Bft) 100,00 %
30.09.2017 04:52 8,9 C 13,3 C 91 % 1019,9 hPa 0,0 l/m 3,2 km/h (1 Bft) O-NO 66 0 min 0,000 mm 0,0 UV-I 0 W/m 7,5 C 8,9 C 4,8 km/h (1 Bft) 100,00 %
30.09.2017 04:54 8,8 C 13,3 C 91 % 1019,9 hPa 0,0 l/m 2,1 km/h (1 Bft) O-NO 66 0 min 0,000 mm 0,0 UV-I 0 W/m 7,4 C 8,8 C 4,8 km/h (1 Bft) 100,00 %
30.09.2017 04:56 8,8 C 13,3 C 91 % 1019,9 hPa 0,0 l/m 0,7 km/h (0 Bft) O-NO 66 0 min 0,000 mm 0,0 UV-I 0 W/m 7,4 C 8,8 C 3,2 km/h (1 Bft) 100,00 %
30.09.2017 04:58 8,8 C 13,3 C 91 % 1019,9 hPa 0,0 l/m 0,4 km/h (0 Bft) O-NO 66 0 min 0,000 mm 0,0 UV-I 0 W/m 7,4 C 8,8 C 3,2 km/h (1 Bft) 97,87 %
30.09.2017 05:00 8,7 C 13,3 C 91 % 1019,9 hPa 0,0 l/m 0,0 km/h (0 Bft) O-NO 66 0 min 0,000 mm 0,0 UV-I 0 W/m 7,3 C 8,7 C 0,0 km/h (0 Bft) 95,74 %
30.09.2017 05:02 8,5 C 13,3 C 91 % 1019,9 hPa 0,0 l/m 0,0 km/h (0 Bft) O-NO 66 0 min 0,000 mm 0,0 UV-I 0 W/m 7,1 C 8,5 C 0,0 km/h (0 Bft) 100,00 %
30.09.2017 05:04 8,3 C 13,3 C 91 % 1019,9 hPa 0,0 l/m 0,0 km/h (0 Bft) O-NO 66 0 min 0,000 mm 0,0 UV-I 0 W/m 6,9 C 8,3 C 1,6 km/h (1 Bft) 97,87 %
30.09.2017 05:06 8,2 C 13,3 C 92 % 1019,9 hPa 0,0 l/m 0,9 km/h (0 Bft) O-NO 66 0 min 0,000 mm 0,0 UV-I 0 W/m 7,0 C 8,2 C 3,2 km/h (1 Bft) 100,00 %
30.09.2017 05:08 8,2 C 13,3 C 92 % 1019,8 hPa 0,0 l/m 0,0 km/h (0 Bft) O-NO 66 0 min 0,000 mm 0,0 UV-I 0 W/m 7,0 C 8,2 C 0,0 km/h (0 Bft) 98,00 %
30.09.2017 05:10 8,2 C 13,3 C 92 % 1019,8 hPa 0,0 l/m 0,0 km/h (0 Bft) O-NO 66 0 min 0,000 mm 0,0 UV-I 0 W/m 7,0 C 8,2 C 0,0 km/h (0 Bft) 95,74 %
30.09.2017 05:12 8,1 C 13,3 C 93 % 1019,8 hPa 0,0 l/m 0,0 km/h (0 Bft) O-NO 66 0 min 0,000 mm 0,0 UV-I 0 W/m 7,0 C 8,1 C 0,0 km/h (0 Bft) 97,87 %
30.09.2017 05:14 8,0 C 13,3 C 92 % 1019,8 hPa 0,0 l/m 0,0 km/h (0 Bft) O-NO 66 0 min 0,000 mm 0,0 UV-I 0 W/m 6,8 C 8,0 C 0,0 km/h (0 Bft) 97,87 %
30.09.2017 05:16 7,9 C 13,3 C 92 % 1019,8 hPa 0,0 l/m 0,0 km/h (0 Bft) O-NO 66 0 min 0,000 mm 0,0 UV-I 0 W/m 6,7 C 7,9 C 0,0 km/h (0 Bft) 97,87 %
30.09.2017 05:18 7,8 C 13,3 C 92 % 1019,9 hPa 0,0 l/m 0,0 km/h (0 Bft) O-NO 66 0 min 0,000 mm 0,0 UV-I 0 W/m 6,6 C 7,8 C 0,0 km/h (0 Bft) 97,22 %
30.09.2017 05:20 7,7 C 13,3 C 93 % 1019,8 hPa 0,0 l/m 0,9 km/h (0 Bft) O-NO 66 0 min 0,000 mm 0,0 UV-I 0 W/m 6,6 C 7,7 C 3,2 km/h (1 Bft) 100,00 %
30.09.2017 05:22 7,7 C 13,3 C 93 % 1019,8 hPa 0,0 l/m 2,2 km/h (1 Bft) O-NO 66 0 min 0,000 mm 0,0 UV-I 0 W/m 6,6 C 7,7 C 3,2 km/h (1 Bft) 97,87 %
30.09.2017 05:24 7,8 C 13,3 C 94 % 1019,7 hPa 0,0 l/m 3,3 km/h (1 Bft) O-NO 66 0 min 0,000 mm 0,0 UV-I 0 W/m 6,9 C 7,8 C 4,8 km/h (1 Bft) 95,74 %
30.09.2017 05:26 7,9 C 13,3 C 93 % 1019,8 hPa 0,0 l/m 3,5 km/h (1 Bft) O-NO 66 0 min 0,000 mm 0,0 UV-I 0 W/m 6,8 C 7,9 C 4,8 km/h (1 Bft) 93,62 %
30.09.2017 05:28 7,9 C 13,3 C 94 % 1019,7 hPa 0,0 l/m 2,5 km/h (1 Bft) O-NO 66 0 min 0,000 mm 0,0 UV-I 0 W/m 7,0 C 7,9 C 3,2 km/h (1 Bft) 96,00 %
30.09.2017 05:30 7,9 C 13,3 C 93 % 1019,7 hPa 0,0 l/m 3,0 km/h (1 Bft) O-NO 66 0 min 0,000 mm 0,0 UV-I 0 W/m 6,8 C 7,9 C 4,8 km/h (1 Bft) 98,00 %
30.09.2017 05:32 7,9 C 13,3 C 93 % 1019,7 hPa 0,0 l/m 3,5 km/h (1 Bft) O-NO 66 0 min 0,000 mm 0,0 UV-I 0 W/m 6,8 C 7,9 C 4,8 km/h (1 Bft) 97,87 %
30.09.2017 05:34 7,9 C 13,3 C 94 % 1019,7 hPa 0,0 l/m 3,8 km/h (1 Bft) O-NO 66 0 min 0,000 mm 0,0 UV-I 0 W/m 7,0 C 7,9 C 4,8 km/h (1 Bft) 97,87 %
30.09.2017 05:36 8,0 C 13,3 C 94 % 1019,7 hPa 0,0 l/m 3,6 km/h (1 Bft) O-NO 66 0 min 0,000 mm 0,0 UV-I 0 W/m 7,1 C 8,0 C 4,8 km/h (1 Bft) 95,74 %
30.09.2017 05:38 8,1 C 13,3 C 94 % 1019,6 hPa 0,0 l/m 4,8 km/h (1 Bft) NO 49 0 min 0,000 mm 0,0 UV-I 0 W/m 7,2 C 8,1 C 6,4 km/h (2 Bft) 97,87 %
30.09.2017 05:40 8,2 C 13,3 C 94 % 1019,6 hPa 0,0 l/m 4,7 km/h (1 Bft) O-NO 58 0 min 0,000 mm 0,0 UV-I 0 W/m 7,3 C 8,2 C 6,4 km/h (2 Bft) 97,87 %
30.09.2017 05:42 8,2 C 13,3 C 94 % 1019,6 hPa 0,0 l/m 4,0 km/h (1 Bft) O-NO 61 0 min 0,000 mm 0,0 UV-I 0 W/m 7,3 C 8,2 C 6,4 km/h (2 Bft) 96,00 %
30.09.2017 05:44 8,2 C 13,3 C 94 % 1019,6 hPa 0,0 l/m 4,1 km/h (1 Bft) O-NO 63 0 min 0,000 mm 0,0 UV-I 0 W/m 7,3 C 8,2 C 6,4 km/h (2 Bft) 97,37 %
30.09.2017 05:46 8,2 C 13,3 C 94 % 1019,6 hPa 0,0 l/m 5,2 km/h (1 Bft) O-NO 70 0 min 0,000 mm 0,0 UV-I 0 W/m 7,3 C 8,2 C 6,4 km/h (2 Bft) 100,00 %
30.09.2017 05:48 8,2 C 13,3 C 93 % 1019,6 hPa 0,0 l/m 5,1 km/h (1 Bft) O-NO 69 0 min 0,000 mm 0,0 UV-I 0 W/m 7,1 C 8,2 C 6,4 km/h (2 Bft) 98,11 %
30.09.2017 05:50 8,2 C 13,3 C 94 % 1019,6 hPa 0,0 l/m 5,0 km/h (1 Bft) O-NO 57 0 min 0,000 mm 0,0 UV-I 0 W/m 7,3 C 8,2 C 6,4 km/h (2 Bft) 97,87 %
30.09.2017 05:52 8,2 C 13,3 C 94 % 1019,6 hPa 0,0 l/m 5,2 km/h (1 Bft) NO 52 0 min 0,000 mm 0,0 UV-I 0 W/m 7,3 C 8,2 C 6,4 km/h (2 Bft) 100,00 %
30.09.2017 05:54 8,2 C 13,3 C 94 % 1019,6 hPa 0,0 l/m 5,1 km/h (1 Bft) NO 53 0 min 0,000 mm 0,0 UV-I 0 W/m 7,3 C 8,2 C 6,4 km/h (2 Bft) 100,00 %
30.09.2017 05:56 8,2 C 13,3 C 94 % 1019,6 hPa 0,0 l/m 5,7 km/h (1 Bft) NO 49 0 min 0,000 mm 0,0 UV-I 0 W/m 7,3 C 8,2 C 8,0 km/h (2 Bft) 100,00 %
30.09.2017 05:58 8,2 C 13,3 C 93 % 1019,6 hPa 0,0 l/m 5,2 km/h (1 Bft) O-NO 71 0 min 0,000 mm 0,0 UV-I 0 W/m 7,1 C 8,2 C 6,4 km/h (2 Bft) 100,00 %
30.09.2017 06:00 8,2 C 13,3 C 93 % 1019,6 hPa 0,0 l/m 6,3 km/h (2 Bft) O-NO 76 0 min 0,000 mm 0,0 UV-I 0 W/m 7,1 C 8,2 C 9,7 km/h (2 Bft) 100,00 %
30.09.2017 06:02 8,2 C 13,3 C 93 % 1019,6 hPa 0,0 l/m 5,5 km/h (1 Bft) O-NO 76 0 min 0,000 mm 0,0 UV-I 0 W/m 7,1 C 8,2 C 8,0 km/h (2 Bft) 100,00 %
30.09.2017 06:04 8,2 C 13,3 C 93 % 1019,5 hPa 0,0 l/m 5,7 km/h (1 Bft) O-NO 58 0 min 0,000 mm 0,0 UV-I 0 W/m 7,1 C 8,2 C 8,0 km/h (2 Bft) 95,74 %
30.09.2017 06:06 8,2 C 13,3 C 93 % 1019,5 hPa 0,0 l/m 6,2 km/h (2 Bft) O-NO 66 0 min 0,000 mm 0,0 UV-I 0 W/m 7,1 C 8,2 C 11,3 km/h (2 Bft) 100,00 %
30.09.2017 06:08 8,3 C 13,3 C 93 % 1019,5 hPa 0,0 l/m 4,1 km/h (1 Bft) O-NO 69 0 min 0,000 mm 0,0 UV-I 0 W/m 7,2 C 8,3 C 6,4 km/h (2 Bft) 97,87 %
30.09.2017 06:10 8,2 C 13,3 C 93 % 1019,5 hPa 0,0 l/m 4,1 km/h (1 Bft) O-NO 60 0 min 0,000 mm 0,0 UV-I 0 W/m 7,1 C 8,2 C 6,4 km/h (2 Bft) 100,00 %
30.09.2017 06:12 8,2 C 13,3 C 93 % 1019,6 hPa 0,0 l/m 1,9 km/h (1 Bft) O-NO 60 0 min 0,000 mm 0,0 UV-I 0 W/m 7,1 C 8,2 C 4,8 km/h (1 Bft) 97,87 %
30.09.2017 06:14 8,1 C 13,3 C 93 % 1019,5 hPa 0,0 l/m 0,7 km/h (0 Bft) O-NO 60 0 min 0,000 mm 0,0 UV-I 0 W/m 7,0 C 8,1 C 3,2 km/h (1 Bft) 100,00 %
30.09.2017 06:16 7,9 C 13,3 C 93 % 1019,5 hPa 0,0 l/m 0,8 km/h (0 Bft) O-NO 60 0 min 0,000 mm 0,0 UV-I 0 W/m 6,8 C 7,9 C 3,2 km/h (1 Bft) 95,74 %
30.09.2017 06:18 7,8 C 13,3 C 93 % 1019,6 hPa 0,0 l/m 1,2 km/h (1 Bft) O-NO 60 0 min 0,000 mm 0,0 UV-I 0 W/m 6,7 C 7,8 C 3,2 km/h (1 Bft) 100,00 %
30.09.2017 06:20 7,7 C 13,3 C 93 % 1019,6 hPa 0,0 l/m 0,4 km/h (0 Bft) O-NO 60 0 min 0,000 mm 0,0 UV-I 0 W/m 6,6 C 7,7 C 1,6 km/h (1 Bft) 100,00 %
30.09.2017 06:22 7,7 C 13,3 C 93 % 1019,6 hPa 0,0 l/m 1,0 km/h (0 Bft) O-NO 60 0 min 0,000 mm 0,0 UV-I 0 W/m 6,6 C 7,7 C 3,2 km/h (1 Bft) 100,00 %
30.09.2017 06:24 7,6 C 13,3 C 94 % 1019,5 hPa 0,0 l/m 3,4 km/h (1 Bft) O 87 0 min 0,000 mm 0,0 UV-I 0 W/m 6,7 C 7,6 C 6,4 km/h (2 Bft) 97,87 %
30.09.2017 06:26 7,7 C 13,3 C 94 % 1019,5 hPa 0,0 l/m 2,3 km/h (1 Bft) O 87 0 min 0,000 mm 0,0 UV-I 0 W/m 6,8 C 7,7 C 4,8 km/h (1 Bft) 100,00 %
30.09.2017 06:28 7,7 C 13,3 C 94 % 1019,6 hPa 0,0 l/m 1,3 km/h (1 Bft) O 87 0 min 0,000 mm 0,0 UV-I 0 W/m 6,8 C 7,7 C 3,2 km/h (1 Bft) 97,87 %
30.09.2017 06:30 7,7 C 13,3 C 94 % 1019,6 hPa 0,0 l/m 0,7 km/h (0 Bft) O 87 0 min 0,000 mm 0,0 UV-I 0 W/m 6,8 C 7,7 C 3,2 km/h (1 Bft) 100,00 %
30.09.2017 06:32 7,7 C 13,3 C 94 % 1019,5 hPa 0,0 l/m 2,8 km/h (1 Bft) O 87 0 min 0,000 mm 0,0 UV-I 0 W/m 6,8 C 7,7 C 4,8 km/h (1 Bft) 97,87 %
30.09.2017 06:34 7,8 C 13,3 C 94 % 1019,5 hPa 0,0 l/m 1,9 km/h (1 Bft) O 87 0 min 0,000 mm 0,0 UV-I 0 W/m 6,9 C 7,8 C 4,8 km/h (1 Bft) 100,00 %
30.09.2017 06:36 7,8 C 13,3 C 94 % 1019,6 hPa 0,0 l/m 3,3 km/h (1 Bft) O 87 0 min 0,000 mm 0,0 UV-I 0 W/m 6,9 C 7,8 C 6,4 km/h (2 Bft) 100,00 %
30.09.2017 06:38 7,8 C 13,3 C 94 % 1019,5 hPa 0,0 l/m 1,4 km/h (1 Bft) O 87 0 min 0,000 mm 0,0 UV-I 0 W/m 6,9 C 7,8 C 3,2 km/h (1 Bft) 100,00 %
30.09.2017 06:40 7,7 C 13,3 C 94 % 1019,5 hPa 0,0 l/m 1,8 km/h (1 Bft) O 87 0 min 0,000 mm 0,0 UV-I 0 W/m 6,8 C 7,7 C 3,2 km/h (1 Bft) 100,00 %
30.09.2017 06:42 7,7 C 13,3 C 94 % 1019,5 hPa 0,0 l/m 2,6 km/h (1 Bft) O 87 0 min 0,000 mm 0,0 UV-I 0 W/m 6,8 C 7,7 C 4,8 km/h (1 Bft) 98,00 %
30.09.2017 06:44 7,7 C 13,3 C 94 % 1019,5 hPa 0,0 l/m 3,4 km/h (1 Bft) O 88 0 min 0,000 mm 0,0 UV-I 0 W/m 6,8 C 7,7 C 6,4 km/h (2 Bft) 95,74 %
30.09.2017 06:46 7,7 C 13,3 C 94 % 1019,5 hPa 0,0 l/m 3,3 km/h (1 Bft) O 82 0 min 0,000 mm 0,0 UV-I 0 W/m 6,8 C 7,7 C 4,8 km/h (1 Bft) 100,00 %
30.09.2017 06:48 7,7 C 13,3 C 94 % 1019,5 hPa 0,0 l/m 3,0 km/h (1 Bft) O 82 0 min 0,000 mm 0,0 UV-I 3 W/m 6,8 C 7,7 C 4,8 km/h (1 Bft) 97,87 %
30.09.2017 06:50 7,7 C 13,3 C 94 % 1019,5 hPa 0,0 l/m 2,3 km/h (1 Bft) O 82 0 min 0,000 mm 0,0 UV-I 5 W/m 6,8 C 7,7 C 3,2 km/h (1 Bft) 95,74 %
30.09.2017 06:52 7,7 C 13,3 C 94 % 1019,5 hPa 0,0 l/m 2,0 km/h (1 Bft) O 82 0 min 0,000 mm 0,0 UV-I 5 W/m 6,8 C 7,7 C 4,8 km/h (1 Bft) 95,74 %
30.09.2017 06:54 7,7 C 13,3 C 94 % 1019,5 hPa 0,0 l/m 4,1 km/h (1 Bft) O-NO 57 0 min 0,000 mm 0,0 UV-I 5 W/m 6,8 C 7,7 C 8,0 km/h (2 Bft) 95,74 %
30.09.2017 06:56 7,8 C 13,3 C 94 % 1019,5 hPa 0,0 l/m 3,6 km/h (1 Bft) O-NO 78 0 min 0,000 mm 0,0 UV-I 6 W/m 6,9 C 7,8 C 4,8 km/h (1 Bft) 98,00 %
30.09.2017 06:58 7,8 C 13,3 C 94 % 1019,6 hPa 0,0 l/m 2,3 km/h (1 Bft) O-NO 78 0 min 0,000 mm 0,0 UV-I 7 W/m 6,9 C 7,8 C 3,2 km/h (1 Bft) 97,87 %
30.09.2017 07:00 7,8 C 13,3 C 95 % 1019,5 hPa 0,0 l/m 3,1 km/h (1 Bft) O-NO 78 0 min 0,000 mm 0,0 UV-I 7 W/m 7,0 C 7,8 C 6,4 km/h (2 Bft) 97,87 %
30.09.2017 07:02 7,8 C 13,3 C 94 % 1019,6 hPa 0,0 l/m 3,6 km/h (1 Bft) O-NO 78 0 min 0,000 mm 0,0 UV-I 9 W/m 6,9 C 7,8 C 4,8 km/h (1 Bft) 95,74 %
30.09.2017 07:04 7,7 C 13,3 C 94 % 1019,5 hPa 0,0 l/m 2,2 km/h (1 Bft) O-NO 78 0 min 0,000 mm 0,0 UV-I 9 W/m 6,8 C 7,7 C 3,2 km/h (1 Bft) 98,00 %
30.09.2017 07:06 7,7 C 13,3 C 94 % 1019,5 hPa 0,0 l/m 1,8 km/h (1 Bft) O-NO 78 0 min 0,000 mm 0,0 UV-I 11 W/m 6,8 C 7,7 C 4,8 km/h (1 Bft) 94,29 %
30.09.2017 07:08 7,6 C 13,3 C 94 % 1019,5 hPa 0,0 l/m 1,4 km/h (1 Bft) O-NO 78 0 min 0,000 mm 0,0 UV-I 11 W/m 6,7 C 7,6 C 3,2 km/h (1 Bft) 97,87 %
30.09.2017 07:10 7,6 C 13,3 C 94 % 1019,5 hPa 0,0 l/m 0,2 km/h (0 Bft) O-NO 78 0 min 0,000 mm 0,0 UV-I 12 W/m 6,7 C 7,6 C 3,2 km/h (1 Bft) 95,83 %
30.09.2017 07:12 7,6 C 13,3 C 94 % 1019,6 hPa 0,0 l/m 1,8 km/h (1 Bft) O-NO 78 2 min 0,000 mm 0,0 UV-I 14 W/m 6,7 C 7,6 C 3,2 km/h (1 Bft) 100,00 %
30.09.2017 07:14 7,5 C 13,3 C 94 % 1019,5 hPa 0,0 l/m 1,0 km/h (0 Bft) O-NO 78 2 min 0,000 mm 0,0 UV-I 17 W/m 6,6 C 7,5 C 1,6 km/h (1 Bft) 96,00 %
30.09.2017 07:16 7,4 C 13,3 C 94 % 1019,5 hPa 0,0 l/m 0,5 km/h (0 Bft) O-NO 78 2 min 0,000 mm 0,0 UV-I 19 W/m 6,5 C 7,4 C 1,6 km/h (1 Bft) 95,83 %
30.09.2017 07:18 7,4 C 13,3 C 94 % 1019,6 hPa 0,0 l/m 0,9 km/h (0 Bft) O-NO 78 2 min 0,000 mm 0,0 UV-I 22 W/m 6,5 C 7,4 C 1,6 km/h (1 Bft) 95,74 %
30.09.2017 07:20 7,4 C 13,3 C 94 % 1019,5 hPa 0,0 l/m 1,2 km/h (1 Bft) O-NO 78 2 min 0,000 mm 0,0 UV-I 25 W/m 6,5 C 7,4 C 1,6 km/h (1 Bft) 93,62 %
30.09.2017 07:22 7,4 C 13,3 C 94 % 1019,6 hPa 0,0 l/m 1,3 km/h (1 Bft) O-NO 78 2 min 0,000 mm 0,0 UV-I 27 W/m 6,5 C 7,4 C 1,6 km/h (1 Bft) 91,84 %
30.09.2017 07:24 7,3 C 13,3 C 94 % 1019,6 hPa 0,0 l/m 0,1 km/h (0 Bft) O-NO 78 2 min 0,000 mm 0,0 UV-I 31 W/m 6,4 C 7,3 C 1,6 km/h (1 Bft) 93,62 %
30.09.2017 07:26 7,3 C 13,3 C 95 % 1019,5 hPa 0,0 l/m 0,0 km/h (0 Bft) O-NO 78 2 min 0,000 mm 0,0 UV-I 35 W/m 6,6 C 7,3 C 0,0 km/h (0 Bft) 93,62 %
30.09.2017 07:28 7,3 C 13,3 C 95 % 1019,6 hPa 0,0 l/m 0,0 km/h (0 Bft) O-NO 78 2 min 0,000 mm 0,0 UV-I 39 W/m 6,6 C 7,3 C 0,0 km/h (0 Bft) 93,62 %
30.09.2017 07:30 7,3 C 13,3 C 95 % 1019,6 hPa 0,0 l/m 0,0 km/h (0 Bft) O-NO 78 2 min 0,000 mm 0,0 UV-I 43 W/m 6,6 C 7,3 C 0,0 km/h (0 Bft) 93,62 %
30.09.2017 07:32 7,3 C 13,3 C 95 % 1019,6 hPa 0,0 l/m 0,0 km/h (0 Bft) O-NO 78 2 min 0,000 mm 0,0 UV-I 47 W/m 6,6 C 7,3 C 0,0 km/h (0 Bft) 94,59 %
30.09.2017 07:34 7,3 C 13,3 C 95 % 1019,6 hPa 0,0 l/m 0,0 km/h (0 Bft) O-NO 78 2 min 0,000 mm 0,0 UV-I 52 W/m 6,6 C 7,3 C 0,0 km/h (0 Bft) 93,62 %
30.09.2017 07:36 7,3 C 13,3 C 95 % 1019,6 hPa 0,0 l/m 0,0 km/h (0 Bft) O-NO 78 2 min 0,000 mm 0,0 UV-I 55 W/m 6,6 C 7,3 C 0,0 km/h (0 Bft) 95,74 %
30.09.2017 07:38 7,3 C 13,3 C 95 % 1019,7 hPa 0,0 l/m 0,0 km/h (0 Bft) O-NO 78 2 min 0,000 mm 0,0 UV-I 60 W/m 6,6 C 7,3 C 0,0 km/h (0 Bft) 98,00 %
30.09.2017 07:40 7,3 C 13,3 C 95 % 1019,7 hPa 0,0 l/m 0,0 km/h (0 Bft) O-NO 78 2 min 0,000 mm 0,0 UV-I 63 W/m 6,6 C 7,3 C 0,0 km/h (0 Bft) 93,62 %
30.09.2017 07:42 7,3 C 13,3 C 95 % 1019,7 hPa 0,0 l/m 0,0 km/h (0 Bft) O-NO 78 2 min 0,000 mm 0,0 UV-I 68 W/m 6,6 C 7,3 C 0,0 km/h (0 Bft) 96,00 %
30.09.2017 07:44 7,2 C 13,3 C 95 % 1019,7 hPa 0,0 l/m 0,0 km/h (0 Bft) O-NO 78 2 min 0,000 mm 0,0 UV-I 71 W/m 6,5 C 7,2 C 0,0 km/h (0 Bft) 95,74 %
30.09.2017 07:46 7,2 C 13,3 C 95 % 1019,7 hPa 0,0 l/m 0,0 km/h (0 Bft) O-NO 78 2 min 0,000 mm 0,0 UV-I 74 W/m 6,5 C 7,2 C 0,0 km/h (0 Bft) 97,87 %
30.09.2017 07:48 7,2 C 13,3 C 95 % 1019,7 hPa 0,0 l/m 0,0 km/h (0 Bft) O-NO 78 2 min 0,000 mm 0,0 UV-I 77 W/m 6,5 C 7,2 C 0,0 km/h (0 Bft) 97,87 %
30.09.2017 07:50 7,2 C 13,3 C 95 % 1019,6 hPa 0,0 l/m 0,0 km/h (0 Bft) O-NO 78 2 min 0,000 mm 0,0 UV-I 81 W/m 6,5 C 7,2 C 0,0 km/h (0 Bft) 97,87 %
30.09.2017 07:52 7,3 C 13,3 C 95 % 1019,7 hPa 0,0 l/m 0,0 km/h (0 Bft) O-NO 78 2 min 0,000 mm 0,0 UV-I 85 W/m 6,6 C 7,3 C 0,0 km/h (0 Bft) 97,87 %
30.09.2017 07:54 7,3 C 13,3 C 95 % 1019,6 hPa 0,0 l/m 0,0 km/h (0 Bft) O-NO 78 2 min 0,000 mm 0,0 UV-I 89 W/m 6,6 C 7,3 C 0,0 km/h (0 Bft) 97,87 %
30.09.2017 07:56 7,3 C 13,3 C 95 % 1019,7 hPa 0,0 l/m 0,0 km/h (0 Bft) O-NO 78 2 min 0,000 mm 0,0 UV-I 93 W/m 6,6 C 7,3 C 0,0 km/h (0 Bft) 100,00 %
30.09.2017 07:58 7,3 C 13,3 C 95 % 1019,7 hPa 0,0 l/m 0,0 km/h (0 Bft) O-NO 78 2 min 0,000 mm 0,0 UV-I 97 W/m 6,6 C 7,3 C 0,0 km/h (0 Bft) 100,00 %
30.09.2017 08:00 7,4 C 13,3 C 95 % 1019,7 hPa 0,0 l/m 0,0 km/h (0 Bft) O-NO 78 2 min 0,026 mm 0,0 UV-I 102 W/m 6,7 C 7,4 C 0,0 km/h (0 Bft) 100,00 %
30.09.2017 08:02 7,4 C 13,3 C 95 % 1019,7 hPa 0,0 l/m 1,1 km/h (1 Bft) O-NO 78 2 min 0,000 mm 0,0 UV-I 105 W/m 6,7 C 7,4 C 3,2 km/h (1 Bft) 97,87 %
30.09.2017 08:04 7,6 C 13,3 C 95 % 1019,7 hPa 0,0 l/m 1,3 km/h (1 Bft) O-NO 78 2 min 0,000 mm 0,0 UV-I 112 W/m 6,9 C 7,6 C 3,2 km/h (1 Bft) 97,87 %
30.09.2017 08:06 7,7 C 13,3 C 95 % 1019,7 hPa 0,0 l/m 2,8 km/h (1 Bft) O-NO 78 2 min 0,000 mm 0,0 UV-I 116 W/m 7,0 C 7,7 C 4,8 km/h (1 Bft) 100,00 %
30.09.2017 08:08 7,9 C 13,3 C 95 % 1019,7 hPa 0,0 l/m 2,4 km/h (1 Bft) O-NO 78 2 min 0,000 mm 0,0 UV-I 121 W/m 7,1 C 7,9 C 4,8 km/h (1 Bft) 97,87 %
30.09.2017 08:10 8,1 C 13,3 C 95 % 1019,7 hPa 0,0 l/m 1,4 km/h (1 Bft) O-NO 78 2 min 0,000 mm 0,0 UV-I 126 W/m 7,3 C 8,1 C 3,2 km/h (1 Bft) 97,92 %
30.09.2017 08:12 8,2 C 13,3 C 95 % 1019,8 hPa 0,0 l/m 1,5 km/h (1 Bft) O-NO 78 2 min 0,000 mm 0,0 UV-I 132 W/m 7,4 C 8,2 C 3,2 km/h (1 Bft) 100,00 %
30.09.2017 08:14 8,3 C 13,3 C 95 % 1019,8 hPa 0,0 l/m 3,5 km/h (1 Bft) NO 48 2 min 0,000 mm 0,0 UV-I 137 W/m 7,5 C 8,3 C 6,4 km/h (2 Bft) 100,00 %
30.09.2017 08:16 8,4 C 13,3 C 95 % 1019,7 hPa 0,0 l/m 3,4 km/h (1 Bft) NO 48 2 min 0,000 mm 0,0 UV-I 142 W/m 7,6 C 8,4 C 6,4 km/h (2 Bft) 100,00 %
30.09.2017 08:18 8,6 C 13,3 C 95 % 1019,7 hPa 0,0 l/m 4,4 km/h (1 Bft) NO 56 2 min 0,000 mm 0,0 UV-I 148 W/m 7,8 C 8,6 C 6,4 km/h (2 Bft) 100,00 %
30.09.2017 08:20 8,6 C 13,3 C 95 % 1019,8 hPa 0,0 l/m 3,8 km/h (1 Bft) NO 56 2 min 0,000 mm 0,0 UV-I 153 W/m 7,8 C 8,6 C 4,8 km/h (1 Bft) 97,92 %
30.09.2017 08:22 8,7 C 13,3 C 94 % 1019,7 hPa 0,0 l/m 5,5 km/h (1 Bft) O-NO 62 2 min 0,000 mm 0,0 UV-I 157 W/m 7,8 C 8,7 C 9,7 km/h (2 Bft) 100,00 %
30.09.2017 08:24 8,7 C 13,3 C 94 % 1019,7 hPa 0,0 l/m 6,9 km/h (2 Bft) NO 53 2 min 0,000 mm 0,0 UV-I 163 W/m 7,8 C 8,3 C 9,7 km/h (2 Bft) 100,00 %
30.09.2017 08:26 8,8 C 13,3 C 94 % 1019,7 hPa 0,0 l/m 6,4 km/h (2 Bft) NO 52 2 min 0,000 mm 0,0 UV-I 169 W/m 7,9 C 8,8 C 9,7 km/h (2 Bft) 97,87 %
30.09.2017 08:28 8,8 C 13,3 C 94 % 1019,7 hPa 0,0 l/m 6,7 km/h (2 Bft) O-NO 67 2 min 0,000 mm 0,0 UV-I 175 W/m 7,9 C 8,6 C 9,7 km/h (2 Bft) 100,00 %
30.09.2017 08:30 8,9 C 13,3 C 94 % 1019,7 hPa 0,0 l/m 5,8 km/h (2 Bft) O-NO 68 2 min 0,000 mm 0,0 UV-I 180 W/m 8,0 C 8,9 C 11,3 km/h (2 Bft) 100,00 %
30.09.2017 08:32 8,9 C 13,3 C 93 % 1019,7 hPa 0,0 l/m 5,9 km/h (2 Bft) O-NO 64 2 min 0,000 mm 0,0 UV-I 185 W/m 7,8 C 8,9 C 11,3 km/h (2 Bft) 100,00 %
30.09.2017 08:34 9,1 C 13,3 C 93 % 1019,6 hPa 0,0 l/m 5,8 km/h (2 Bft) O-NO 66 2 min 0,000 mm 0,0 UV-I 192 W/m 8,0 C 9,1 C 8,0 km/h (2 Bft) 97,87 %
30.09.2017 08:36 9,2 C 13,3 C 93 % 1019,6 hPa 0,0 l/m 6,1 km/h (2 Bft) O-NO 74 2 min 0,000 mm 0,0 UV-I 197 W/m 8,1 C 9,2 C 9,7 km/h (2 Bft) 100,00 %
30.09.2017 08:38 9,2 C 13,3 C 93 % 1019,6 hPa 0,0 l/m 5,6 km/h (1 Bft) O-NO 69 2 min 0,000 mm 0,0 UV-I 202 W/m 8,1 C 9,2 C 9,7 km/h (2 Bft) 100,00 %
30.09.2017 08:40 9,3 C 13,3 C 93 % 1019,6 hPa 0,0 l/m 6,2 km/h (2 Bft) O-NO 69 2 min 0,000 mm 0,0 UV-I 209 W/m 8,2 C 9,3 C 8,0 km/h (2 Bft) 100,00 %
30.09.2017 08:42 9,3 C 13,3 C 93 % 1019,7 hPa 0,0 l/m 4,4 km/h (1 Bft) O-NO 77 2 min 0,000 mm 0,0 UV-I 214 W/m 8,2 C 9,3 C 6,4 km/h (2 Bft) 100,00 %
30.09.2017 08:44 9,4 C 13,3 C 92 % 1019,6 hPa 0,0 l/m 6,7 km/h (2 Bft) O 84 2 min 0,000 mm 0,0 UV-I 220 W/m 8,2 C 9,2 C 11,3 km/h (2 Bft) 100,00 %
30.09.2017 08:46 9,5 C 13,3 C 92 % 1019,6 hPa 0,0 l/m 6,6 km/h (2 Bft) O 89 2 min 0,000 mm 0,0 UV-I 225 W/m 8,3 C 9,4 C 8,0 km/h (2 Bft) 100,00 %
30.09.2017 08:48 9,6 C 13,3 C 92 % 1019,6 hPa 0,0 l/m 5,4 km/h (1 Bft) O-NO 59 2 min 0,000 mm 0,0 UV-I 231 W/m 8,4 C 9,6 C 8,0 km/h (2 Bft) 97,87 %
30.09.2017 08:50 9,7 C 13,3 C 91 % 1019,6 hPa 0,0 l/m 6,8 km/h (2 Bft) O-NO 61 2 min 0,000 mm 0,2 UV-I 231 W/m 8,3 C 9,4 C 11,3 km/h (2 Bft) 97,87 %
30.09.2017 08:52 9,7 C 13,3 C 91 % 1019,6 hPa 0,0 l/m 7,2 km/h (2 Bft) NO 51 2 min 0,000 mm 0,5 UV-I 238 W/m 8,3 C 9,1 C 9,7 km/h (2 Bft) 100,00 %
30.09.2017 08:54 9,7 C 13,3 C 91 % 1019,6 hPa 0,0 l/m 8,1 km/h (2 Bft) NO 52 2 min 0,000 mm 0,5 UV-I 245 W/m 8,3 C 8,5 C 16,1 km/h (3 Bft) 100,00 %
30.09.2017 08:56 9,7 C 13,3 C 91 % 1019,6 hPa 0,0 l/m 8,5 km/h (2 Bft) O-NO 59 2 min 0,000 mm 0,5 UV-I 249 W/m 8,3 C 8,2 C 12,9 km/h (3 Bft) 97,87 %
30.09.2017 08:58 9,8 C 13,3 C 90 % 1019,6 hPa 0,0 l/m 7,5 km/h (2 Bft) O 88 2 min 0,000 mm 0,5 UV-I 253 W/m 8,2 C 9,0 C 9,7 km/h (2 Bft) 98,00 %
30.09.2017 09:00 9,8 C 13,3 C 90 % 1019,6 hPa 0,0 l/m 6,8 km/h (2 Bft) O-NO 67 2 min 0,076 mm 0,5 UV-I 254 W/m 8,2 C 9,5 C 9,7 km/h (2 Bft) 100,00 %
30.09.2017 09:02 9,8 C 13,3 C 90 % 1019,6 hPa 0,0 l/m 7,4 km/h (2 Bft) O-NO 58 2 min 0,000 mm 0,5 UV-I 259 W/m 8,2 C 9,1 C 11,3 km/h (2 Bft) 98,00 %
30.09.2017 09:04 9,9 C 13,3 C 90 % 1019,6 hPa 0,0 l/m 8,1 km/h (2 Bft) O 81 2 min 0,000 mm 0,6 UV-I 267 W/m 8,3 C 8,7 C 12,9 km/h (3 Bft) 97,14 %
30.09.2017 09:06 9,9 C 13,3 C 90 % 1019,6 hPa 0,0 l/m 8,0 km/h (2 Bft) O-NO 67 2 min 0,000 mm 0,6 UV-I 273 W/m 8,3 C 8,7 C 12,9 km/h (3 Bft) 100,00 %
30.09.2017 09:08 9,9 C 13,3 C 89 % 1019,5 hPa 0,0 l/m 11,4 km/h (2 Bft) O 79 2 min 0,000 mm 0,6 UV-I 278 W/m 8,2 C 6,7 C 14,5 km/h (3 Bft) 97,87 %
30.09.2017 09:10 10,0 C 13,3 C 89 % 1019,5 hPa 0,0 l/m 10,0 km/h (2 Bft) O-NO 69 2 min 0,000 mm 0,6 UV-I 287 W/m 8,3 C 7,6 C 16,1 km/h (3 Bft) 100,00 %
30.09.2017 09:12 10,1 C 13,3 C 90 % 1019,6 hPa 0,0 l/m 5,0 km/h (1 Bft) O 93 2 min 0,000 mm 0,7 UV-I 293 W/m 8,5 C 10,1 C 6,4 km/h (2 Bft) 95,74 %
30.09.2017 09:14 10,2 C 13,3 C 89 % 1019,5 hPa 0,0 l/m 7,8 km/h (2 Bft) O-NO 76 2 min 0,000 mm 0,7 UV-I 295 W/m 8,5 C 9,2 C 11,3 km/h (2 Bft) 97,92 %
30.09.2017 09:16 10,2 C 13,3 C 89 % 1019,5 hPa 0,0 l/m 8,4 km/h (2 Bft) O 82 2 min 0,000 mm 0,7 UV-I 298 W/m 8,5 C 8,8 C 14,5 km/h (3 Bft) 97,87 %
30.09.2017 09:18 10,2 C 13,3 C 89 % 1019,4 hPa 0,0 l/m 10,1 km/h (2 Bft) O 92 2 min 0,000 mm 0,7 UV-I 304 W/m 8,5 C 7,8 C 14,5 km/h (3 Bft) 97,87 %
30.09.2017 09:20 10,3 C 13,3 C 89 % 1019,4 hPa 0,0 l/m 9,5 km/h (2 Bft) O-NO 65 2 min 0,000 mm 0,7 UV-I 312 W/m 8,6 C 8,2 C 14,5 km/h (3 Bft) 98,00 %
30.09.2017 09:22 10,3 C 13,3 C 89 % 1019,4 hPa 0,0 l/m 9,2 km/h (2 Bft) NO 40 2 min 0,000 mm 0,8 UV-I 322 W/m 8,6 C 8,4 C 14,5 km/h (3 Bft) 97,56 %
30.09.2017 09:24 10,4 C 13,3 C 89 % 1019,4 hPa 0,0 l/m 8,6 km/h (2 Bft) NO 43 2 min 0,000 mm 0,8 UV-I 325 W/m 8,7 C 8,9 C 14,5 km/h (3 Bft) 95,74 %
30.09.2017 09:26 10,4 C 13,3 C 88 % 1019,4 hPa 0,0 l/m 7,4 km/h (2 Bft) O-NO 63 2 min 0,000 mm 0,8 UV-I 332 W/m 8,5 C 9,7 C 12,9 km/h (3 Bft) 95,74 %
30.09.2017 09:28 10,5 C 13,3 C 89 % 1019,4 hPa 0,0 l/m 8,1 km/h (2 Bft) O-NO 61 2 min 0,000 mm 0,8 UV-I 337 W/m 8,8 C 9,3 C 12,9 km/h (3 Bft) 95,74 %
30.09.2017 09:30 10,6 C 13,3 C 88 % 1019,4 hPa 0,0 l/m 10,4 km/h (2 Bft) O-NO 64 2 min 0,000 mm 0,9 UV-I 341 W/m 8,7 C 8,0 C 14,5 km/h (3 Bft) 97,87 %
30.09.2017 09:32 10,6 C 13,3 C 88 % 1019,4 hPa 0,0 l/m 10,3 km/h (2 Bft) NO 52 2 min 0,000 mm 0,9 UV-I 346 W/m 8,7 C 8,1 C 14,5 km/h (3 Bft) 94,00 %
30.09.2017 09:34 10,6 C 13,3 C 88 % 1019,3 hPa 0,0 l/m 8,8 km/h (2 Bft) O-NO 65 2 min 0,000 mm 0,9 UV-I 349 W/m 8,7 C 9,0 C 12,9 km/h (3 Bft) 96,00 %
30.09.2017 09:36 10,7 C 13,3 C 88 % 1019,4 hPa 0,0 l/m 8,9 km/h (2 Bft) O-NO 78 2 min 0,000 mm 0,9 UV-I 353 W/m 8,8 C 9,0 C 12,9 km/h (3 Bft) 97,87 %
30.09.2017 09:38 10,8 C 13,3 C 88 % 1019,4 hPa 0,0 l/m 8,8 km/h (2 Bft) O-NO 60 2 min 0,000 mm 0,9 UV-I 357 W/m 8,9 C 9,2 C 11,3 km/h (2 Bft) 97,14 %
30.09.2017 09:40 10,9 C 13,3 C 88 % 1019,4 hPa 0,0 l/m 7,2 km/h (2 Bft) O-NO 72 2 min 0,000 mm 1,0 UV-I 365 W/m 9,0 C 10,3 C 12,9 km/h (3 Bft) 97,87 %
30.09.2017 09:42 10,9 C 13,3 C 87 % 1019,4 hPa 0,0 l/m 5,4 km/h (1 Bft) O-NO 74 2 min 0,000 mm 1,0 UV-I 369 W/m 8,8 C 10,9 C 9,7 km/h (2 Bft) 97,87 %
30.09.2017 09:44 11,1 C 13,3 C 88 % 1019,5 hPa 0,0 l/m 6,9 km/h (2 Bft) O-NO 73 2 min 0,000 mm 1,0 UV-I 374 W/m 9,2 C 10,8 C 9,7 km/h (2 Bft) 97,83 %
30.09.2017 09:46 11,2 C 13,3 C 88 % 1019,5 hPa 0,0 l/m 7,8 km/h (2 Bft) NO 49 2 min 0,000 mm 1,0 UV-I 377 W/m 9,3 C 10,2 C 11,3 km/h (2 Bft) 95,74 %
30.09.2017 09:48 11,3 C 13,3 C 88 % 1019,5 hPa 0,0 l/m 9,5 km/h (2 Bft) NO 50 2 min 0,000 mm 1,1 UV-I 379 W/m 9,4 C 9,3 C 14,5 km/h (3 Bft) 100,00 %
30.09.2017 09:50 11,3 C 13,3 C 87 % 1019,4 hPa 0,0 l/m 7,3 km/h (2 Bft) O-NO 71 2 min 0,000 mm 1,1 UV-I 387 W/m 9,2 C 10,7 C 9,7 km/h (2 Bft) 100,00 %
30.09.2017 09:52 11,4 C 13,3 C 86 % 1019,4 hPa 0,0 l/m 6,1 km/h (2 Bft) NO 49 2 min 0,000 mm 1,1 UV-I 391 W/m 9,1 C 11,4 C 11,3 km/h (2 Bft) 97,87 %
30.09.2017 09:54 11,4 C 13,3 C 87 % 1019,4 hPa 0,0 l/m 7,7 km/h (2 Bft) NO 41 2 min 0,000 mm 1,1 UV-I 399 W/m 9,3 C 10,5 C 14,5 km/h (3 Bft) 97,87 %
30.09.2017 09:56 11,6 C 13,3 C 87 % 1019,3 hPa 0,0 l/m 9,3 km/h (2 Bft) NO 52 2 min 0,000 mm 1,2 UV-I 405 W/m 9,5 C 9,8 C 14,5 km/h (3 Bft) 97,92 %
30.09.2017 09:58 11,6 C 13,3 C 86 % 1019,3 hPa 0,0 l/m 8,8 km/h (2 Bft) O-NO 74 2 min 0,000 mm 1,2 UV-I 408 W/m 9,3 C 10,0 C 12,9 km/h (3 Bft) 100,00 %
30.09.2017 10:00 11,7 C 13,3 C 86 % 1019,3 hPa 0,0 l/m 9,4 km/h (2 Bft) O-NO 59 2 min 0,178 mm 1,2 UV-I 414 W/m 9,4 C 9,8 C 14,5 km/h (3 Bft) 100,00 %
30.09.2017 10:02 11,7 C 13,3 C 85 % 1019,3 hPa 0,0 l/m 8,4 km/h (2 Bft) NO 45 2 min 0,000 mm 1,2 UV-I 419 W/m 9,3 C 10,4 C 14,5 km/h (3 Bft) 97,87 %
30.09.2017 10:04 11,7 C 13,3 C 86 % 1019,3 hPa 0,0 l/m 7,1 km/h (2 Bft) O-NO 59 2 min 0,000 mm 1,3 UV-I 423 W/m 9,4 C 11,2 C 11,3 km/h (2 Bft) 100,00 %
30.09.2017 10:06 11,8 C 13,3 C 85 % 1019,2 hPa 0,0 l/m 9,1 km/h (2 Bft) NO 46 2 min 0,000 mm 1,3 UV-I 428 W/m 9,4 C 10,1 C 14,5 km/h (3 Bft) 96,00 %
30.09.2017 10:08 11,8 C 13,3 C 85 % 1019,2 hPa 0,0 l/m 10,4 km/h (2 Bft) O 80 2 min 0,000 mm 1,3 UV-I 432 W/m 9,4 C 9,4 C 14,5 km/h (3 Bft) 100,00 %
30.09.2017 10:10 11,9 C 13,3 C 85 % 1019,2 hPa 0,0 l/m 10,0 km/h (2 Bft) NO 53 2 min 0,000 mm 1,3 UV-I 438 W/m 9,5 C 9,7 C 14,5 km/h (3 Bft) 97,56 %
30.09.2017 10:12 12,0 C 13,3 C 85 % 1019,2 hPa 0,0 l/m 8,3 km/h (2 Bft) O-NO 59 2 min 0,000 mm 1,4 UV-I 442 W/m 9,6 C 10,8 C 14,5 km/h (3 Bft) 100,00 %
30.09.2017 10:14 12,2 C 13,3 C 86 % 1019,2 hPa 0,0 l/m 7,5 km/h (2 Bft) NO 38 2 min 0,000 mm 1,4 UV-I 446 W/m 9,9 C 11,5 C 14,5 km/h (3 Bft) 97,87 %
30.09.2017 10:16 12,3 C 13,3 C 85 % 1019,2 hPa 0,0 l/m 9,7 km/h (2 Bft) NO 46 2 min 0,000 mm 1,4 UV-I 449 W/m 9,9 C 10,3 C 14,5 km/h (3 Bft) 97,87 %
30.09.2017 10:18 12,3 C 13,3 C 85 % 1019,1 hPa 0,0 l/m 11,1 km/h (2 Bft) NO 36 2 min 0,000 mm 1,4 UV-I 455 W/m 9,9 C 9,6 C 16,1 km/h (3 Bft) 97,87 %
30.09.2017 10:20 12,3 C 13,3 C 85 % 1019,1 hPa 0,0 l/m 8,0 km/h (2 Bft) O-NO 57 2 min 0,000 mm 1,5 UV-I 460 W/m 9,9 C 11,3 C 12,9 km/h (3 Bft) 100,00 %
30.09.2017 10:22 12,4 C 13,3 C 85 % 1019,1 hPa 0,0 l/m 6,9 km/h (2 Bft) NO 56 2 min 0,000 mm 1,5 UV-I 462 W/m 9,9 C 12,1 C 11,3 km/h (2 Bft) 95,74 %
30.09.2017 10:24 12,5 C 13,3 C 84 % 1019,1 hPa 0,0 l/m 8,5 km/h (2 Bft) O-NO 57 2 min 0,000 mm 1,5 UV-I 466 W/m 9,9 C 11,2 C 12,9 km/h (3 Bft) 100,00 %
30.09.2017 10:26 12,5 C 13,3 C 84 % 1019,1 hPa 0,0 l/m 7,4 km/h (2 Bft) O-NO 67 2 min 0,000 mm 1,5 UV-I 472 W/m 9,9 C 11,9 C 12,9 km/h (3 Bft) 97,87 %
30.09.2017 10:28 12,6 C 13,3 C 84 % 1019,0 hPa 0,0 l/m 7,4 km/h (2 Bft) NO 36 2 min 0,000 mm 1,6 UV-I 475 W/m 10,0 C 12,0 C 14,5 km/h (3 Bft) 100,00 %
30.09.2017 10:30 12,7 C 13,3 C 84 % 1019,0 hPa 0,0 l/m 9,6 km/h (2 Bft) NO 43 2 min 0,000 mm 1,6 UV-I 479 W/m 10,1 C 10,8 C 14,5 km/h (3 Bft) 97,87 %
30.09.2017 10:32 12,8 C 13,3 C 84 % 1019,1 hPa 0,0 l/m 9,1 km/h (2 Bft) N-NO 32 2 min 0,000 mm 1,6 UV-I 484 W/m 10,2 C 11,2 C 12,9 km/h (3 Bft) 97,92 %
30.09.2017 10:34 12,8 C 13,3 C 83 % 1019,1 hPa 0,0 l/m 9,0 km/h (2 Bft) O-SO 103 2 min 0,000 mm 1,7 UV-I 488 W/m 10,0 C 11,2 C 12,9 km/h (3 Bft) 100,00 %
30.09.2017 10:36 12,9 C 13,3 C 82 % 1019,1 hPa 0,0 l/m 9,2 km/h (2 Bft) O-SO 104 2 min 0,000 mm 1,7 UV-I 488 W/m 9,9 C 11,2 C 12,9 km/h (3 Bft) 100,00 %
30.09.2017 10:38 13,0 C 13,3 C 83 % 1019,1 hPa 0,0 l/m 8,2 km/h (2 Bft) NO 43 2 min 0,000 mm 1,7 UV-I 492 W/m 10,2 C 11,9 C 14,5 km/h (3 Bft) 100,00 %
30.09.2017 10:40 13,1 C 13,3 C 82 % 1019,1 hPa 0,0 l/m 7,0 km/h (2 Bft) NO 41 2 min 0,000 mm 1,7 UV-I 498 W/m 10,1 C 12,7 C 9,7 km/h (2 Bft) 100,00 %
30.09.2017 10:42 13,1 C 13,3 C 81 % 1019,1 hPa 0,0 l/m 7,7 km/h (2 Bft) O-NO 68 2 min 0,000 mm 1,8 UV-I 497 W/m 9,9 C 12,3 C 12,9 km/h (3 Bft) 100,00 %
30.09.2017 10:44 13,1 C 13,3 C 83 % 1019,1 hPa 0,0 l/m 4,2 km/h (1 Bft) NO 40 2 min 0,000 mm 1,8 UV-I 503 W/m 10,3 C 13,1 C 6,4 km/h (2 Bft) 97,87 %
30.09.2017 10:46 13,3 C 13,3 C 83 % 1019,1 hPa 0,0 l/m 4,8 km/h (1 Bft) NO 42 2 min 0,000 mm 1,8 UV-I 506 W/m 10,5 C 13,3 C 9,7 km/h (2 Bft) 97,87 %
30.09.2017 10:48 13,4 C 13,3 C 82 % 1019,0 hPa 0,0 l/m 5,9 km/h (2 Bft) NO 42 2 min 0,000 mm 1,9 UV-I 511 W/m 10,4 C 13,4 C 8,0 km/h (2 Bft) 100,00 %
30.09.2017 10:50 13,5 C 13,3 C 81 % 1019,0 hPa 0,0 l/m 6,5 km/h (2 Bft) O-NO 74 2 min 0,000 mm 1,9 UV-I 513 W/m 10,3 C 13,5 C 11,3 km/h (2 Bft) 97,87 %
30.09.2017 10:52 13,5 C 13,3 C 80 % 1019,0 hPa 0,0 l/m 6,4 km/h (2 Bft) N-NO 33 2 min 0,000 mm 1,9 UV-I 518 W/m 10,1 C 13,5 C 11,3 km/h (2 Bft) 100,00 %
30.09.2017 10:54 13,5 C 13,3 C 82 % 1018,9 hPa 0,0 l/m 5,3 km/h (1 Bft) N-NO 14 2 min 0,000 mm 1,9 UV-I 522 W/m 10,5 C 13,5 C 11,3 km/h (2 Bft) 97,87 %
30.09.2017 10:56 13,5 C 13,3 C 81 % 1018,9 hPa 0,0 l/m 8,1 km/h (2 Bft) NO 53 2 min 0,000 mm 2,0 UV-I 527 W/m 10,3 C 12,5 C 14,5 km/h (3 Bft) 95,74 %
30.09.2017 10:58 13,5 C 13,3 C 81 % 1018,9 hPa 0,0 l/m 9,4 km/h (2 Bft) NO 55 2 min 0,000 mm 2,0 UV-I 529 W/m 10,3 C 11,8 C 12,9 km/h (3 Bft) 97,87 %
30.09.2017 11:00 13,6 C 13,3 C 82 % 1018,9 hPa 0,0 l/m 6,8 km/h (2 Bft) NO 49 2 min 0,254 mm 2,0 UV-I 532 W/m 10,6 C 13,4 C 11,3 km/h (2 Bft) 97,87 %
30.09.2017 11:02 13,6 C 13,3 C 83 % 1018,9 hPa 0,0 l/m 9,8 km/h (2 Bft) NO 43 2 min 0,000 mm 2,0 UV-I 534 W/m 10,8 C 11,7 C 14,5 km/h (3 Bft) 97,87 %
30.09.2017 11:04 13,6 C 13,3 C 82 % 1018,9 hPa 0,0 l/m 6,4 km/h (2 Bft) O-NO 74 2 min 0,000 mm 2,1 UV-I 538 W/m 10,6 C 13,6 C 8,0 km/h (2 Bft) 97,87 %
30.09.2017 11:06 13,6 C 13,3 C 80 % 1018,8 hPa 0,0 l/m 7,8 km/h (2 Bft) O-NO 59 2 min 0,000 mm 2,1 UV-I 541 W/m 10,2 C 12,7 C 14,5 km/h (3 Bft) 97,87 %
30.09.2017 11:08 13,7 C 13,3 C 81 % 1018,8 hPa 0,0 l/m 6,9 km/h (2 Bft) NO 37 2 min 0,000 mm 2,1 UV-I 545 W/m 10,5 C 13,4 C 11,3 km/h (2 Bft) 97,92 %
30.09.2017 11:10 13,7 C 13,3 C 82 % 1018,8 hPa 0,0 l/m 5,5 km/h (1 Bft) NO 54 2 min 0,000 mm 2,2 UV-I 550 W/m 10,7 C 13,7 C 11,3 km/h (2 Bft) 95,74 %
30.09.2017 11:12 13,8 C 13,3 C 81 % 1018,8 hPa 0,0 l/m 10,0 km/h (2 Bft) NO 53 2 min 0,000 mm 2,2 UV-I 550 W/m 10,6 C 11,8 C 16,1 km/h (3 Bft) 96,00 %
30.09.2017 11:14 13,9 C 13,3 C 81 % 1018,8 hPa 0,0 l/m 8,9 km/h (2 Bft) O-NO 61 2 min 0,000 mm 2,2 UV-I 555 W/m 10,7 C 12,5 C 16,1 km/h (3 Bft) 95,74 %
30.09.2017 11:16 14,0 C 13,3 C 80 % 1018,8 hPa 0,0 l/m 10,7 km/h (2 Bft) O-NO 57 2 min 0,000 mm 2,2 UV-I 559 W/m 10,6 C 11,7 C 16,1 km/h (3 Bft) 97,87 %
30.09.2017 11:18 14,0 C 13,3 C 80 % 1018,7 hPa 0,0 l/m 8,3 km/h (2 Bft) O-NO 76 2 min 0,000 mm 2,2 UV-I 561 W/m 10,6 C 12,9 C 12,9 km/h (3 Bft) 100,00 %
30.09.2017 11:20 14,1 C 13,3 C 80 % 1018,7 hPa 0,0 l/m 6,4 km/h (2 Bft) NO 37 2 min 0,000 mm 2,3 UV-I 565 W/m 10,7 C 14,1 C 9,7 km/h (2 Bft) 100,00 %
30.09.2017 11:22 14,3 C 13,3 C 80 % 1018,6 hPa 0,0 l/m 8,6 km/h (2 Bft) O-NO 75 2 min 0,000 mm 2,3 UV-I 569 W/m 10,9 C 13,0 C 14,5 km/h (3 Bft) 97,87 %
30.09.2017 11:24 14,4 C 13,3 C 79 % 1018,6 hPa 0,0 l/m 8,6 km/h (2 Bft) NO 46 2 min 0,000 mm 2,3 UV-I 570 W/m 10,8 C 13,1 C 12,9 km/h (3 Bft) 97,14 %
30.09.2017 11:26 14,5 C 13,3 C 80 % 1018,6 hPa 0,0 l/m 7,6 km/h (2 Bft) O-NO 60 2 min 0,000 mm 2,3 UV-I 572 W/m 11,1 C 13,8 C 14,5 km/h (3 Bft) 95,83 %
30.09.2017 11:28 14,5 C 13,3 C 78 % 1018,7 hPa 0,0 l/m 10,3 km/h (2 Bft) NO 38 2 min 0,000 mm 2,3 UV-I 573 W/m 10,7 C 12,4 C 17,7 km/h (3 Bft) 96,00 %
30.09.2017 11:30 14,6 C 13,3 C 78 % 1018,7 hPa 0,0 l/m 9,6 km/h (2 Bft) O-NO 71 2 min 0,000 mm 2,4 UV-I 578 W/m 10,8 C 12,9 C 16,1 km/h (3 Bft) 100,00 %
30.09.2017 11:32 14,6 C 13,3 C 78 % 1018,7 hPa 0,0 l/m 6,7 km/h (2 Bft) NO 44 2 min 0,000 mm 2,4 UV-I 581 W/m 10,8 C 14,4 C 12,9 km/h (3 Bft) 100,00 %
30.09.2017 11:34 14,7 C 13,3 C 79 % 1018,7 hPa 0,0 l/m 9,0 km/h (2 Bft) O-NO 57 2 min 0,000 mm 2,4 UV-I 582 W/m 11,1 C 13,3 C 14,5 km/h (3 Bft) 97,87 %
30.09.2017 11:36 14,7 C 13,3 C 79 % 1018,6 hPa 0,0 l/m 7,5 km/h (2 Bft) O-NO 72 2 min 0,000 mm 2,5 UV-I 586 W/m 11,1 C 14,1 C 12,9 km/h (3 Bft) 100,00 %
30.09.2017 11:38 14,7 C 13,3 C 79 % 1018,6 hPa 0,0 l/m 7,4 km/h (2 Bft) O-NO 67 2 min 0,000 mm 2,5 UV-I 587 W/m 11,1 C 14,1 C 12,9 km/h (3 Bft) 100,00 %
30.09.2017 11:40 14,8 C 13,3 C 79 % 1018,6 hPa 0,0 l/m 9,9 km/h (2 Bft) NO 42 2 min 0,000 mm 2,5 UV-I 589 W/m 11,2 C 12,9 C 16,1 km/h (3 Bft) 100,00 %
30.09.2017 11:42 15,0 C 13,3 C 80 % 1018,5 hPa 0,0 l/m 9,8 km/h (2 Bft) NO 49 2 min 0,000 mm 2,5 UV-I 590 W/m 11,6 C 13,2 C 14,5 km/h (3 Bft) 100,00 %
30.09.2017 11:44 15,1 C 13,3 C 77 % 1018,4 hPa 0,0 l/m 11,4 km/h (2 Bft) O-NO 58 2 min 0,000 mm 2,5 UV-I 593 W/m 11,1 C 12,6 C 16,1 km/h (3 Bft) 100,00 %
30.09.2017 11:46 15,1 C 13,3 C 77 % 1018,4 hPa 0,0 l/m 9,2 km/h (2 Bft) O-NO 63 2 min 0,000 mm 2,5 UV-I 594 W/m 11,1 C 13,6 C 16,1 km/h (3 Bft) 100,00 %
30.09.2017 11:48 15,1 C 13,3 C 76 % 1018,4 hPa 0,0 l/m 8,5 km/h (2 Bft) O-NO 69 2 min 0,000 mm 2,6 UV-I 596 W/m 10,9 C 13,9 C 16,1 km/h (3 Bft) 100,00 %
30.09.2017 11:50 15,1 C 13,3 C 77 % 1018,4 hPa 0,0 l/m 8,8 km/h (2 Bft) O-NO 63 2 min 0,000 mm 2,6 UV-I 598 W/m 11,1 C 13,8 C 14,5 km/h (3 Bft) 100,00 %
30.09.2017 11:52 15,1 C 13,3 C 77 % 1018,3 hPa 0,0 l/m 4,6 km/h (1 Bft) NO 43 2 min 0,000 mm 2,6 UV-I 599 W/m 11,1 C 15,1 C 9,7 km/h (2 Bft) 97,87 %
30.09.2017 11:54 15,2 C 13,3 C 78 % 1018,3 hPa 0,0 l/m 6,9 km/h (2 Bft) NO 46 2 min 0,000 mm 2,6 UV-I 599 W/m 11,4 C 14,9 C 9,7 km/h (2 Bft) 100,00 %
30.09.2017 11:56 15,3 C 13,3 C 77 % 1018,3 hPa 0,0 l/m 7,6 km/h (2 Bft) O 87 2 min 0,000 mm 2,7 UV-I 602 W/m 11,3 C 14,6 C 12,9 km/h (3 Bft) 100,00 %
30.09.2017 11:58 15,3 C 13,3 C 77 % 1018,4 hPa 0,0 l/m 8,3 km/h (2 Bft) O 82 2 min 0,000 mm 2,7 UV-I 603 W/m 11,3 C 14,3 C 14,5 km/h (3 Bft) 95,74 %
30.09.2017 12:00 15,4 C 13,3 C 75 % 1018,3 hPa 0,0 l/m 9,9 km/h (2 Bft) O-NO 70 2 min 0,305 mm 2,7 UV-I 603 W/m 11,0 C 13,6 C 16,1 km/h (3 Bft) 100,00 %
30.09.2017 12:02 15,3 C 13,3 C 75 % 1018,3 hPa 0,0 l/m 7,5 km/h (2 Bft) O-NO 74 2 min 0,000 mm 2,7 UV-I 605 W/m 10,9 C 14,7 C 14,5 km/h (3 Bft) 100,00 %
30.09.2017 12:04 15,3 C 13,3 C 75 % 1018,2 hPa 0,0 l/m 4,1 km/h (1 Bft) O 79 2 min 0,000 mm 2,7 UV-I 606 W/m 10,9 C 15,3 C 11,3 km/h (2 Bft) 98,00 %
30.09.2017 12:06 15,3 C 13,3 C 76 % 1018,2 hPa 0,0 l/m 8,3 km/h (2 Bft) N 5 2 min 0,000 mm 2,7 UV-I 608 W/m 11,1 C 14,3 C 16,1 km/h (3 Bft) 96,00 %
30.09.2017 12:08 15,4 C 13,3 C 75 % 1018,3 hPa 0,0 l/m 2,6 km/h (1 Bft) NO 53 2 min 0,000 mm 2,8 UV-I 610 W/m 11,0 C 15,4 C 8,0 km/h (2 Bft) 100,00 %
30.09.2017 12:10 15,5 C 13,3 C 76 % 1018,2 hPa 0,0 l/m 5,6 km/h (1 Bft) N-NO 23 2 min 0,000 mm 2,8 UV-I 609 W/m 11,3 C 15,5 C 11,3 km/h (2 Bft) 97,87 %
30.09.2017 12:12 15,7 C 13,3 C 77 % 1018,2 hPa 0,0 l/m 7,6 km/h (2 Bft) O-NO 72 2 min 0,000 mm 2,8 UV-I 612 W/m 11,7 C 15,0 C 14,5 km/h (3 Bft) 100,00 %
30.09.2017 12:14 15,7 C 13,3 C 74 % 1018,2 hPa 0,0 l/m 8,2 km/h (2 Bft) NO 49 2 min 0,000 mm 2,8 UV-I 613 W/m 11,1 C 14,7 C 14,5 km/h (3 Bft) 98,08 %
30.09.2017 12:16 15,8 C 13,3 C 75 % 1018,2 hPa 0,0 l/m 7,7 km/h (2 Bft) NO 45 2 min 0,000 mm 2,8 UV-I 613 W/m 11,4 C 15,1 C 14,5 km/h (3 Bft) 97,87 %
30.09.2017 12:18 15,8 C 13,3 C 75 % 1018,2 hPa 0,0 l/m 6,8 km/h (2 Bft) NO 52 2 min 0,000 mm 2,8 UV-I 614 W/m 11,4 C 15,6 C 11,3 km/h (2 Bft) 100,00 %
30.09.2017 12:20 15,9 C 13,3 C 75 % 1018,1 hPa 0,0 l/m 9,4 km/h (2 Bft) O-NO 63 2 min 0,000 mm 2,9 UV-I 617 W/m 11,5 C 14,4 C 14,5 km/h (3 Bft) 100,00 %
30.09.2017 12:22 15,9 C 13,3 C 75 % 1018,1 hPa 0,0 l/m 6,7 km/h (2 Bft) N-NO 22 2 min 0,000 mm 2,9 UV-I 619 W/m 11,5 C 15,7 C 11,3 km/h (2 Bft) 98,00 %
30.09.2017 12:24 16,0 C 13,3 C 76 % 1018,0 hPa 0,0 l/m 4,9 km/h (1 Bft) N-NO 28 2 min 0,000 mm 2,9 UV-I 619 W/m 11,8 C 16,0 C 9,7 km/h (2 Bft) 97,87 %
30.09.2017 12:26 16,1 C 13,3 C 75 % 1018,0 hPa 0,0 l/m 3,6 km/h (1 Bft) N-NO 13 2 min 0,000 mm 2,9 UV-I 619 W/m 11,7 C 16,1 C 8,0 km/h (2 Bft) 97,87 %
30.09.2017 12:28 16,2 C 13,3 C 74 % 1018,0 hPa 0,0 l/m 8,0 km/h (2 Bft) O-NO 59 2 min 0,000 mm 2,9 UV-I 618 W/m 11,6 C 15,4 C 12,9 km/h (3 Bft) 97,87 %
30.09.2017 12:30 16,3 C 13,3 C 73 % 1017,9 hPa 0,0 l/m 4,4 km/h (1 Bft) O-NO 63 2 min 0,000 mm 2,9 UV-I 619 W/m 11,4 C 16,3 C 9,7 km/h (2 Bft) 98,04 %
30.09.2017 12:32 16,3 C 13,3 C 72 % 1017,9 hPa 0,0 l/m 7,4 km/h (2 Bft) O-NO 77 2 min 0,000 mm 3,0 UV-I 621 W/m 11,2 C 15,8 C 12,9 km/h (3 Bft) 95,74 %
30.09.2017 12:34 16,3 C 13,3 C 73 % 1017,9 hPa 0,0 l/m 9,1 km/h (2 Bft) O 79 2 min 0,000 mm 3,0 UV-I 623 W/m 11,4 C 14,9 C 12,9 km/h (3 Bft) 95,74 %
30.09.2017 12:36 16,4 C 13,3 C 72 % 1017,8 hPa 0,0 l/m 8,1 km/h (2 Bft) O-NO 73 2 min 0,000 mm 3,0 UV-I 624 W/m 11,3 C 15,5 C 12,9 km/h (3 Bft) 95,74 %
30.09.2017 12:38 16,4 C 13,3 C 72 % 1017,8 hPa 0,0 l/m 6,2 km/h (2 Bft) O-NO 63 2 min 0,000 mm 3,0 UV-I 626 W/m 11,3 C 16,4 C 9,7 km/h (2 Bft) 97,14 %
30.09.2017 12:40 16,4 C 13,3 C 74 % 1017,8 hPa 0,0 l/m 5,7 km/h (1 Bft) NO 40 2 min 0,000 mm 3,0 UV-I 625 W/m 11,8 C 16,4 C 9,7 km/h (2 Bft) 95,74 %
30.09.2017 12:42 16,5 C 13,3 C 73 % 1017,8 hPa 0,0 l/m 13,1 km/h (3 Bft) NO 35 2 min 0,000 mm 3,0 UV-I 625 W/m 11,6 C 13,6 C 17,7 km/h (3 Bft) 95,74 %
30.09.2017 12:44 16,6 C 13,3 C 73 % 1017,8 hPa 0,0 l/m 10,7 km/h (2 Bft) NO 43 2 min 0,000 mm 3,0 UV-I 626 W/m 11,7 C 14,6 C 14,5 km/h (3 Bft) 95,74 %
30.09.2017 12:46 16,5 C 13,3 C 71 % 1017,7 hPa 0,0 l/m 6,5 km/h (2 Bft) NO 44 2 min 0,000 mm 3,0 UV-I 625 W/m 11,2 C 16,5 C 14,5 km/h (3 Bft) 95,74 %
30.09.2017 12:48 16,6 C 13,3 C 74 % 1017,7 hPa 0,0 l/m 7,0 km/h (2 Bft) NO 44 2 min 0,000 mm 3,0 UV-I 623 W/m 11,9 C 16,3 C 11,3 km/h (2 Bft) 97,87 %
30.09.2017 12:50 16,7 C 13,3 C 72 % 1017,7 hPa 0,0 l/m 8,2 km/h (2 Bft) NO 46 2 min 0,000 mm 3,0 UV-I 624 W/m 11,6 C 15,8 C 16,1 km/h (3 Bft) 95,74 %
30.09.2017 12:52 16,8 C 13,3 C 73 % 1017,6 hPa 0,0 l/m 7,3 km/h (2 Bft) NO 52 2 min 0,000 mm 3,0 UV-I 624 W/m 11,9 C 16,3 C 16,1 km/h (3 Bft) 97,87 %
30.09.2017 12:54 16,9 C 13,3 C 73 % 1017,6 hPa 0,0 l/m 11,7 km/h (2 Bft) N-NO 12 2 min 0,000 mm 3,0 UV-I 626 W/m 12,0 C 14,6 C 19,3 km/h (3 Bft) 96,00 %
30.09.2017 12:56 16,9 C 13,3 C 74 % 1017,6 hPa 0,0 l/m 9,0 km/h (2 Bft) N-NO 23 2 min 0,000 mm 3,0 UV-I 624 W/m 12,2 C 15,6 C 17,7 km/h (3 Bft) 95,74 %
30.09.2017 12:58 16,9 C 13,3 C 72 % 1017,5 hPa 0,0 l/m 13,2 km/h (3 Bft) NO 41 2 min 0,000 mm 3,0 UV-I 624 W/m 11,8 C 14,1 C 19,3 km/h (3 Bft) 100,00 %
30.09.2017 13:00 16,9 C 13,3 C 73 % 1017,6 hPa 0,0 l/m 10,3 km/h (2 Bft) O-NO 61 2 min 0,355 mm 3,0 UV-I 623 W/m 12,0 C 15,1 C 16,1 km/h (3 Bft) 100,00 %
30.09.2017 13:02 16,9 C 13,3 C 72 % 1017,4 hPa 0,0 l/m 10,7 km/h (2 Bft) O-NO 76 2 min 0,000 mm 3,0 UV-I 622 W/m 11,8 C 14,9 C 16,1 km/h (3 Bft) 100,00 %
30.09.2017 13:04 17,1 C 13,3 C 70 % 1017,5 hPa 0,0 l/m 10,8 km/h (2 Bft) O-NO 71 2 min 0,000 mm 3,0 UV-I 622 W/m 11,6 C 15,1 C 16,1 km/h (3 Bft) 98,00 %
30.09.2017 13:06 17,1 C 13,3 C 73 % 1017,4 hPa 0,0 l/m 8,2 km/h (2 Bft) N-NO 14 2 min 0,000 mm 3,0 UV-I 621 W/m 12,2 C 16,2 C 12,9 km/h (3 Bft) 95,74 %
30.09.2017 13:08 17,1 C 13,3 C 73 % 1017,4 hPa 0,0 l/m 5,6 km/h (1 Bft) NO 50 2 min 0,000 mm 3,0 UV-I 620 W/m 12,2 C 17,1 C 11,3 km/h (2 Bft) 97,87 %
30.09.2017 13:10 17,2 C 13,3 C 71 % 1017,4 hPa 0,0 l/m 14,1 km/h (3 Bft) O-NO 70 2 min 0,000 mm 3,0 UV-I 619 W/m 11,9 C 14,1 C 20,9 km/h (4 Bft) 100,00 %
30.09.2017 13:12 17,2 C 13,3 C 69 % 1017,3 hPa 0,0 l/m 10,7 km/h (2 Bft) NO 46 2 min 0,000 mm 3,0 UV-I 622 W/m 11,5 C 15,3 C 17,7 km/h (3 Bft) 95,12 %
30.09.2017 13:14 17,3 C 13,3 C 69 % 1017,3 hPa 0,0 l/m 11,5 km/h (2 Bft) O-NO 60 2 min 0,000 mm 3,0 UV-I 622 W/m 11,6 C 15,1 C 19,3 km/h (3 Bft) 97,87 %
30.09.2017 13:16 17,3 C 13,3 C 70 % 1017,3 hPa 0,0 l/m 11,5 km/h (2 Bft) O-NO 69 2 min 0,000 mm 3,0 UV-I 620 W/m 11,8 C 15,1 C 17,7 km/h (3 Bft) 98,00 %
30.09.2017 13:18 17,3 C 13,3 C 69 % 1017,3 hPa 0,0 l/m 11,8 km/h (2 Bft) NO 46 2 min 0,000 mm 3,0 UV-I 618 W/m 11,6 C 15,0 C 16,1 km/h (3 Bft) 95,74 %
30.09.2017 13:20 17,3 C 13,3 C 71 % 1017,2 hPa 0,0 l/m 13,4 km/h (3 Bft) N-NO 21 2 min 0,000 mm 3,0 UV-I 619 W/m 12,0 C 14,5 C 19,3 km/h (3 Bft) 97,87 %
30.09.2017 13:22 17,4 C 13,3 C 69 % 1017,2 hPa 0,0 l/m 11,5 km/h (2 Bft) NO 43 2 min 0,000 mm 2,9 UV-I 618 W/m 11,7 C 15,2 C 19,3 km/h (3 Bft) 97,56 %
30.09.2017 13:24 17,4 C 13,3 C 70 % 1017,1 hPa 0,0 l/m 15,1 km/h (3 Bft) NO 48 2 min 0,000 mm 2,9 UV-I 617 W/m 11,9 C 14,1 C 20,9 km/h (4 Bft) 95,74 %
30.09.2017 13:26 17,4 C 13,3 C 69 % 1017,2 hPa 0,0 l/m 14,2 km/h (3 Bft) O-NO 58 2 min 0,000 mm 2,9 UV-I 617 W/m 11,7 C 14,3 C 19,3 km/h (3 Bft) 94,34 %
30.09.2017 13:28 17,6 C 13,3 C 71 % 1017,1 hPa 0,0 l/m 14,5 km/h (3 Bft) O-NO 76 2 min 0,000 mm 2,9 UV-I 615 W/m 12,3 C 14,5 C 20,9 km/h (4 Bft) 97,87 %
30.09.2017 13:30 17,6 C 13,3 C 67 % 1017,1 hPa 0,0 l/m 14,6 km/h (3 Bft) O-NO 69 2 min 0,000 mm 2,9 UV-I 615 W/m 11,4 C 14,5 C 20,9 km/h (4 Bft) 95,74 %
30.09.2017 13:32 17,6 C 13,3 C 68 % 1017,1 hPa 0,0 l/m 11,3 km/h (2 Bft) O-NO 60 2 min 0,000 mm 2,9 UV-I 612 W/m 11,6 C 15,5 C 17,7 km/h (3 Bft) 97,87 %
30.09.2017 13:34 17,6 C 13,3 C 70 % 1017,0 hPa 0,0 l/m 9,6 km/h (2 Bft) NO 48 2 min 0,000 mm 2,9 UV-I 610 W/m 12,1 C 16,1 C 19,3 km/h (3 Bft) 97,37 %
30.09.2017 13:36 17,7 C 13,3 C 68 % 1017,0 hPa 0,0 l/m 14,0 km/h (3 Bft) O 84 2 min 0,000 mm 2,9 UV-I 610 W/m 11,7 C 14,8 C 20,9 km/h (4 Bft) 98,00 %
30.09.2017 13:38 17,7 C 13,3 C 68 % 1016,9 hPa 0,0 l/m 14,9 km/h (3 Bft) O-NO 69 2 min 0,000 mm 2,9 UV-I 610 W/m 11,7 C 14,5 C 20,9 km/h (4 Bft) 98,00 %
30.09.2017 13:40 17,8 C 13,3 C 69 % 1016,9 hPa 0,0 l/m 12,9 km/h (3 Bft) NO 42 2 min 0,000 mm 2,9 UV-I 607 W/m 12,0 C 15,2 C 17,7 km/h (3 Bft) 95,74 %
30.09.2017 13:42 17,8 C 13,3 C 68 % 1016,8 hPa 0,0 l/m 12,8 km/h (3 Bft) NO 53 2 min 0,000 mm 2,9 UV-I 607 W/m 11,8 C 15,2 C 17,7 km/h (3 Bft) 97,62 %
30.09.2017 13:44 17,8 C 13,3 C 67 % 1016,8 hPa 0,0 l/m 13,7 km/h (3 Bft) O-NO 63 2 min 0,000 mm 2,8 UV-I 605 W/m 11,6 C 15,0 C 17,7 km/h (3 Bft) 95,74 %
30.09.2017 13:46 17,8 C 13,3 C 67 % 1016,7 hPa 0,0 l/m 13,6 km/h (3 Bft) O-NO 69 2 min 0,000 mm 2,8 UV-I 600 W/m 11,6 C 15,0 C 19,3 km/h (3 Bft) 97,87 %
30.09.2017 13:48 17,8 C 13,3 C 69 % 1016,7 hPa 0,0 l/m 11,0 km/h (2 Bft) O 90 2 min 0,000 mm 2,8 UV-I 601 W/m 12,0 C 15,8 C 17,7 km/h (3 Bft) 97,87 %
30.09.2017 13:50 17,9 C 13,3 C 68 % 1016,7 hPa 0,0 l/m 15,4 km/h (3 Bft) O 85 2 min 0,000 mm 2,8 UV-I 601 W/m 11,9 C 14,6 C 20,9 km/h (4 Bft) 96,00 %
30.09.2017 13:52 17,9 C 13,3 C 67 % 1016,7 hPa 0,0 l/m 10,3 km/h (2 Bft) N-NO 24 2 min 0,000 mm 2,8 UV-I 598 W/m 11,7 C 16,2 C 16,1 km/h (3 Bft) 93,62 %
30.09.2017 13:54 18,1 C 13,3 C 70 % 1016,6 hPa 0,0 l/m 10,6 km/h (2 Bft) NO 40 2 min 0,000 mm 2,8 UV-I 596 W/m 12,5 C 16,3 C 16,1 km/h (3 Bft) 97,87 %
30.09.2017 13:56 18,2 C 13,3 C 67 % 1016,6 hPa 0,0 l/m 14,6 km/h (3 Bft) O-NO 59 2 min 0,000 mm 2,8 UV-I 593 W/m 12,0 C 15,2 C 24,1 km/h (4 Bft) 98,11 %
30.09.2017 13:58 18,2 C 13,3 C 66 % 1016,6 hPa 0,0 l/m 14,4 km/h (3 Bft) NO 38 2 min 0,000 mm 2,7 UV-I 593 W/m 11,7 C 15,2 C 20,9 km/h (4 Bft) 97,87 %
30.09.2017 14:00 18,2 C 13,3 C 68 % 1016,5 hPa 0,0 l/m 9,5 km/h (2 Bft) N-NO 22 2 min 0,381 mm 2,7 UV-I 590 W/m 12,2 C 16,8 C 16,1 km/h (3 Bft) 93,62 %
30.09.2017 14:02 18,2 C 13,3 C 67 % 1016,5 hPa 0,0 l/m 13,5 km/h (3 Bft) O-NO 78 2 min 0,000 mm 2,7 UV-I 589 W/m 12,0 C 15,5 C 20,9 km/h (4 Bft) 97,14 %
30.09.2017 14:04 18,3 C 13,3 C 67 % 1016,5 hPa 0,0 l/m 10,3 km/h (2 Bft) NO 52 2 min 0,000 mm 2,7 UV-I 587 W/m 12,1 C 16,7 C 17,7 km/h (3 Bft) 97,87 %
30.09.2017 14:06 18,3 C 13,3 C 67 % 1016,4 hPa 0,0 l/m 14,4 km/h (3 Bft) O-NO 58 2 min 0,000 mm 2,7 UV-I 587 W/m 12,1 C 15,4 C 24,1 km/h (4 Bft) 95,74 %
30.09.2017 14:08 18,3 C 13,3 C 65 % 1016,4 hPa 0,0 l/m 14,3 km/h (3 Bft) O-NO 63 2 min 0,000 mm 2,7 UV-I 582 W/m 11,6 C 15,4 C 20,9 km/h (4 Bft) 98,00 %
30.09.2017 14:10 18,3 C 13,3 C 65 % 1016,4 hPa 0,0 l/m 14,6 km/h (3 Bft) N-NO 22 2 min 0,000 mm 2,6 UV-I 579 W/m 11,6 C 15,3 C 19,3 km/h (3 Bft) 97,87 %
30.09.2017 14:12 18,3 C 13,3 C 67 % 1016,3 hPa 0,0 l/m 16,8 km/h (3 Bft) N-NO 30 2 min 0,000 mm 2,6 UV-I 577 W/m 12,1 C 14,7 C 25,7 km/h (4 Bft) 93,62 %
30.09.2017 14:14 18,3 C 13,3 C 67 % 1016,3 hPa 0,0 l/m 14,0 km/h (3 Bft) NO 38 2 min 0,000 mm 2,6 UV-I 575 W/m 12,1 C 15,5 C 22,5 km/h (4 Bft) 95,74 %
30.09.2017 14:16 18,4 C 13,3 C 65 % 1016,3 hPa 0,0 l/m 16,3 km/h (3 Bft) O-NO 59 2 min 0,000 mm 2,5 UV-I 572 W/m 11,7 C 15,0 C 22,5 km/h (4 Bft) 95,74 %
30.09.2017 14:18 18,4 C 13,3 C 65 % 1016,2 hPa 0,0 l/m 15,3 km/h (3 Bft) O-NO 68 2 min 0,000 mm 2,5 UV-I 570 W/m 11,7 C 15,2 C 22,5 km/h (4 Bft) 96,23 %
30.09.2017 14:20 18,4 C 13,3 C 66 % 1016,2 hPa 0,0 l/m 18,3 km/h (3 Bft) NO 56 2 min 0,000 mm 2,5 UV-I 569 W/m 11,9 C 14,5 C 25,7 km/h (4 Bft) 93,62 %
30.09.2017 14:22 18,4 C 13,3 C 66 % 1016,1 hPa 0,0 l/m 12,8 km/h (3 Bft) NO 49 2 min 0,000 mm 2,5 UV-I 566 W/m 11,9 C 15,9 C 20,9 km/h (4 Bft) 97,44 %
30.09.2017 14:24 18,5 C 13,3 C 67 % 1016,1 hPa 0,0 l/m 13,0 km/h (3 Bft) O-NO 74 2 min 0,000 mm 2,5 UV-I 562 W/m 12,3 C 16,0 C 20,9 km/h (4 Bft) 93,88 %
30.09.2017 14:26 18,6 C 13,3 C 66 % 1016,1 hPa 0,0 l/m 14,1 km/h (3 Bft) NO 36 2 min 0,000 mm 2,5 UV-I 561 W/m 12,1 C 15,8 C 24,1 km/h (4 Bft) 91,67 %
30.09.2017 14:28 18,6 C 13,3 C 67 % 1016,1 hPa 0,0 l/m 15,9 km/h (3 Bft) NO 39 2 min 0,000 mm 2,4 UV-I 559 W/m 12,3 C 15,3 C 22,5 km/h (4 Bft) 94,00 %
30.09.2017 14:30 18,7 C 13,3 C 66 % 1016,1 hPa 0,0 l/m 13,8 km/h (3 Bft) NO 44 2 min 0,000 mm 2,4 UV-I 554 W/m 12,2 C 16,0 C 22,5 km/h (4 Bft) 92,11 %
30.09.2017 14:32 18,7 C 13,3 C 65 % 1016,0 hPa 0,0 l/m 16,6 km/h (3 Bft) NO 50 2 min 0,000 mm 2,4 UV-I 551 W/m 12,0 C 15,3 C 24,1 km/h (4 Bft) 96,00 %
30.09.2017 14:34 18,7 C 13,3 C 63 % 1016,0 hPa 0,0 l/m 19,8 km/h (3 Bft) NO 54 2 min 0,000 mm 2,4 UV-I 549 W/m 11,5 C 14,6 C 27,4 km/h (4 Bft) 95,74 %
30.09.2017 14:36 18,6 C 13,3 C 64 % 1016,0 hPa 0,0 l/m 18,3 km/h (3 Bft) NO 51 2 min 0,000 mm 2,3 UV-I 548 W/m 11,7 C 14,8 C 27,4 km/h (4 Bft) 95,74 %
30.09.2017 14:38 18,7 C 13,3 C 65 % 1015,9 hPa 0,0 l/m 16,3 km/h (3 Bft) NO 49 2 min 0,000 mm 2,3 UV-I 543 W/m 12,0 C 15,3 C 22,5 km/h (4 Bft) 95,74 %
30.09.2017 14:40 18,7 C 13,3 C 65 % 1016,0 hPa 0,0 l/m 12,4 km/h (3 Bft) NO 39 2 min 0,000 mm 2,3 UV-I 540 W/m 12,0 C 16,4 C 20,9 km/h (4 Bft) 94,00 %
30.09.2017 14:42 18,7 C 13,3 C 65 % 1016,0 hPa 0,0 l/m 16,3 km/h (3 Bft) O-NO 61 2 min 0,000 mm 2,3 UV-I 534 W/m 12,0 C 15,3 C 22,5 km/h (4 Bft) 97,87 %
30.09.2017 14:44 18,7 C 13,3 C 64 % 1015,9 hPa 0,0 l/m 16,9 km/h (3 Bft) NO 55 2 min 0,000 mm 2,2 UV-I 532 W/m 11,7 C 15,2 C 22,5 km/h (4 Bft) 95,74 %
30.09.2017 14:46 18,8 C 13,3 C 65 % 1016,0 hPa 0,0 l/m 16,4 km/h (3 Bft) O-NO 59 2 min 0,000 mm 2,2 UV-I 528 W/m 12,1 C 15,4 C 20,9 km/h (4 Bft) 93,62 %
30.09.2017 14:48 18,8 C 13,3 C 64 % 1016,0 hPa 0,0 l/m 13,5 km/h (3 Bft) NO 49 2 min 0,000 mm 2,2 UV-I 525 W/m 11,8 C 16,2 C 20,9 km/h (4 Bft) 95,74 %
30.09.2017 14:50 18,8 C 13,3 C 66 % 1015,9 hPa 0,0 l/m 15,7 km/h (3 Bft) N-NO 24 2 min 0,000 mm 2,2 UV-I 525 W/m 12,3 C 15,6 C 22,5 km/h (4 Bft) 97,87 %
30.09.2017 14:52 18,8 C 13,3 C 65 % 1015,9 hPa 0,0 l/m 16,6 km/h (3 Bft) O-NO 74 2 min 0,000 mm 2,1 UV-I 521 W/m 12,1 C 15,4 C 20,9 km/h (4 Bft) 97,87 %
30.09.2017 14:54 18,8 C 13,3 C 65 % 1015,9 hPa 0,0 l/m 12,7 km/h (3 Bft) O-NO 69 2 min 0,000 mm 2,1 UV-I 516 W/m 12,1 C 16,4 C 19,3 km/h (3 Bft) 97,87 %
30.09.2017 14:56 18,8 C 13,3 C 65 % 1015,9 hPa 0,0 l/m 14,5 km/h (3 Bft) NO 43 2 min 0,000 mm 2,1 UV-I 514 W/m 12,1 C 15,9 C 19,3 km/h (3 Bft) 97,87 %
30.09.2017 14:58 18,9 C 13,3 C 64 % 1015,9 hPa 0,0 l/m 13,3 km/h (3 Bft) NO 42 2 min 0,000 mm 2,1 UV-I 511 W/m 11,9 C 16,4 C 22,5 km/h (4 Bft) 97,87 %
30.09.2017 15:00 18,9 C 13,3 C 63 % 1015,9 hPa 0,0 l/m 17,6 km/h (3 Bft) O-NO 65 2 min 0,381 mm 2,0 UV-I 506 W/m 11,7 C 15,3 C 25,7 km/h (4 Bft) 97,87 %
30.09.2017 15:02 18,9 C 13,3 C 64 % 1015,8 hPa 0,0 l/m 10,7 km/h (2 Bft) N-NO 31 2 min 0,000 mm 2,0 UV-I 499 W/m 11,9 C 17,2 C 22,5 km/h (4 Bft) 93,62 %
30.09.2017 15:04 18,9 C 13,3 C 65 % 1015,8 hPa 0,0 l/m 18,9 km/h (3 Bft) NO 45 2 min 0,000 mm 2,0 UV-I 497 W/m 12,2 C 15,0 C 27,4 km/h (4 Bft) 95,74 %
30.09.2017 15:06 18,9 C 13,3 C 64 % 1015,8 hPa 0,0 l/m 19,3 km/h (3 Bft) O-NO 66 2 min 0,000 mm 1,9 UV-I 490 W/m 11,9 C 14,9 C 24,1 km/h (4 Bft) 97,87 %
30.09.2017 15:08 18,9 C 13,3 C 64 % 1015,8 hPa 0,0 l/m 15,1 km/h (3 Bft) NO 53 2 min 0,000 mm 1,9 UV-I 489 W/m 11,9 C 15,9 C 22,5 km/h (4 Bft) 95,83 %
30.09.2017 15:10 18,9 C 13,3 C 63 % 1015,8 hPa 0,0 l/m 16,8 km/h (3 Bft) O-NO 69 2 min 0,000 mm 1,9 UV-I 484 W/m 11,7 C 15,5 C 25,7 km/h (4 Bft) 100,00 %
30.09.2017 15:12 18,9 C 13,3 C 63 % 1015,8 hPa 0,0 l/m 18,8 km/h (3 Bft) NO 53 2 min 0,000 mm 1,9 UV-I 481 W/m 11,7 C 15,0 C 25,7 km/h (4 Bft) 96,00 %
30.09.2017 15:14 18,9 C 13,3 C 64 % 1015,8 hPa 0,0 l/m 14,0 km/h (3 Bft) NO 56 2 min 0,000 mm 1,8 UV-I 476 W/m 11,9 C 16,2 C 22,5 km/h (4 Bft) 97,87 %
30.09.2017 15:16 19,0 C 13,3 C 63 % 1015,7 hPa 0,0 l/m 14,5 km/h (3 Bft) O-NO 64 2 min 0,000 mm 1,8 UV-I 473 W/m 11,8 C 16,2 C 22,5 km/h (4 Bft) 98,00 %
30.09.2017 15:18 19,1 C 13,3 C 65 % 1015,7 hPa 0,0 l/m 16,3 km/h (3 Bft) O-NO 61 2 min 0,000 mm 1,8 UV-I 470 W/m 12,4 C 15,8 C 22,5 km/h (4 Bft) 100,00 %
30.09.2017 15:20 19,1 C 13,3 C 63 % 1015,7 hPa 0,0 l/m 18,0 km/h (3 Bft) NO 51 2 min 0,000 mm 1,7 UV-I 466 W/m 11,9 C 15,5 C 24,1 km/h (4 Bft) 100,00 %
30.09.2017 15:22 19,2 C 13,3 C 64 % 1015,7 hPa 0,0 l/m 13,5 km/h (3 Bft) O-NO 61 2 min 0,000 mm 1,7 UV-I 462 W/m 12,2 C 16,7 C 19,3 km/h (3 Bft) 100,00 %
30.09.2017 15:24 19,2 C 13,3 C 65 % 1015,7 hPa 0,0 l/m 13,7 km/h (3 Bft) NO 40 2 min 0,000 mm 1,7 UV-I 460 W/m 12,5 C 16,6 C 22,5 km/h (4 Bft) 100,00 %
30.09.2017 15:26 19,2 C 13,3 C 63 % 1015,6 hPa 0,0 l/m 17,7 km/h (3 Bft) NO 43 2 min 0,000 mm 1,6 UV-I 454 W/m 12,0 C 15,6 C 27,4 km/h (4 Bft) 100,00 %
30.09.2017 15:28 19,2 C 13,3 C 63 % 1015,7 hPa 0,0 l/m 18,3 km/h (3 Bft) O-NO 76 2 min 0,000 mm 1,6 UV-I 450 W/m 12,0 C 15,5 C 25,7 km/h (4 Bft) 100,00 %
30.09.2017 15:30 19,2 C 13,3 C 64 % 1015,6 hPa 0,0 l/m 18,6 km/h (3 Bft) NO 44 2 min 0,000 mm 1,6 UV-I 444 W/m 12,2 C 15,5 C 25,7 km/h (4 Bft) 100,00 %
30.09.2017 15:32 19,2 C 13,3 C 62 % 1015,6 hPa 0,0 l/m 14,6 km/h (3 Bft) O-NO 65 2 min 0,000 mm 1,5 UV-I 439 W/m 11,7 C 16,4 C 20,9 km/h (4 Bft) 97,87 %
30.09.2017 15:34 19,2 C 13,3 C 62 % 1015,5 hPa 0,0 l/m 17,5 km/h (3 Bft) O-NO 60 2 min 0,000 mm 1,5 UV-I 436 W/m 11,7 C 15,7 C 22,5 km/h (4 Bft) 100,00 %
30.09.2017 15:36 19,2 C 13,3 C 62 % 1015,6 hPa 0,0 l/m 15,5 km/h (3 Bft) NO 46 2 min 0,000 mm 1,5 UV-I 431 W/m 11,7 C 16,2 C 24,1 km/h (4 Bft) 97,87 %
30.09.2017 15:38 19,2 C 13,3 C 63 % 1015,5 hPa 0,0 l/m 15,2 km/h (3 Bft) O-NO 63 2 min 0,000 mm 1,5 UV-I 425 W/m 12,0 C 16,2 C 19,3 km/h (3 Bft) 100,00 %
30.09.2017 15:40 19,2 C 13,3 C 63 % 1015,5 hPa 0,0 l/m 16,4 km/h (3 Bft) O-NO 71 2 min 0,000 mm 1,4 UV-I 422 W/m 12,0 C 15,9 C 25,7 km/h (4 Bft) 97,87 %
30.09.2017 15:42 19,2 C 13,3 C 63 % 1015,5 hPa 0,0 l/m 12,6 km/h (3 Bft) O-NO 69 2 min 0,000 mm 1,4 UV-I 417 W/m 12,0 C 16,9 C 19,3 km/h (3 Bft) 97,92 %
30.09.2017 15:44 19,2 C 13,3 C 63 % 1015,5 hPa 0,0 l/m 13,9 km/h (3 Bft) NO 49 2 min 0,000 mm 1,4 UV-I 413 W/m 12,0 C 16,6 C 19,3 km/h (3 Bft) 100,00 %
30.09.2017 15:46 19,2 C 13,3 C 64 % 1015,5 hPa 0,0 l/m 16,9 km/h (3 Bft) N-NO 28 2 min 0,000 mm 1,4 UV-I 407 W/m 12,2 C 15,8 C 22,5 km/h (4 Bft) 97,87 %
30.09.2017 15:48 19,2 C 13,3 C 64 % 1015,5 hPa 0,0 l/m 19,8 km/h (3 Bft) O-NO 63 2 min 0,000 mm 1,3 UV-I 402 W/m 12,2 C 15,2 C 30,6 km/h (5 Bft) 100,00 %
30.09.2017 15:50 19,2 C 13,3 C 62 % 1015,5 hPa 0,0 l/m 14,1 km/h (3 Bft) O-NO 59 2 min 0,000 mm 1,3 UV-I 398 W/m 11,7 C 16,5 C 24,1 km/h (4 Bft) 100,00 %
30.09.2017 15:52 19,2 C 13,3 C 62 % 1015,4 hPa 0,0 l/m 15,5 km/h (3 Bft) O-NO 61 2 min 0,000 mm 1,3 UV-I 396 W/m 11,7 C 16,2 C 22,5 km/h (4 Bft) 100,00 %
30.09.2017 15:54 19,3 C 13,3 C 61 % 1015,4 hPa 0,0 l/m 17,7 km/h (3 Bft) O-NO 61 2 min 0,000 mm 1,3 UV-I 390 W/m 11,6 C 15,8 C 27,4 km/h (4 Bft) 100,00 %
30.09.2017 15:56 19,3 C 13,3 C 61 % 1015,5 hPa 0,0 l/m 19,2 km/h (3 Bft) NO 51 2 min 0,000 mm 1,2 UV-I 386 W/m 11,6 C 15,5 C 24,1 km/h (4 Bft) 97,87 %
30.09.2017 15:58 19,2 C 13,3 C 61 % 1015,4 hPa 0,0 l/m 17,7 km/h (3 Bft) O-NO 68 2 min 0,000 mm 1,2 UV-I 381 W/m 11,5 C 15,6 C 25,7 km/h (4 Bft) 94,59 %
30.09.2017 16:00 19,2 C 13,3 C 62 % 1015,4 hPa 0,0 l/m 16,4 km/h (3 Bft) O-NO 64 2 min 0,330 mm 1,2 UV-I 376 W/m 11,7 C 15,9 C 24,1 km/h (4 Bft) 100,00 %
30.09.2017 16:02 19,2 C 13,3 C 62 % 1015,3 hPa 0,0 l/m 16,9 km/h (3 Bft) O-NO 61 2 min 0,000 mm 1,2 UV-I 371 W/m 11,7 C 15,8 C 22,5 km/h (4 Bft) 97,87 %
30.09.2017 16:04 19,2 C 13,3 C 63 % 1015,3 hPa 0,0 l/m 14,9 km/h (3 Bft) NO 34 2 min 0,000 mm 1,1 UV-I 367 W/m 12,0 C 16,3 C 24,1 km/h (4 Bft) 98,00 %
30.09.2017 16:06 19,2 C 13,3 C 63 % 1015,3 hPa 0,0 l/m 15,6 km/h (3 Bft) O-NO 74 2 min 0,000 mm 1,1 UV-I 362 W/m 12,0 C 16,1 C 22,5 km/h (4 Bft) 94,00 %
30.09.2017 16:08 19,2 C 13,3 C 62 % 1015,3 hPa 0,0 l/m 13,7 km/h (3 Bft) O-NO 58 2 min 0,000 mm 1,1 UV-I 355 W/m 11,7 C 16,6 C 19,3 km/h (3 Bft) 97,96 %
30.09.2017 16:10 19,2 C 13,3 C 62 % 1015,3 hPa 0,0 l/m 13,9 km/h (3 Bft) O-NO 58 2 min 0,000 mm 1,0 UV-I 351 W/m 11,7 C 16,6 C 17,7 km/h (3 Bft) 97,87 %
30.09.2017 16:12 19,3 C 13,3 C 62 % 1015,3 hPa 0,0 l/m 18,5 km/h (3 Bft) O-NO 76 2 min 0,000 mm 1,0 UV-I 345 W/m 11,8 C 15,6 C 25,7 km/h (4 Bft) 97,87 %
30.09.2017 16:14 19,2 C 13,3 C 61 % 1015,3 hPa 0,0 l/m 18,9 km/h (3 Bft) NO 55 2 min 0,000 mm 1,0 UV-I 340 W/m 11,5 C 15,4 C 27,4 km/h (4 Bft) 95,74 %
30.09.2017 16:16 19,2 C 13,3 C 61 % 1015,3 hPa 0,0 l/m 21,0 km/h (4 Bft) O 99 2 min 0,000 mm 1,0 UV-I 336 W/m 11,5 C 15,0 C 27,4 km/h (4 Bft) 97,87 %
30.09.2017 16:18 19,2 C 13,3 C 60 % 1015,3 hPa 0,0 l/m 18,0 km/h (3 Bft) NO 47 2 min 0,000 mm 0,9 UV-I 329 W/m 11,2 C 15,6 C 24,1 km/h (4 Bft) 95,00 %
30.09.2017 16:20 19,2 C 13,3 C 60 % 1015,3 hPa 0,0 l/m 15,5 km/h (3 Bft) O-NO 58 2 min 0,000 mm 0,9 UV-I 325 W/m 11,2 C 16,2 C 24,1 km/h (4 Bft) 97,92 %
30.09.2017 16:22 19,2 C 13,3 C 60 % 1015,3 hPa 0,0 l/m 18,6 km/h (3 Bft) N-NO 27 2 min 0,000 mm 0,9 UV-I 320 W/m 11,2 C 15,5 C 29,0 km/h (5 Bft) 92,31 %
30.09.2017 16:24 19,1 C 13,3 C 60 % 1015,3 hPa 0,0 l/m 17,8 km/h (3 Bft) O-NO 65 2 min 0,000 mm 0,9 UV-I 314 W/m 11,1 C 15,5 C 25,7 km/h (4 Bft) 97,92 %
30.09.2017 16:26 19,1 C 13,3 C 60 % 1015,3 hPa 0,0 l/m 20,0 km/h (4 Bft) NO 39 2 min 0,000 mm 0,8 UV-I 308 W/m 11,1 C 15,0 C 25,7 km/h (4 Bft) 95,74 %
30.09.2017 16:28 19,1 C 13,3 C 60 % 1015,3 hPa 0,0 l/m 18,5 km/h (3 Bft) O-NO 65 2 min 0,000 mm 0,8 UV-I 303 W/m 11,1 C 15,3 C 24,1 km/h (4 Bft) 97,87 %
30.09.2017 16:30 19,1 C 13,3 C 61 % 1015,3 hPa 0,0 l/m 13,7 km/h (3 Bft) O-NO 57 2 min 0,000 mm 0,8 UV-I 298 W/m 11,4 C 16,5 C 20,9 km/h (4 Bft) 97,87 %
30.09.2017 16:32 19,1 C 13,3 C 61 % 1015,3 hPa 0,0 l/m 17,5 km/h (3 Bft) O-NO 61 2 min 0,000 mm 0,8 UV-I 294 W/m 11,4 C 15,6 C 25,7 km/h (4 Bft) 97,14 %
30.09.2017 16:34 19,1 C 13,3 C 61 % 1015,3 hPa 0,0 l/m 15,8 km/h (3 Bft) NO 53 2 min 0,000 mm 0,7 UV-I 289 W/m 11,4 C 16,0 C 24,1 km/h (4 Bft) 95,74 %
30.09.2017 16:36 19,1 C 13,3 C 61 % 1015,2 hPa 0,0 l/m 15,1 km/h (3 Bft) O 89 2 min 0,000 mm 0,7 UV-I 285 W/m 11,4 C 16,1 C 20,9 km/h (4 Bft) 100,00 %
30.09.2017 16:38 19,1 C 13,3 C 62 % 1015,2 hPa 0,0 l/m 14,9 km/h (3 Bft) O 82 2 min 0,000 mm 0,7 UV-I 279 W/m 11,6 C 16,2 C 19,3 km/h (3 Bft) 100,00 %
30.09.2017 16:40 19,1 C 13,3 C 63 % 1015,2 hPa 0,0 l/m 14,0 km/h (3 Bft) O-NO 63 2 min 0,000 mm 0,7 UV-I 274 W/m 11,9 C 16,4 C 19,3 km/h (3 Bft) 100,00 %
30.09.2017 16:42 19,1 C 13,3 C 62 % 1015,2 hPa 0,0 l/m 14,2 km/h (3 Bft) NO 34 2 min 0,000 mm 0,7 UV-I 268 W/m 11,6 C 16,4 C 20,9 km/h (4 Bft) 100,00 %
30.09.2017 16:44 19,1 C 13,3 C 63 % 1015,2 hPa 0,0 l/m 15,4 km/h (3 Bft) NO 51 2 min 0,000 mm 0,6 UV-I 263 W/m 11,9 C 16,1 C 22,5 km/h (4 Bft) 97,87 %
30.09.2017 16:46 19,0 C 13,3 C 64 % 1015,2 hPa 0,0 l/m 11,9 km/h (2 Bft) NO 51 2 min 0,000 mm 0,6 UV-I 257 W/m 12,0 C 16,9 C 20,9 km/h (4 Bft) 100,00 %
30.09.2017 16:48 19,0 C 13,3 C 62 % 1015,2 hPa 0,0 l/m 16,8 km/h (3 Bft) O-NO 72 2 min 0,000 mm 0,6 UV-I 251 W/m 11,6 C 15,6 C 22,5 km/h (4 Bft) 100,00 %
30.09.2017 16:50 18,9 C 13,3 C 62 % 1015,2 hPa 0,0 l/m 13,7 km/h (3 Bft) O-NO 59 2 min 0,000 mm 0,6 UV-I 246 W/m 11,5 C 16,3 C 19,3 km/h (3 Bft) 97,87 %
30.09.2017 16:52 18,9 C 13,3 C 62 % 1015,2 hPa 0,0 l/m 11,8 km/h (2 Bft) N-NO 26 2 min 0,000 mm 0,5 UV-I 241 W/m 11,5 C 16,8 C 17,7 km/h (3 Bft) 100,00 %
30.09.2017 16:54 18,8 C 13,3 C 62 % 1015,2 hPa 0,0 l/m 13,4 km/h (3 Bft) O-NO 69 2 min 0,000 mm 0,5 UV-I 235 W/m 11,4 C 16,2 C 20,9 km/h (4 Bft) 100,00 %
30.09.2017 16:56 18,8 C 13,3 C 63 % 1015,2 hPa 0,0 l/m 11,4 km/h (2 Bft) O-NO 67 2 min 0,000 mm 0,5 UV-I 230 W/m 11,6 C 16,8 C 19,3 km/h (3 Bft) 97,87 %
30.09.2017 16:58 18,8 C 13,3 C 63 % 1015,2 hPa 0,0 l/m 13,5 km/h (3 Bft) O-NO 59 2 min 0,000 mm 0,5 UV-I 224 W/m 11,6 C 16,2 C 17,7 km/h (3 Bft) 100,00 %
30.09.2017 17:00 18,7 C 13,3 C 63 % 1015,2 hPa 0,0 l/m 15,0 km/h (3 Bft) NO 42 2 min 0,000 mm 0,5 UV-I 218 W/m 11,5 C 15,7 C 22,5 km/h (4 Bft) 100,00 %
30.09.2017 17:02 18,7 C 13,3 C 63 % 1015,1 hPa 0,0 l/m 16,4 km/h (3 Bft) O-NO 57 2 min 0,254 mm 0,3 UV-I 214 W/m 11,5 C 15,3 C 22,5 km/h (4 Bft) 100,00 %
30.09.2017 17:04 18,6 C 13,3 C 63 % 1015,2 hPa 0,0 l/m 16,8 km/h (3 Bft) N-NO 33 2 min 0,000 mm 0,0 UV-I 211 W/m 11,4 C 15,1 C 25,7 km/h (4 Bft) 97,22 %
30.09.2017 17:06 18,6 C 13,3 C 63 % 1015,1 hPa 0,0 l/m 10,0 km/h (2 Bft) NO 45 2 min 0,000 mm 0,0 UV-I 204 W/m 11,4 C 17,1 C 19,3 km/h (3 Bft) 100,00 %
30.09.2017 17:08 18,6 C 13,3 C 63 % 1015,1 hPa 0,0 l/m 16,4 km/h (3 Bft) O-NO 67 2 min 0,000 mm 0,0 UV-I 200 W/m 11,4 C 15,2 C 22,5 km/h (4 Bft) 100,00 %
30.09.2017 17:10 18,5 C 13,3 C 63 % 1015,2 hPa 0,0 l/m 15,5 km/h (3 Bft) NO 41 2 min 0,000 mm 0,0 UV-I 194 W/m 11,3 C 15,3 C 20,9 km/h (4 Bft) 100,00 %
30.09.2017 17:12 18,5 C 13,3 C 64 % 1015,2 hPa 0,0 l/m 12,6 km/h (3 Bft) NO 49 2 min 0,000 mm 0,0 UV-I 189 W/m 11,6 C 16,1 C 20,9 km/h (4 Bft) 97,87 %
30.09.2017 17:14 18,5 C 13,3 C 63 % 1015,1 hPa 0,0 l/m 13,9 km/h (3 Bft) O 89 2 min 0,000 mm 0,0 UV-I 184 W/m 11,3 C 15,7 C 20,9 km/h (4 Bft) 100,00 %
30.09.2017 17:16 18,5 C 13,3 C 63 % 1015,1 hPa 0,0 l/m 19,9 km/h (4 Bft) NO 44 2 min 0,000 mm 0,0 UV-I 179 W/m 11,3 C 14,3 C 25,7 km/h (4 Bft) 100,00 %
30.09.2017 17:18 18,5 C 13,3 C 63 % 1015,1 hPa 0,0 l/m 14,3 km/h (3 Bft) O-NO 70 2 min 0,000 mm 0,0 UV-I 174 W/m 11,3 C 15,6 C 20,9 km/h (4 Bft) 100,00 %
30.09.2017 17:20 18,4 C 13,3 C 64 % 1015,1 hPa 0,0 l/m 13,6 km/h (3 Bft) O-NO 60 2 min 0,000 mm 0,0 UV-I 169 W/m 11,5 C 15,7 C 20,9 km/h (4 Bft) 94,29 %
30.09.2017 17:22 18,4 C 13,3 C 64 % 1015,1 hPa 0,0 l/m 12,4 km/h (3 Bft) NO 51 2 min 0,000 mm 0,0 UV-I 163 W/m 11,5 C 16,1 C 19,3 km/h (3 Bft) 100,00 %
30.09.2017 17:24 18,3 C 13,3 C 63 % 1015,1 hPa 0,0 l/m 17,4 km/h (3 Bft) O 88 2 min 0,000 mm 0,0 UV-I 158 W/m 11,1 C 14,6 C 27,4 km/h (4 Bft) 100,00 %
30.09.2017 17:26 18,3 C 13,3 C 63 % 1015,1 hPa 0,0 l/m 12,5 km/h (3 Bft) O-NO 59 2 min 0,000 mm 0,0 UV-I 153 W/m 11,1 C 15,9 C 19,3 km/h (3 Bft) 98,00 %
30.09.2017 17:28 18,3 C 13,3 C 64 % 1015,1 hPa 0,0 l/m 12,4 km/h (3 Bft) NO 55 2 min 0,000 mm 0,0 UV-I 148 W/m 11,4 C 15,9 C 20,9 km/h (4 Bft) 100,00 %
30.09.2017 17:30 18,2 C 13,3 C 64 % 1015,1 hPa 0,0 l/m 13,2 km/h (3 Bft) NO 56 2 min 0,000 mm 0,0 UV-I 143 W/m 11,3 C 15,6 C 22,5 km/h (4 Bft) 100,00 %
30.09.2017 17:32 18,2 C 13,3 C 64 % 1015,1 hPa 0,0 l/m 12,8 km/h (3 Bft) O-NO 78 2 min 0,000 mm 0,0 UV-I 138 W/m 11,3 C 15,7 C 19,3 km/h (3 Bft) 100,00 %
30.09.2017 17:34 18,2 C 13,3 C 64 % 1015,1 hPa 0,0 l/m 11,9 km/h (2 Bft) NO 41 2 min 0,000 mm 0,0 UV-I 133 W/m 11,3 C 16,0 C 17,7 km/h (3 Bft) 98,08 %
30.09.2017 17:36 18,1 C 13,3 C 64 % 1015,1 hPa 0,0 l/m 9,4 km/h (2 Bft) O-NO 69 2 min 0,000 mm 0,0 UV-I 128 W/m 11,2 C 16,8 C 16,1 km/h (3 Bft) 97,92 %
30.09.2017 17:38 18,1 C 13,3 C 64 % 1015,1 hPa 0,0 l/m 13,8 km/h (3 Bft) NO 45 2 min 0,000 mm 0,0 UV-I 124 W/m 11,2 C 15,3 C 22,5 km/h (4 Bft) 100,00 %
30.09.2017 17:40 18,1 C 13,3 C 64 % 1015,1 hPa 0,0 l/m 12,5 km/h (3 Bft) O-NO 60 2 min 0,000 mm 0,0 UV-I 118 W/m 11,2 C 15,7 C 22,5 km/h (4 Bft) 100,00 %
30.09.2017 17:42 18,0 C 13,3 C 63 % 1015,1 hPa 0,0 l/m 18,2 km/h (3 Bft) O-NO 61 2 min 0,000 mm 0,0 UV-I 114 W/m 10,8 C 14,0 C 27,4 km/h (4 Bft) 100,00 %
30.09.2017 17:44 18,0 C 13,3 C 64 % 1015,1 hPa 0,0 l/m 13,2 km/h (3 Bft) NO 41 2 min 0,000 mm 0,0 UV-I 110 W/m 11,1 C 15,3 C 19,3 km/h (3 Bft) 100,00 %
30.09.2017 17:46 17,9 C 13,3 C 64 % 1015,1 hPa 0,0 l/m 13,1 km/h (3 Bft) O-NO 63 2 min 0,000 mm 0,0 UV-I 106 W/m 11,0 C 15,3 C 17,7 km/h (3 Bft) 97,87 %
30.09.2017 17:48 17,9 C 13,3 C 63 % 1015,1 hPa 0,0 l/m 14,9 km/h (3 Bft) NO 52 2 min 0,000 mm 0,0 UV-I 101 W/m 10,8 C 14,7 C 22,5 km/h (4 Bft) 100,00 %
30.09.2017 17:50 17,9 C 13,3 C 63 % 1015,1 hPa 0,0 l/m 15,3 km/h (3 Bft) O-NO 58 2 min 0,000 mm 0,0 UV-I 96 W/m 10,8 C 14,6 C 22,5 km/h (4 Bft) 98,00 %
30.09.2017 17:52 17,9 C 13,3 C 63 % 1015,1 hPa 0,0 l/m 15,6 km/h (3 Bft) O-NO 76 2 min 0,000 mm 0,0 UV-I 92 W/m 10,8 C 14,5 C 25,7 km/h (4 Bft) 100,00 %
30.09.2017 17:54 17,9 C 13,3 C 62 % 1015,1 hPa 0,0 l/m 18,2 km/h (3 Bft) O-NO 57 2 min 0,000 mm 0,0 UV-I 88 W/m 10,5 C 13,9 C 25,7 km/h (4 Bft) 97,87 %
30.09.2017 17:56 17,8 C 13,3 C 62 % 1015,1 hPa 0,0 l/m 20,7 km/h (4 Bft) O-NO 78 2 min 0,000 mm 0,0 UV-I 83 W/m 10,4 C 13,2 C 25,7 km/h (4 Bft) 97,87 %
30.09.2017 17:58 17,8 C 13,3 C 62 % 1015,1 hPa 0,0 l/m 16,5 km/h (3 Bft) NO 47 2 min 0,000 mm 0,0 UV-I 79 W/m 10,4 C 14,2 C 24,1 km/h (4 Bft) 100,00 %
30.09.2017 18:00 17,8 C 13,3 C 62 % 1015,2 hPa 0,0 l/m 16,6 km/h (3 Bft) O-NO 74 2 min 0,153 mm 0,0 UV-I 74 W/m 10,4 C 14,2 C 24,1 km/h (4 Bft) 100,00 %
30.09.2017 18:02 17,7 C 13,3 C 62 % 1015,2 hPa 0,0 l/m 15,8 km/h (3 Bft) O-NO 74 2 min 0,000 mm 0,0 UV-I 68 W/m 10,3 C 14,2 C 22,5 km/h (4 Bft) 100,00 %
30.09.2017 18:04 17,7 C 13,3 C 62 % 1015,2 hPa 0,0 l/m 18,0 km/h (3 Bft) O-NO 74 2 min 0,000 mm 0,0 UV-I 63 W/m 10,3 C 13,7 C 25,7 km/h (4 Bft) 98,00 %
30.09.2017 18:06 17,7 C 13,3 C 62 % 1015,2 hPa 0,0 l/m 12,7 km/h (3 Bft) O-NO 57 2 min 0,000 mm 0,0 UV-I 58 W/m 10,3 C 15,2 C 19,3 km/h (3 Bft) 93,62 %
30.09.2017 18:08 17,6 C 13,3 C 63 % 1015,2 hPa 0,0 l/m 9,3 km/h (2 Bft) NO 43 2 min 0,000 mm 0,0 UV-I 51 W/m 10,5 C 16,3 C 17,7 km/h (3 Bft) 94,00 %
30.09.2017 18:10 17,4 C 13,3 C 64 % 1015,2 hPa 0,0 l/m 9,2 km/h (2 Bft) O-NO 72 0 min 0,000 mm 0,0 UV-I 45 W/m 10,5 C 16,1 C 14,5 km/h (3 Bft) 93,62 %
30.09.2017 18:12 17,2 C 13,3 C 64 % 1015,1 hPa 0,0 l/m 12,1 km/h (2 Bft) NO 55 0 min 0,000 mm 0,0 UV-I 40 W/m 10,3 C 14,8 C 17,7 km/h (3 Bft) 97,87 %
30.09.2017 18:14 17,1 C 13,3 C 64 % 1015,2 hPa 0,0 l/m 13,5 km/h (3 Bft) O-NO 63 0 min 0,000 mm 0,0 UV-I 32 W/m 10,2 C 14,2 C 20,9 km/h (4 Bft) 97,87 %
30.09.2017 18:16 17,1 C 13,3 C 64 % 1015,2 hPa 0,0 l/m 11,8 km/h (2 Bft) O-NO 78 0 min 0,000 mm 0,0 UV-I 29 W/m 10,2 C 14,8 C 19,3 km/h (3 Bft) 97,87 %
30.09.2017 18:18 17,1 C 13,3 C 64 % 1015,2 hPa 0,0 l/m 15,7 km/h (3 Bft) O-NO 78 0 min 0,000 mm 0,0 UV-I 27 W/m 10,2 C 13,5 C 25,7 km/h (4 Bft) 93,62 %
30.09.2017 18:20 17,1 C 13,3 C 63 % 1015,1 hPa 0,0 l/m 19,0 km/h (3 Bft) O-NO 65 0 min 0,000 mm 0,0 UV-I 24 W/m 10,0 C 12,7 C 27,4 km/h (4 Bft) 97,37 %
30.09.2017 18:22 17,1 C 13,3 C 63 % 1015,2 hPa 0,0 l/m 16,8 km/h (3 Bft) O-NO 63 0 min 0,000 mm 0,0 UV-I 22 W/m 10,0 C 13,2 C 24,1 km/h (4 Bft) 95,74 %
30.09.2017 18:24 17,1 C 13,3 C 62 % 1015,2 hPa 0,0 l/m 16,0 km/h (3 Bft) NO 47 0 min 0,000 mm 0,0 UV-I 20 W/m 9,8 C 13,5 C 22,5 km/h (4 Bft) 95,74 %
30.09.2017 18:26 16,9 C 13,3 C 63 % 1015,2 hPa 0,0 l/m 14,8 km/h (3 Bft) O-NO 71 0 min 0,000 mm 0,0 UV-I 17 W/m 9,8 C 13,6 C 24,1 km/h (4 Bft) 95,74 %
30.09.2017 18:28 16,8 C 13,3 C 63 % 1015,2 hPa 0,0 l/m 14,7 km/h (3 Bft) O-NO 59 0 min 0,000 mm 0,0 UV-I 15 W/m 9,7 C 13,5 C 20,9 km/h (4 Bft) 97,87 %
30.09.2017 18:30 16,8 C 13,3 C 63 % 1015,2 hPa 0,0 l/m 12,6 km/h (3 Bft) O-NO 70 0 min 0,000 mm 0,0 UV-I 14 W/m 9,7 C 14,1 C 20,9 km/h (4 Bft) 93,62 %
30.09.2017 18:32 16,7 C 13,3 C 63 % 1015,2 hPa 0,0 l/m 14,0 km/h (3 Bft) O-NO 58 2 min 0,000 mm 0,0 UV-I 13 W/m 9,6 C 13,6 C 24,1 km/h (4 Bft) 97,87 %
30.09.2017 18:34 16,7 C 13,3 C 62 % 1015,2 hPa 0,0 l/m 17,9 km/h (3 Bft) O-NO 67 2 min 0,000 mm 0,0 UV-I 12 W/m 9,4 C 12,5 C 24,1 km/h (4 Bft) 95,74 %
30.09.2017 18:36 16,7 C 13,3 C 62 % 1015,1 hPa 0,0 l/m 17,9 km/h (3 Bft) O-NO 61 0 min 0,000 mm 0,0 UV-I 11 W/m 9,4 C 12,5 C 24,1 km/h (4 Bft) 95,74 %
30.09.2017 18:38 16,7 C 13,3 C 61 % 1015,1 hPa 0,0 l/m 21,4 km/h (4 Bft) O-NO 74 0 min 0,000 mm 0,0 UV-I 11 W/m 9,1 C 11,6 C 30,6 km/h (5 Bft) 95,74 %
30.09.2017 18:40 16,7 C 13,3 C 61 % 1015,1 hPa 0,0 l/m 19,0 km/h (3 Bft) O 80 0 min 0,000 mm 0,0 UV-I 9 W/m 9,1 C 12,2 C 25,7 km/h (4 Bft) 100,00 %
30.09.2017 18:42 16,6 C 13,3 C 61 % 1015,1 hPa 0,0 l/m 21,1 km/h (4 Bft) O-NO 66 0 min 0,000 mm 0,0 UV-I 9 W/m 9,0 C 11,6 C 29,0 km/h (5 Bft) 100,00 %
30.09.2017 18:44 16,6 C 13,3 C 61 % 1015,2 hPa 0,0 l/m 18,7 km/h (3 Bft) O 79 0 min 0,000 mm 0,0 UV-I 8 W/m 9,0 C 12,1 C 29,0 km/h (5 Bft) 97,87 %
30.09.2017 18:46 16,6 C 13,3 C 61 % 1015,2 hPa 0,0 l/m 18,9 km/h (3 Bft) O-NO 75 0 min 0,000 mm 0,0 UV-I 7 W/m 9,0 C 12,1 C 27,4 km/h (4 Bft) 95,74 %
30.09.2017 18:48 16,6 C 13,3 C 61 % 1015,2 hPa 0,0 l/m 17,7 km/h (3 Bft) O-NO 61 0 min 0,000 mm 0,0 UV-I 7 W/m 9,0 C 12,4 C 24,1 km/h (4 Bft) 95,74 %
30.09.2017 18:50 16,4 C 13,3 C 61 % 1015,2 hPa 0,0 l/m 16,2 km/h (3 Bft) O-NO 65 0 min 0,000 mm 0,0 UV-I 5 W/m 8,9 C 12,5 C 24,1 km/h (4 Bft) 97,87 %
30.09.2017 18:52 16,4 C 13,3 C 62 % 1015,2 hPa 0,0 l/m 16,7 km/h (3 Bft) O-NO 67 0 min 0,000 mm 0,0 UV-I 5 W/m 9,1 C 12,4 C 24,1 km/h (4 Bft) 97,56 %
30.09.2017 18:54 16,3 C 13,9 C 62 % 1015,2 hPa 0,0 l/m 15,0 km/h (3 Bft) NO 54 0 min 0,000 mm 0,0 UV-I 5 W/m 9,0 C 12,8 C 22,5 km/h (4 Bft) 97,92 %
30.09.2017 18:56 16,2 C 13,3 C 63 % 1015,1 hPa 0,0 l/m 16,0 km/h (3 Bft) NO 43 0 min 0,000 mm 0,0 UV-I 4 W/m 9,1 C 12,3 C 24,1 km/h (4 Bft) 97,87 %
30.09.2017 18:58 16,1 C 13,3 C 63 % 1015,2 hPa 0,0 l/m 17,4 km/h (3 Bft) NO 50 0 min 0,000 mm 0,0 UV-I 0 W/m 9,1 C 11,8 C 24,1 km/h (4 Bft) 97,87 %
30.09.2017 19:00 16,1 C 13,3 C 63 % 1015,2 hPa 0,0 l/m 17,3 km/h (3 Bft) O 84 0 min 0,101 mm 0,0 UV-I 0 W/m 9,1 C 11,9 C 25,7 km/h (4 Bft) 97,87 %
30.09.2017 19:02 16,1 C 13,3 C 63 % 1015,2 hPa 0,0 l/m 17,9 km/h (3 Bft) O-NO 70 0 min 0,000 mm 0,0 UV-I 0 W/m 9,1 C 11,7 C 25,7 km/h (4 Bft) 94,00 %
30.09.2017 19:04 16,0 C 13,3 C 63 % 1015,2 hPa 0,0 l/m 18,0 km/h (3 Bft) N-NO 28 0 min 0,000 mm 0,0 UV-I 0 W/m 9,0 C 11,5 C 27,4 km/h (4 Bft) 97,87 %
30.09.2017 19:06 15,9 C 13,3 C 63 % 1015,2 hPa 0,0 l/m 19,9 km/h (4 Bft) O-NO 70 0 min 0,000 mm 0,0 UV-I 0 W/m 8,9 C 10,9 C 30,6 km/h (5 Bft) 93,62 %
30.09.2017 19:08 15,9 C 13,3 C 62 % 1015,2 hPa 0,0 l/m 20,4 km/h (4 Bft) O-NO 73 0 min 0,000 mm 0,0 UV-I 0 W/m 8,6 C 10,8 C 29,0 km/h (5 Bft) 97,87 %
30.09.2017 19:10 15,9 C 13,3 C 62 % 1015,2 hPa 0,0 l/m 20,2 km/h (4 Bft) NO 51 0 min 0,000 mm 0,0 UV-I 0 W/m 8,6 C 10,9 C 29,0 km/h (5 Bft) 96,00 %
30.09.2017 19:12 15,8 C 13,3 C 62 % 1015,2 hPa 0,0 l/m 17,5 km/h (3 Bft) O-NO 62 0 min 0,000 mm 0,0 UV-I 0 W/m 8,5 C 11,4 C 25,7 km/h (4 Bft) 95,74 %
30.09.2017 19:14 15,8 C 13,3 C 62 % 1015,2 hPa 0,0 l/m 19,4 km/h (3 Bft) O-NO 62 0 min 0,000 mm 0,0 UV-I 0 W/m 8,5 C 10,9 C 27,4 km/h (4 Bft) 97,37 %
30.09.2017 19:16 15,8 C 13,9 C 61 % 1015,2 hPa 0,0 l/m 21,1 km/h (4 Bft) O-NO 64 0 min 0,000 mm 0,0 UV-I 0 W/m 8,3 C 10,5 C 25,7 km/h (4 Bft) 93,62 %
30.09.2017 19:18 15,8 C 13,3 C 62 % 1015,2 hPa 0,0 l/m 19,4 km/h (3 Bft) O-NO 59 0 min 0,000 mm 0,0 UV-I 0 W/m 8,5 C 10,9 C 25,7 km/h (4 Bft) 97,87 %
30.09.2017 19:20 15,8 C 13,3 C 61 % 1015,2 hPa 0,0 l/m 19,1 km/h (3 Bft) O-NO 64 0 min 0,000 mm 0,0 UV-I 0 W/m 8,3 C 11,0 C 29,0 km/h (5 Bft) 97,87 %
30.09.2017 19:22 15,7 C 13,3 C 61 % 1015,2 hPa 0,0 l/m 18,0 km/h (3 Bft) O-NO 76 0 min 0,000 mm 0,0 UV-I 0 W/m 8,2 C 11,2 C 24,1 km/h (4 Bft) 98,00 %
30.09.2017 19:24 15,6 C 13,3 C 62 % 1015,2 hPa 0,0 l/m 20,2 km/h (4 Bft) NO 45 0 min 0,000 mm 0,0 UV-I 0 W/m 8,3 C 10,5 C 30,6 km/h (5 Bft) 95,92 %
30.09.2017 19:26 15,6 C 13,3 C 62 % 1015,2 hPa 0,0 l/m 18,0 km/h (3 Bft) O-NO 59 0 min 0,000 mm 0,0 UV-I 0 W/m 8,3 C 11,0 C 25,7 km/h (4 Bft) 95,74 %
30.09.2017 19:28 15,6 C 13,9 C 62 % 1015,2 hPa 0,0 l/m 17,8 km/h (3 Bft) O-NO 66 0 min 0,000 mm 0,0 UV-I 0 W/m 8,3 C 11,1 C 27,4 km/h (4 Bft) 91,49 %
30.09.2017 19:30 15,4 C 13,3 C 62 % 1015,3 hPa 0,0 l/m 17,2 km/h (3 Bft) NO 52 0 min 0,000 mm 0,0 UV-I 0 W/m 8,2 C 11,0 C 24,1 km/h (4 Bft) 97,87 %
30.09.2017 19:32 15,4 C 13,9 C 62 % 1015,3 hPa 0,0 l/m 17,1 km/h (3 Bft) NO 46 0 min 0,000 mm 0,0 UV-I 0 W/m 8,2 C 11,0 C 24,1 km/h (4 Bft) 95,74 %
30.09.2017 19:34 15,4 C 13,3 C 62 % 1015,3 hPa 0,0 l/m 17,5 km/h (3 Bft) O-NO 58 0 min 0,000 mm 0,0 UV-I 0 W/m 8,2 C 10,9 C 24,1 km/h (4 Bft) 95,74 %
30.09.2017 19:36 15,3 C 13,9 C 62 % 1015,3 hPa 0,0 l/m 15,5 km/h (3 Bft) O-NO 74 0 min 0,000 mm 0,0 UV-I 0 W/m 8,1 C 11,4 C 24,1 km/h (4 Bft) 97,87 %
30.09.2017 19:38 15,3 C 13,3 C 63 % 1015,3 hPa 0,0 l/m 14,8 km/h (3 Bft) O-NO 64 0 min 0,000 mm 0,0 UV-I 0 W/m 8,3 C 11,6 C 22,5 km/h (4 Bft) 97,92 %
30.09.2017 19:40 15,2 C 13,3 C 63 % 1015,3 hPa 0,0 l/m 17,9 km/h (3 Bft) O-NO 63 0 min 0,000 mm 0,0 UV-I 0 W/m 8,2 C 10,6 C 25,7 km/h (4 Bft) 97,87 %
30.09.2017 19:42 15,2 C 13,3 C 63 % 1015,2 hPa 0,0 l/m 17,2 km/h (3 Bft) NO 48 0 min 0,000 mm 0,0 UV-I 0 W/m 8,2 C 10,8 C 24,1 km/h (4 Bft) 95,74 %
30.09.2017 19:44 15,1 C 13,3 C 63 % 1015,2 hPa 0,0 l/m 18,5 km/h (3 Bft) O 94 0 min 0,000 mm 0,0 UV-I 0 W/m 8,1 C 10,3 C 25,7 km/h (4 Bft) 97,37 %
30.09.2017 19:46 15,1 C 13,3 C 63 % 1015,2 hPa 0,0 l/m 15,1 km/h (3 Bft) O 79 0 min 0,000 mm 0,0 UV-I 0 W/m 8,1 C 11,3 C 20,9 km/h (4 Bft) 98,00 %
30.09.2017 19:48 15,0 C 13,3 C 63 % 1015,2 hPa 0,0 l/m 16,9 km/h (3 Bft) O-NO 57 0 min 0,000 mm 0,0 UV-I 0 W/m 8,0 C 10,6 C 24,1 km/h (4 Bft) 97,87 %
30.09.2017 19:50 14,9 C 13,9 C 64 % 1015,3 hPa 0,0 l/m 16,3 km/h (3 Bft) NO 40 0 min 0,000 mm 0,0 UV-I 0 W/m 8,2 C 10,7 C 24,1 km/h (4 Bft) 97,87 %
30.09.2017 19:52 14,8 C 13,9 C 63 % 1015,3 hPa 0,0 l/m 16,4 km/h (3 Bft) O 86 0 min 0,000 mm 0,0 UV-I 0 W/m 7,8 C 10,5 C 25,7 km/h (4 Bft) 95,74 %
30.09.2017 19:54 14,8 C 13,3 C 63 % 1015,3 hPa 0,0 l/m 17,4 km/h (3 Bft) O-NO 71 0 min 0,000 mm 0,0 UV-I 0 W/m 7,8 C 10,2 C 22,5 km/h (4 Bft) 96,00 %
30.09.2017 19:56 14,8 C 13,9 C 64 % 1015,3 hPa 0,0 l/m 16,2 km/h (3 Bft) O-NO 60 0 min 0,000 mm 0,0 UV-I 0 W/m 8,1 C 10,6 C 24,1 km/h (4 Bft) 100,00 %
30.09.2017 19:58 14,8 C 13,9 C 63 % 1015,3 hPa 0,0 l/m 19,1 km/h (3 Bft) O-NO 77 0 min 0,000 mm 0,0 UV-I 0 W/m 7,8 C 9,7 C 27,4 km/h (4 Bft) 96,00 %
30.09.2017 20:00 14,8 C 13,9 C 63 % 1015,2 hPa 0,0 l/m 17,8 km/h (3 Bft) O-NO 76 0 min 0,000 mm 0,0 UV-I 0 W/m 7,8 C 10,1 C 27,4 km/h (4 Bft) 97,87 %
30.09.2017 20:02 14,8 C 13,9 C 63 % 1015,2 hPa 0,0 l/m 19,2 km/h (3 Bft) O 92 0 min 0,077 mm 0,0 UV-I 0 W/m 7,8 C 9,7 C 29,0 km/h (5 Bft) 98,11 %
30.09.2017 20:04 14,7 C 13,9 C 63 % 1015,2 hPa 0,0 l/m 19,1 km/h (3 Bft) NO 55 0 min 0,000 mm 0,0 UV-I 0 W/m 7,7 C 9,6 C 30,6 km/h (5 Bft) 95,74 %
30.09.2017 20:06 14,7 C 13,9 C 63 % 1015,2 hPa 0,0 l/m 17,5 km/h (3 Bft) NO 42 0 min 0,000 mm 0,0 UV-I 0 W/m 7,7 C 10,0 C 25,7 km/h (4 Bft) 97,37 %
30.09.2017 20:08 14,7 C 13,9 C 64 % 1015,2 hPa 0,0 l/m 16,9 km/h (3 Bft) O-NO 69 0 min 0,000 mm 0,0 UV-I 0 W/m 8,0 C 10,2 C 25,7 km/h (4 Bft) 95,83 %
30.09.2017 20:10 14,6 C 13,9 C 64 % 1015,2 hPa 0,0 l/m 17,6 km/h (3 Bft) O-NO 67 0 min 0,000 mm 0,0 UV-I 0 W/m 7,9 C 9,9 C 24,1 km/h (4 Bft) 97,83 %
30.09.2017 20:12 14,6 C 13,9 C 64 % 1015,1 hPa 0,0 l/m 16,0 km/h (3 Bft) NO 49 0 min 0,000 mm 0,0 UV-I 0 W/m 7,9 C 10,4 C 24,1 km/h (4 Bft) 94,34 %
30.09.2017 20:14 14,6 C 13,9 C 64 % 1015,2 hPa 0,0 l/m 21,0 km/h (4 Bft) NO 47 0 min 0,000 mm 0,0 UV-I 0 W/m 7,9 C 9,0 C 30,6 km/h (5 Bft) 97,44 %
30.09.2017 20:16 14,5 C 13,9 C 64 % 1015,2 hPa 0,0 l/m 21,6 km/h (4 Bft) NO 44 0 min 0,000 mm 0,0 UV-I 0 W/m 7,8 C 8,7 C 29,0 km/h (5 Bft) 96,00 %
30.09.2017 20:18 14,5 C 13,9 C 64 % 1015,2 hPa 0,0 l/m 18,5 km/h (3 Bft) NO 51 0 min 0,000 mm 0,0 UV-I 0 W/m 7,8 C 9,5 C 27,4 km/h (4 Bft) 96,00 %
30.09.2017 20:20 14,4 C 13,9 C 64 % 1015,2 hPa 0,0 l/m 17,2 km/h (3 Bft) NO 51 0 min 0,000 mm 0,0 UV-I 0 W/m 7,7 C 9,8 C 25,7 km/h (4 Bft) 93,62 %
30.09.2017 20:22 14,4 C 13,9 C 64 % 1015,2 hPa 0,0 l/m 18,2 km/h (3 Bft) O-NO 63 0 min 0,000 mm 0,0 UV-I 0 W/m 7,7 C 9,5 C 25,7 km/h (4 Bft) 97,87 %
30.09.2017 20:24 14,4 C 13,9 C 64 % 1015,2 hPa 0,0 l/m 18,0 km/h (3 Bft) NO 53 0 min 0,000 mm 0,0 UV-I 0 W/m 7,7 C 9,5 C 25,7 km/h (4 Bft) 97,87 %
30.09.2017 20:26 14,3 C 13,9 C 64 % 1015,2 hPa 0,0 l/m 14,9 km/h (3 Bft) O-NO 68 0 min 0,000 mm 0,0 UV-I 0 W/m 7,6 C 10,4 C 22,5 km/h (4 Bft) 95,74 %
30.09.2017 20:28 14,3 C 13,9 C 65 % 1015,2 hPa 0,0 l/m 15,9 km/h (3 Bft) NO 51 0 min 0,000 mm 0,0 UV-I 0 W/m 7,8 C 10,0 C 24,1 km/h (4 Bft) 97,87 %
30.09.2017 20:30 14,2 C 13,9 C 65 % 1015,2 hPa 0,0 l/m 14,9 km/h (3 Bft) O-NO 65 0 min 0,000 mm 0,0 UV-I 0 W/m 7,7 C 10,3 C 22,5 km/h (4 Bft) 97,87 %
30.09.2017 20:32 14,2 C 13,9 C 65 % 1015,2 hPa 0,0 l/m 17,9 km/h (3 Bft) O-NO 76 0 min 0,000 mm 0,0 UV-I 0 W/m 7,7 C 9,3 C 25,7 km/h (4 Bft) 97,87 %
30.09.2017 20:34 14,1 C 13,9 C 65 % 1015,3 hPa 0,0 l/m 17,1 km/h (3 Bft) O 79 0 min 0,000 mm 0,0 UV-I 0 W/m 7,6 C 9,4 C 22,5 km/h (4 Bft) 97,37 %
30.09.2017 20:36 14,1 C 13,9 C 66 % 1015,3 hPa 0,0 l/m 15,6 km/h (3 Bft) O-NO 69 0 min 0,000 mm 0,0 UV-I 0 W/m 7,8 C 9,9 C 20,9 km/h (4 Bft) 98,00 %
30.09.2017 20:38 14,0 C 13,9 C 65 % 1015,3 hPa 0,0 l/m 16,8 km/h (3 Bft) NO 56 0 min 0,000 mm 0,0 UV-I 0 W/m 7,5 C 9,4 C 25,7 km/h (4 Bft) 91,49 %
30.09.2017 20:40 14,0 C 13,9 C 66 % 1015,3 hPa 0,0 l/m 16,4 km/h (3 Bft) O-NO 67 0 min 0,000 mm 0,0 UV-I 0 W/m 7,7 C 9,5 C 27,4 km/h (4 Bft) 95,74 %
30.09.2017 20:42 13,9 C 13,9 C 66 % 1015,4 hPa 0,0 l/m 14,4 km/h (3 Bft) NO 55 0 min 0,000 mm 0,0 UV-I 0 W/m 7,7 C 10,1 C 20,9 km/h (4 Bft) 97,87 %
30.09.2017 20:44 13,9 C 13,9 C 66 % 1015,3 hPa 0,0 l/m 14,6 km/h (3 Bft) O-NO 67 0 min 0,000 mm 0,0 UV-I 0 W/m 7,7 C 10,0 C 20,9 km/h (4 Bft) 97,87 %
30.09.2017 20:46 13,9 C 13,9 C 66 % 1015,3 hPa 0,0 l/m 16,5 km/h (3 Bft) O-NO 63 0 min 0,000 mm 0,0 UV-I 0 W/m 7,7 C 9,4 C 22,5 km/h (4 Bft) 97,87 %
30.09.2017 20:48 13,8 C 13,9 C 66 % 1015,3 hPa 0,0 l/m 15,4 km/h (3 Bft) O-NO 67 0 min 0,000 mm 0,0 UV-I 0 W/m 7,6 C 9,6 C 22,5 km/h (4 Bft) 100,00 %
30.09.2017 20:50 13,8 C 13,9 C 66 % 1015,4 hPa 0,0 l/m 15,4 km/h (3 Bft) O-NO 59 0 min 0,000 mm 0,0 UV-I 0 W/m 7,6 C 9,6 C 24,1 km/h (4 Bft) 97,87 %
30.09.2017 20:52 13,8 C 13,9 C 67 % 1015,4 hPa 0,0 l/m 17,1 km/h (3 Bft) O-NO 63 0 min 0,000 mm 0,0 UV-I 0 W/m 7,8 C 9,0 C 27,4 km/h (4 Bft) 97,92 %
30.09.2017 20:54 13,7 C 13,9 C 67 % 1015,4 hPa 0,0 l/m 15,9 km/h (3 Bft) O-NO 67 0 min 0,000 mm 0,0 UV-I 0 W/m 7,7 C 9,3 C 20,9 km/h (4 Bft) 100,00 %
30.09.2017 20:56 13,7 C 13,9 C 67 % 1015,4 hPa 0,0 l/m 17,8 km/h (3 Bft) NO 46 0 min 0,000 mm 0,0 UV-I 0 W/m 7,7 C 8,7 C 29,0 km/h (5 Bft) 100,00 %
30.09.2017 20:58 13,6 C 13,9 C 67 % 1015,4 hPa 0,0 l/m 16,4 km/h (3 Bft) NO 34 0 min 0,000 mm 0,0 UV-I 0 W/m 7,6 C 9,0 C 20,9 km/h (4 Bft) 97,87 %
30.09.2017 21:00 13,6 C 13,9 C 67 % 1015,4 hPa 0,0 l/m 15,9 km/h (3 Bft) O-NO 70 0 min 0,076 mm 0,0 UV-I 0 W/m 7,6 C 9,2 C 19,3 km/h (3 Bft) 100,00 %
30.09.2017 21:02 13,6 C 13,9 C 67 % 1015,4 hPa 0,0 l/m 16,7 km/h (3 Bft) O-NO 60 0 min 0,000 mm 0,0 UV-I 0 W/m 7,6 C 8,9 C 24,1 km/h (4 Bft) 100,00 %
30.09.2017 21:04 13,5 C 13,9 C 68 % 1015,4 hPa 0,0 l/m 15,1 km/h (3 Bft) O 84 0 min 0,000 mm 0,0 UV-I 0 W/m 7,7 C 9,3 C 22,5 km/h (4 Bft) 100,00 %
30.09.2017 21:06 13,5 C 13,9 C 68 % 1015,4 hPa 0,0 l/m 14,4 km/h (3 Bft) O-NO 60 0 min 0,000 mm 0,0 UV-I 0 W/m 7,7 C 9,6 C 24,1 km/h (4 Bft) 100,00 %
30.09.2017 21:08 13,4 C 13,9 C 68 % 1015,4 hPa 0,0 l/m 13,4 km/h (3 Bft) O-NO 57 0 min 0,000 mm 0,0 UV-I 0 W/m 7,6 C 9,9 C 19,3 km/h (3 Bft) 100,00 %
30.09.2017 21:10 13,4 C 13,9 C 68 % 1015,5 hPa 0,0 l/m 14,8 km/h (3 Bft) O-NO 64 0 min 0,000 mm 0,0 UV-I 0 W/m 7,6 C 9,3 C 20,9 km/h (4 Bft) 95,74 %
30.09.2017 21:12 13,3 C 13,9 C 68 % 1015,5 hPa 0,0 l/m 13,7 km/h (3 Bft) O-NO 67 0 min 0,000 mm 0,0 UV-I 0 W/m 7,5 C 9,6 C 19,3 km/h (3 Bft) 98,00 %
30.09.2017 21:14 13,2 C 13,9 C 68 % 1015,5 hPa 0,0 l/m 15,3 km/h (3 Bft) O-NO 61 0 min 0,000 mm 0,0 UV-I 0 W/m 7,4 C 8,9 C 25,7 km/h (4 Bft) 97,87 %
30.09.2017 21:16 13,2 C 13,9 C 69 % 1015,5 hPa 0,0 l/m 10,6 km/h (2 Bft) O 98 0 min 0,000 mm 0,0 UV-I 0 W/m 7,6 C 10,8 C 16,1 km/h (3 Bft) 95,74 %
30.09.2017 21:18 13,2 C 13,9 C 69 % 1015,5 hPa 0,0 l/m 13,2 km/h (3 Bft) O-NO 74 0 min 0,000 mm 0,0 UV-I 0 W/m 7,6 C 9,7 C 19,3 km/h (3 Bft) 100,00 %
30.09.2017 21:20 13,1 C 13,9 C 69 % 1015,5 hPa 0,0 l/m 16,3 km/h (3 Bft) O-NO 74 0 min 0,000 mm 0,0 UV-I 0 W/m 7,5 C 8,4 C 22,5 km/h (4 Bft) 100,00 %
30.09.2017 21:22 13,1 C 13,9 C 69 % 1015,5 hPa 0,0 l/m 13,3 km/h (3 Bft) O-NO 74 0 min 0,000 mm 0,0 UV-I 0 W/m 7,5 C 9,5 C 17,7 km/h (3 Bft) 97,87 %
30.09.2017 21:24 13,1 C 13,9 C 69 % 1015,6 hPa 0,0 l/m 13,6 km/h (3 Bft) O-NO 70 0 min 0,000 mm 0,0 UV-I 0 W/m 7,5 C 9,4 C 17,7 km/h (3 Bft) 100,00 %
30.09.2017 21:26 13,0 C 13,9 C 69 % 1015,6 hPa 0,0 l/m 10,1 km/h (2 Bft) O-NO 57 0 min 0,000 mm 0,0 UV-I 0 W/m 7,4 C 10,9 C 14,5 km/h (3 Bft) 100,00 %
30.09.2017 21:28 12,9 C 13,9 C 70 % 1015,6 hPa 0,0 l/m 9,2 km/h (2 Bft) NO 50 0 min 0,000 mm 0,0 UV-I 0 W/m 7,6 C 11,2 C 16,1 km/h (3 Bft) 100,00 %
30.09.2017 21:30 12,8 C 13,9 C 70 % 1015,6 hPa 0,0 l/m 9,0 km/h (2 Bft) O-NO 59 0 min 0,000 mm 0,0 UV-I 0 W/m 7,5 C 11,2 C 14,5 km/h (3 Bft) 100,00 %
30.09.2017 21:32 12,8 C 13,9 C 70 % 1015,7 hPa 0,0 l/m 7,5 km/h (2 Bft) NO 54 0 min 0,000 mm 0,0 UV-I 0 W/m 7,5 C 12,1 C 14,5 km/h (3 Bft) 97,87 %
30.09.2017 21:34 12,7 C 13,9 C 71 % 1015,7 hPa 0,0 l/m 11,4 km/h (2 Bft) NO 53 0 min 0,000 mm 0,0 UV-I 0 W/m 7,6 C 9,9 C 17,7 km/h (3 Bft) 100,00 %
30.09.2017 21:36 12,6 C 13,9 C 71 % 1015,7 hPa 0,0 l/m 9,4 km/h (2 Bft) NO 53 0 min 0,000 mm 0,0 UV-I 0 W/m 7,5 C 10,8 C 14,5 km/h (3 Bft) 97,87 %
30.09.2017 21:38 12,6 C 13,9 C 71 % 1015,7 hPa 0,0 l/m 8,9 km/h (2 Bft) O-NO 73 0 min 0,000 mm 0,0 UV-I 0 W/m 7,5 C 11,1 C 16,1 km/h (3 Bft) 100,00 %
30.09.2017 21:40 12,5 C 13,9 C 71 % 1015,7 hPa 0,0 l/m 7,7 km/h (2 Bft) O-NO 57 0 min 0,000 mm 0,0 UV-I 0 W/m 7,4 C 11,7 C 11,3 km/h (2 Bft) 100,00 %
30.09.2017 21:42 12,5 C 13,9 C 71 % 1015,7 hPa 0,0 l/m 6,5 km/h (2 Bft) O 83 0 min 0,000 mm 0,0 UV-I 0 W/m 7,4 C 12,5 C 16,1 km/h (3 Bft) 95,74 %
30.09.2017 21:44 12,4 C 13,9 C 72 % 1015,7 hPa 0,0 l/m 8,4 km/h (2 Bft) O 86 0 min 0,000 mm 0,0 UV-I 0 W/m 7,5 C 11,1 C 14,5 km/h (3 Bft) 100,00 %
30.09.2017 21:46 12,4 C 13,9 C 72 % 1015,7 hPa 0,0 l/m 7,7 km/h (2 Bft) O-NO 74 0 min 0,000 mm 0,0 UV-I 0 W/m 7,5 C 11,6 C 12,9 km/h (3 Bft) 97,87 %
30.09.2017 21:48 12,4 C 13,9 C 72 % 1015,7 hPa 0,0 l/m 8,0 km/h (2 Bft) O-NO 57 0 min 0,000 mm 0,0 UV-I 0 W/m 7,5 C 11,4 C 16,1 km/h (3 Bft) 100,00 %
30.09.2017 21:50 12,4 C 13,9 C 72 % 1015,7 hPa 0,0 l/m 7,2 km/h (2 Bft) O-NO 61 0 min 0,000 mm 0,0 UV-I 0 W/m 7,5 C 11,9 C 14,5 km/h (3 Bft) 100,00 %
30.09.2017 21:52 12,3 C 13,9 C 72 % 1015,7 hPa 0,0 l/m 5,9 km/h (2 Bft) O-NO 63 0 min 0,000 mm 0,0 UV-I 0 W/m 7,4 C 12,3 C 11,3 km/h (2 Bft) 97,87 %
30.09.2017 21:54 12,1 C 13,9 C 73 % 1015,7 hPa 0,0 l/m 3,7 km/h (1 Bft) O-NO 62 0 min 0,000 mm 0,0 UV-I 0 W/m 7,4 C 12,1 C 4,8 km/h (1 Bft) 98,00 %
30.09.2017 21:56 11,9 C 13,9 C 74 % 1015,7 hPa 0,0 l/m 4,5 km/h (1 Bft) O-NO 70 0 min 0,000 mm 0,0 UV-I 0 W/m 7,4 C 11,9 C 11,3 km/h (2 Bft) 100,00 %
30.09.2017 21:58 11,8 C 13,9 C 74 % 1015,8 hPa 0,0 l/m 5,6 km/h (1 Bft) O-NO 65 0 min 0,000 mm 0,0 UV-I 0 W/m 7,3 C 11,8 C 8,0 km/h (2 Bft) 100,00 %
30.09.2017 22:00 11,8 C 13,9 C 75 % 1015,8 hPa 0,0 l/m 5,7 km/h (1 Bft) NO 54 0 min 0,051 mm 0,0 UV-I 0 W/m 7,5 C 11,8 C 8,0 km/h (2 Bft) 100,00 %
30.09.2017 22:02 11,7 C 13,9 C 75 % 1015,8 hPa 0,0 l/m 5,3 km/h (1 Bft) O-NO 77 0 min 0,000 mm 0,0 UV-I 0 W/m 7,4 C 11,7 C 6,4 km/h (2 Bft) 97,87 %
30.09.2017 22:04 11,6 C 13,9 C 75 % 1015,7 hPa 0,0 l/m 6,1 km/h (2 Bft) NO 48 0 min 0,000 mm 0,0 UV-I 0 W/m 7,3 C 11,6 C 9,7 km/h (2 Bft) 95,74 %
30.09.2017 22:06 11,6 C 13,9 C 75 % 1015,7 hPa 0,0 l/m 6,7 km/h (2 Bft) NO 56 0 min 0,000 mm 0,0 UV-I 0 W/m 7,3 C 11,4 C 9,7 km/h (2 Bft) 94,00 %
30.09.2017 22:08 11,6 C 13,9 C 76 % 1015,7 hPa 0,0 l/m 6,4 km/h (2 Bft) O-NO 63 0 min 0,000 mm 0,0 UV-I 0 W/m 7,5 C 11,6 C 9,7 km/h (2 Bft) 93,62 %
30.09.2017 22:10 11,6 C 13,9 C 76 % 1015,7 hPa 0,0 l/m 6,9 km/h (2 Bft) O-NO 61 0 min 0,000 mm 0,0 UV-I 0 W/m 7,5 C 11,3 C 11,3 km/h (2 Bft) 97,87 %
30.09.2017 22:12 11,6 C 13,9 C 76 % 1015,6 hPa 0,0 l/m 7,3 km/h (2 Bft) NO 56 0 min 0,000 mm 0,0 UV-I 0 W/m 7,5 C 11,0 C 12,9 km/h (3 Bft) 97,87 %
30.09.2017 22:14 11,6 C 13,9 C 76 % 1015,6 hPa 0,0 l/m 6,9 km/h (2 Bft) NO 53 0 min 0,000 mm 0,0 UV-I 0 W/m 7,5 C 11,3 C 9,7 km/h (2 Bft) 97,44 %
30.09.2017 22:16 11,6 C 13,9 C 76 % 1015,6 hPa 0,0 l/m 8,3 km/h (2 Bft) O-NO 78 0 min 0,000 mm 0,0 UV-I 0 W/m 7,5 C 10,3 C 12,9 km/h (3 Bft) 98,00 %
30.09.2017 22:18 11,5 C 13,9 C 76 % 1015,6 hPa 0,0 l/m 9,0 km/h (2 Bft) O-NO 63 0 min 0,000 mm 0,0 UV-I 0 W/m 7,4 C 9,8 C 16,1 km/h (3 Bft) 97,87 %
30.09.2017 22:20 11,4 C 13,9 C 76 % 1015,6 hPa 0,0 l/m 9,0 km/h (2 Bft) O-NO 69 0 min 0,000 mm 0,0 UV-I 0 W/m 7,3 C 9,7 C 14,5 km/h (3 Bft) 95,74 %
30.09.2017 22:22 11,4 C 13,9 C 76 % 1015,6 hPa 0,0 l/m 7,5 km/h (2 Bft) NO 47 0 min 0,000 mm 0,0 UV-I 0 W/m 7,3 C 10,7 C 12,9 km/h (3 Bft) 97,87 %
30.09.2017 22:24 11,4 C 13,9 C 76 % 1015,7 hPa 0,0 l/m 6,4 km/h (2 Bft) O-NO 67 0 min 0,000 mm 0,0 UV-I 0 W/m 7,3 C 11,4 C 11,3 km/h (2 Bft) 94,00 %
30.09.2017 22:26 11,3 C 13,9 C 76 % 1015,7 hPa 0,0 l/m 7,8 km/h (2 Bft) NO 53 0 min 0,000 mm 0,0 UV-I 0 W/m 7,2 C 10,3 C 12,9 km/h (3 Bft) 93,62 %
30.09.2017 22:28 11,3 C 13,9 C 77 % 1015,7 hPa 0,0 l/m 7,1 km/h (2 Bft) O-NO 61 0 min 0,000 mm 0,0 UV-I 0 W/m 7,4 C 10,8 C 12,9 km/h (3 Bft) 97,87 %
30.09.2017 22:30 11,3 C 13,9 C 77 % 1015,7 hPa 0,0 l/m 5,4 km/h (1 Bft) NO 54 0 min 0,000 mm 0,0 UV-I 0 W/m 7,4 C 11,3 C 11,3 km/h (2 Bft) 95,74 %
30.09.2017 22:32 11,2 C 13,9 C 77 % 1015,7 hPa 0,0 l/m 6,9 km/h (2 Bft) O-NO 60 0 min 0,000 mm 0,0 UV-I 0 W/m 7,3 C 10,9 C 9,7 km/h (2 Bft) 97,14 %
30.09.2017 22:34 11,2 C 13,9 C 77 % 1015,7 hPa 0,0 l/m 7,9 km/h (2 Bft) O-NO 63 0 min 0,000 mm 0,0 UV-I 0 W/m 7,3 C 10,2 C 12,9 km/h (3 Bft) 96,00 %
30.09.2017 22:36 11,2 C 13,9 C 77 % 1015,7 hPa 0,0 l/m 6,6 km/h (2 Bft) O-NO 63 0 min 0,000 mm 0,0 UV-I 0 W/m 7,3 C 11,1 C 9,7 km/h (2 Bft) 95,74 %
30.09.2017 22:38 11,2 C 13,9 C 77 % 1015,7 hPa 0,0 l/m 6,8 km/h (2 Bft) NO 38 0 min 0,000 mm 0,0 UV-I 0 W/m 7,3 C 10,9 C 9,7 km/h (2 Bft) 97,87 %
30.09.2017 22:40 11,1 C 13,9 C 78 % 1015,7 hPa 0,0 l/m 6,7 km/h (2 Bft) NO 51 0 min 0,000 mm 0,0 UV-I 0 W/m 7,4 C 10,9 C 11,3 km/h (2 Bft) 100,00 %
30.09.2017 22:42 11,1 C 13,9 C 78 % 1015,7 hPa 0,0 l/m 6,1 km/h (2 Bft) NO 51 0 min 0,000 mm 0,0 UV-I 0 W/m 7,4 C 11,1 C 9,7 km/h (2 Bft) 100,00 %
30.09.2017 22:44 11,0 C 13,9 C 78 % 1015,7 hPa 0,0 l/m 6,4 km/h (2 Bft) NO 53 0 min 0,000 mm 0,0 UV-I 0 W/m 7,3 C 11,0 C 9,7 km/h (2 Bft) 100,00 %
30.09.2017 22:46 10,9 C 13,9 C 78 % 1015,7 hPa 0,0 l/m 6,2 km/h (2 Bft) NO 39 0 min 0,000 mm 0,0 UV-I 0 W/m 7,2 C 10,9 C 8,0 km/h (2 Bft) 100,00 %
30.09.2017 22:48 10,9 C 13,9 C 78 % 1015,7 hPa 0,0 l/m 5,7 km/h (1 Bft) NO 52 0 min 0,000 mm 0,0 UV-I 0 W/m 7,2 C 10,9 C 8,0 km/h (2 Bft) 100,00 %
30.09.2017 22:50 10,8 C 13,9 C 78 % 1015,8 hPa 0,0 l/m 6,6 km/h (2 Bft) NO 54 0 min 0,000 mm 0,0 UV-I 0 W/m 7,1 C 10,7 C 9,7 km/h (2 Bft) 100,00 %
30.09.2017 22:52 10,8 C 13,9 C 79 % 1015,9 hPa 0,0 l/m 5,0 km/h (1 Bft) O-NO 70 0 min 0,000 mm 0,0 UV-I 0 W/m 7,3 C 10,8 C 6,4 km/h (2 Bft) 93,62 %
30.09.2017 22:54 10,8 C 13,9 C 79 % 1015,8 hPa 0,0 l/m 6,3 km/h (2 Bft) NO 44 0 min 0,000 mm 0,0 UV-I 0 W/m 7,3 C 10,8 C 9,7 km/h (2 Bft) 97,87 %
30.09.2017 22:56 10,7 C 13,9 C 79 % 1015,9 hPa 0,0 l/m 5,7 km/h (1 Bft) NO 46 0 min 0,000 mm 0,0 UV-I 0 W/m 7,2 C 10,7 C 8,0 km/h (2 Bft) 97,87 %
30.09.2017 22:58 10,7 C 13,9 C 79 % 1015,9 hPa 0,0 l/m 5,8 km/h (2 Bft) NO 35 0 min 0,000 mm 0,0 UV-I 0 W/m 7,2 C 10,7 C 8,0 km/h (2 Bft) 98,00 %
30.09.2017 23:00 10,7 C 13,9 C 79 % 1015,9 hPa 0,0 l/m 5,1 km/h (1 Bft) O-NO 65 0 min 0,025 mm 0,0 UV-I 0 W/m 7,2 C 10,7 C 8,0 km/h (2 Bft) 97,87 %
30.09.2017 23:02 10,6 C 13,3 C 79 % 1015,8 hPa 0,0 l/m 5,4 km/h (1 Bft) NO 46 0 min 0,000 mm 0,0 UV-I 0 W/m 7,1 C 10,6 C 8,0 km/h (2 Bft) 95,74 %
30.09.2017 23:04 10,6 C 13,9 C 80 % 1015,9 hPa 0,0 l/m 6,4 km/h (2 Bft) NO 49 0 min 0,000 mm 0,0 UV-I 0 W/m 7,3 C 10,6 C 9,7 km/h (2 Bft) 97,87 %
30.09.2017 23:06 10,6 C 13,3 C 80 % 1015,9 hPa 0,0 l/m 6,4 km/h (2 Bft) NO 51 0 min 0,000 mm 0,0 UV-I 0 W/m 7,3 C 10,6 C 8,0 km/h (2 Bft) 98,00 %
30.09.2017 23:08 10,5 C 13,3 C 80 % 1015,9 hPa 0,0 l/m 6,0 km/h (2 Bft) NO 54 0 min 0,000 mm 0,0 UV-I 0 W/m 7,2 C 10,5 C 8,0 km/h (2 Bft) 97,37 %
30.09.2017 23:10 10,4 C 13,3 C 80 % 1015,9 hPa 0,0 l/m 5,5 km/h (1 Bft) NO 54 0 min 0,000 mm 0,0 UV-I 0 W/m 7,1 C 10,4 C 8,0 km/h (2 Bft) 98,00 %
30.09.2017 23:12 10,3 C 13,3 C 80 % 1015,9 hPa 0,0 l/m 5,9 km/h (2 Bft) NO 43 0 min 0,000 mm 0,0 UV-I 0 W/m 7,0 C 10,3 C 9,7 km/h (2 Bft) 97,87 %
30.09.2017 23:14 10,3 C 13,3 C 81 % 1016,0 hPa 0,0 l/m 5,2 km/h (1 Bft) NO 43 0 min 0,000 mm 0,0 UV-I 0 W/m 7,2 C 10,3 C 8,0 km/h (2 Bft) 97,87 %
30.09.2017 23:16 10,2 C 13,3 C 81 % 1016,0 hPa 0,0 l/m 6,0 km/h (2 Bft) NO 43 0 min 0,000 mm 0,0 UV-I 0 W/m 7,1 C 10,2 C 8,0 km/h (2 Bft) 95,74 %
30.09.2017 23:18 10,2 C 13,3 C 81 % 1016,0 hPa 0,0 l/m 5,9 km/h (2 Bft) NO 44 0 min 0,000 mm 0,0 UV-I 0 W/m 7,1 C 10,2 C 8,0 km/h (2 Bft) 98,00 %
30.09.2017 23:20 10,2 C 13,3 C 81 % 1016,0 hPa 0,0 l/m 4,9 km/h (1 Bft) NO 48 0 min 0,000 mm 0,0 UV-I 0 W/m 7,1 C 10,2 C 6,4 km/h (2 Bft) 95,74 %
30.09.2017 23:22 10,2 C 13,3 C 81 % 1016,0 hPa 0,0 l/m 5,2 km/h (1 Bft) O-NO 57 0 min 0,000 mm 0,0 UV-I 0 W/m 7,1 C 10,2 C 8,0 km/h (2 Bft) 97,87 %
30.09.2017 23:24 10,3 C 13,3 C 81 % 1015,9 hPa 0,0 l/m 4,9 km/h (1 Bft) NO 51 0 min 0,000 mm 0,0 UV-I 0 W/m 7,2 C 10,3 C 6,4 km/h (2 Bft) 97,37 %
30.09.2017 23:26 10,3 C 13,3 C 81 % 1016,0 hPa 0,0 l/m 6,3 km/h (2 Bft) O-NO 57 0 min 0,000 mm 0,0 UV-I 0 W/m 7,2 C 10,3 C 8,0 km/h (2 Bft) 97,87 %
30.09.2017 23:28 10,3 C 13,3 C 81 % 1016,0 hPa 0,0 l/m 6,9 km/h (2 Bft) O-NO 57 0 min 0,000 mm 0,0 UV-I 0 W/m 7,2 C 9,9 C 8,0 km/h (2 Bft) 95,83 %
30.09.2017 23:30 10,3 C 13,3 C 80 % 1016,0 hPa 0,0 l/m 7,3 km/h (2 Bft) O-NO 67 0 min 0,000 mm 0,0 UV-I 0 W/m 7,0 C 9,7 C 11,3 km/h (2 Bft) 95,74 %
30.09.2017 23:32 10,3 C 13,3 C 80 % 1015,9 hPa 0,0 l/m 7,0 km/h (2 Bft) O-NO 65 0 min 0,000 mm 0,0 UV-I 0 W/m 7,0 C 9,9 C 9,7 km/h (2 Bft) 97,87 %
30.09.2017 23:34 10,4 C 13,3 C 80 % 1015,9 hPa 0,0 l/m 7,3 km/h (2 Bft) O-NO 63 0 min 0,000 mm 0,0 UV-I 0 W/m 7,1 C 9,8 C 9,7 km/h (2 Bft) 97,87 %
30.09.2017 23:36 10,4 C 13,3 C 80 % 1015,9 hPa 0,0 l/m 8,4 km/h (2 Bft) O-NO 59 0 min 0,000 mm 0,0 UV-I 0 W/m 7,1 C 9,0 C 11,3 km/h (2 Bft) 95,74 %
30.09.2017 23:38 10,4 C 13,3 C 80 % 1015,9 hPa 0,0 l/m 9,2 km/h (2 Bft) O-NO 66 0 min 0,000 mm 0,0 UV-I 0 W/m 7,1 C 8,5 C 12,9 km/h (3 Bft) 92,68 %
30.09.2017 23:40 10,5 C 13,3 C 80 % 1015,9 hPa 0,0 l/m 9,8 km/h (2 Bft) NO 55 0 min 0,000 mm 0,0 UV-I 0 W/m 7,2 C 8,3 C 16,1 km/h (3 Bft) 98,00 %
30.09.2017 23:42 10,6 C 13,3 C 79 % 1016,0 hPa 0,0 l/m 8,6 km/h (2 Bft) NO 51 0 min 0,000 mm 0,0 UV-I 0 W/m 7,1 C 9,1 C 12,9 km/h (3 Bft) 95,74 %
30.09.2017 23:44 10,6 C 13,3 C 79 % 1016,0 hPa 0,0 l/m 7,8 km/h (2 Bft) O 84 0 min 0,000 mm 0,0 UV-I 0 W/m 7,1 C 9,6 C 11,3 km/h (2 Bft) 96,00 %
30.09.2017 23:46 10,6 C 13,3 C 79 % 1016,0 hPa 0,0 l/m 6,2 km/h (2 Bft) NO 51 0 min 0,000 mm 0,0 UV-I 0 W/m 7,1 C 10,6 C 8,0 km/h (2 Bft) 95,74 %
30.09.2017 23:48 10,6 C 13,3 C 79 % 1016,0 hPa 0,0 l/m 5,2 km/h (1 Bft) NO 53 0 min 0,000 mm 0,0 UV-I 0 W/m 7,1 C 10,6 C 8,0 km/h (2 Bft) 98,00 %
30.09.2017 23:50 10,5 C 13,3 C 79 % 1016,0 hPa 0,0 l/m 5,5 km/h (1 Bft) O-NO 62 0 min 0,000 mm 0,0 UV-I 0 W/m 7,0 C 10,5 C 9,7 km/h (2 Bft) 97,87 %
30.09.2017 23:52 10,4 C 13,3 C 79 % 1016,1 hPa 0,0 l/m 5,5 km/h (1 Bft) O-NO 76 0 min 0,000 mm 0,0 UV-I 0 W/m 6,9 C 10,4 C 8,0 km/h (2 Bft) 93,62 %
30.09.2017 23:54 10,4 C 13,3 C 80 % 1016,0 hPa 0,0 l/m 3,5 km/h (1 Bft) O-NO 74 0 min 0,000 mm 0,0 UV-I 0 W/m 7,1 C 10,4 C 6,4 km/h (2 Bft) 100,00 %
30.09.2017 23:56 10,3 C 13,3 C 80 % 1016,1 hPa 0,0 l/m 3,6 km/h (1 Bft) O-NO 74 0 min 0,000 mm 0,0 UV-I 0 W/m 7,0 C 10,3 C 4,8 km/h (1 Bft) 100,00 %
30.09.2017 23:58 10,3 C 13,3 C 80 % 1016,0 hPa 0,0 l/m 4,6 km/h (1 Bft) NO 51 0 min 0,000 mm 0,0 UV-I 0 W/m 7,0 C 10,3 C 6,4 km/h (2 Bft) 97,87 %
_ Min-Zeit 07:44 02:18 16:18 17:02 - 05:00 - - - - - - 07:24 09:08 05:00 01:04
Minimum _ 7,2 C 13,3 C 60 % 1015,1 hPa - 0,0 km/h (0 Bft) - - - - - - 6,4 C 6,7 C 0,0 km/h (0 Bft) 89,36 %
_ Max-Zeit 15:26 00:00 07:00 00:00 00:00 20:16 - - 07:12 14:00 12:32 12:38 13:54 15:02 15:48 00:00
Maximum _ 19,3 C 13,9 C 95 % 1021,3 hPa 0,0 l/m 21,6 km/h
NO (4 Bft)
- - 2 min 0,381 mm 3,0 UV-I 626 W/m 12,5 C 17,2 C 30,6 km/h
NO (5 Bft)
100,00 %
Durchschnitt _ 12,9 C 13,4 C 78 % 1017,9 hPa #0,0 l/m 8,9 km/h (2 Bft) O-NO - #11:02 h #3,048 mm 1,9 UV-I 354 W/m 9,0 C 11,4 C 13,5 km/h (3 Bft) 97,74 %